[[{"header":{"parameterUnit":"m.s-1","parameterCategory":1,"la1":30.6,"la2":29.2853,"lo1":-89.7004,"lo2":-87.6739,"dy":0.0162,"dx":0.0183,"nx":112,"ny":82,"refTime":"2024-04-20T12:00:00:Z","depth":0,"parameterNumber":2,"parameterNumberName":"U-component_of_WINDS"},"data":[0.0,0.0,0.0,0.0,0.0,0.0,0.0,0.0,0.0,0.0,0.0,0.0,0.0,0.0,0.0,0.0,0.0,0.0,0.0,0.0,0.0,0.0,0.0,0.0,0.0,0.0,0.0,0.0,0.0,0.0,0.0,0.0,0.0,0.0,0.0,0.0,0.0,0.0,0.0,0.0,0.0,0.0,0.0,0.0,0.0,0.0,0.0,0.0,0.0,0.0,0.0,0.0,0.0,0.0,0.0,0.0,0.0,0.0,0.0,0.0,0.0,0.0,0.0,0.0,0.0,0.0,0.0,0.0,0.0,0.0,0.0,0.0,0.0,0.0,0.0,0.0,0.0,0.0,0.0,0.0,0.0,0.0,0.0,0.0,0.0,0.0,0.0,0.0,0.0,0.0,-0.3439,-0.3356,-0.3554,-0.3645,-0.3506,-0.3475,-0.3509,-0.3679,0.0,0.0,0.0,0.0,0.0,0.0,0.0,0.0,0.0,0.0,0.0,0.0,0.0,0.0,0.0,0.0,0.0,0.0,0.0,0.0,0.0,0.0,0.0,0.0,0.0,0.0,0.0,0.0,0.0,0.0,0.0,0.0,0.0,0.0,0.0,0.0,0.0,0.0,0.0,0.0,0.0,0.0,0.0,0.0,0.0,0.0,0.0,0.0,0.0,0.0,0.0,0.0,0.0,0.0,0.0,0.0,0.0,0.0,0.0,0.0,0.0,0.0,0.0,0.0,0.0,0.0,0.0,0.0,0.0,0.0,0.0,0.0,0.0,0.0,0.0,0.0,0.0,0.0,0.0,0.0,0.0,0.0,0.0,0.0,0.0,0.0,0.0,0.0,0.0,0.0,0.0,0.0,0.0,0.0,0.0,0.0,0.0,0.0,0.0,0.0,0.0,0.0,0.0,0.0,-0.3795,-0.3953,-0.4347,-0.4292,-0.3561,-0.3592,-0.3669,-0.3693,0.0,0.0,0.0,0.0,0.0,0.0,0.0,0.0,0.0,0.0,0.0,0.0,0.0,0.0,0.0,0.0,0.0,0.0,0.0,0.0,0.0,0.0,0.0,0.0,0.0,0.0,0.0,0.0,0.0,0.0,0.0,0.0,0.0,0.0,0.0,0.0,0.0,0.0,0.0,0.0,0.0,0.0,0.0,0.0,0.0,0.0,0.0,0.0,0.0,0.0,0.0,0.0,0.0,0.0,0.0,0.0,0.0,0.0,0.0,0.0,0.0,0.0,0.0,0.0,0.0,0.0,0.0,0.0,0.0,0.0,0.0,0.0,0.0,0.0,0.0,0.0,0.0,0.0,0.0,0.0,0.0,0.0,0.0,0.0,0.0,0.0,0.0,0.0,0.0,0.0,0.0,0.0,0.0,0.0,0.0,0.0,0.0,0.0,0.0,0.0,0.0,0.0,0.0,-0.2691,-0.2612,-0.3457,-0.3649,-0.3727,-0.3765,-0.3263,-0.3244,-0.3977,-0.3145,0.0,0.0,0.0,0.0,0.0,0.0,0.0,0.0,0.0,0.0,0.0,0.0,0.0,0.0,0.0,0.0,0.0,0.0,0.0,0.0,0.0,0.0,0.0,0.0,0.0,0.0,0.0,0.0,0.0,0.0,0.0,0.0,0.0,0.0,0.0,0.0,0.0,0.0,0.0,0.0,0.0,0.0,0.0,0.0,0.0,0.0,0.0,0.0,0.0,0.0,0.0,0.0,0.0,0.0,0.0,0.0,0.0,0.0,0.0,0.0,0.0,0.0,0.0,0.0,0.0,0.0,0.0,0.0,0.0,0.0,0.0,0.0,0.0,0.0,0.0,0.0,0.0,0.0,0.0,0.0,0.0,0.0,0.0,0.0,0.0,0.0,0.0,0.0,0.0,0.0,0.0,0.0,0.0,0.0,0.0,0.0,0.0,0.0,0.0,0.0,0.0,0.0,-0.196,-0.1608,-0.2667,-0.2641,-0.271,-0.321,-0.2438,-0.2498,-0.3791,-0.2529,0.0,0.0,0.0,0.0,0.0,0.0,0.0,0.0,0.0,0.0,0.0,0.0,0.0,0.0,0.0,0.0,0.0,0.0,0.0,0.0,0.0,0.0,0.0,0.0,0.0,0.0,0.0,0.0,0.0,0.0,0.0,0.0,0.0,0.0,0.0,0.0,0.0,0.0,0.0,0.0,0.0,0.0,0.0,0.0,0.0,0.0,0.0,0.0,0.0,0.0,0.0,0.0,0.0,0.0,0.0,0.0,0.0,0.0,0.0,0.0,0.0,0.0,0.0,0.0,0.0,0.0,0.0,0.0,0.0,0.0,0.0,0.0,0.0,0.0,0.0,0.0,0.0,0.0,0.0,0.0,0.0,0.0,0.0,0.0,0.0,0.0,0.0,0.0,0.0,0.0,0.0,0.0,0.0,0.0,0.0,0.0,0.0,0.0,0.0,0.0,0.0,0.0,-0.2375,-0.1778,-0.187,-0.1769,-0.1516,-0.1054,-0.0942,-0.1391,-0.2553,-0.2104,0.0,0.0,0.0,0.0,0.0,0.0,0.0,0.0,0.0,0.0,0.0,0.0,0.0,0.0,0.0,0.0,0.0,0.0,0.0,0.0,0.0,0.0,0.0,0.0,0.0,0.0,0.0,0.0,0.0,0.0,0.0,0.0,0.0,0.0,0.0,0.0,0.0,0.0,0.0,0.0,0.0,0.0,0.0,0.0,0.0,0.0,0.0,0.0,0.0,0.0,0.0,0.0,0.0,0.0,0.0,0.0,0.0,0.0,0.0,0.0,0.0,0.0,0.0,0.0,0.0,0.0,0.0,0.0,0.0,0.0,0.0,0.0,0.0,0.0,0.0,0.0,0.0,0.0,0.0,0.0,0.0,0.0,0.0,0.0,0.0,0.0,0.0,0.0,0.0,0.0,0.0,0.0,0.0,0.0,0.0,0.0,0.0,0.0,0.0,0.0,0.0,0.0,-0.0872,-0.0092,-0.0841,-0.062,-0.0664,-0.131,-0.0508,-0.0768,-0.2642,0.0,0.0,0.0,0.0,0.0,0.0,0.0,0.0,0.0,0.0,0.0,0.0,0.0,0.0,0.0,0.0,0.0,0.0,0.0,0.0,0.0,0.0,0.0,0.0,0.0,0.0,0.0,0.0,0.0,0.0,0.0,0.0,0.0,0.0,0.0,0.0,0.0,0.0,0.0,0.0,0.0,0.0,0.0,0.0,0.0,0.0,0.0,0.0,0.0,0.0,0.0,0.0,0.0,0.0,0.0,0.0,0.0,0.0,0.0,0.0,0.0,0.0,0.0,0.0,0.0,0.0,0.0,0.0,0.0,0.0,0.0,0.0,0.0,0.0,0.0,0.0,0.0,0.0,0.0,0.0,0.0,0.0,0.0,0.0,0.0,0.0,0.0,0.0,0.0,0.0,0.0,0.0,0.0,0.0,0.0,0.0,0.0,0.0,0.0,0.0,0.0,0.0,-0.1558,0.0172,0.1119,0.0325,0.057,0.0463,-0.0385,0.0504,0.0147,-0.2059,0.0,0.0,0.0,0.0,0.0,0.0,0.0,0.0,0.0,0.0,0.0,0.0,0.0,0.0,0.0,0.0,0.0,0.0,0.0,0.0,0.0,0.0,0.0,0.0,0.0,0.0,0.0,0.0,0.0,0.0,0.0,0.0,0.0,0.0,0.0,0.0,0.0,0.0,0.0,0.0,0.0,0.0,0.0,0.0,0.0,0.0,0.0,0.0,0.0,0.0,0.0,0.0,0.0,0.0,0.0,0.0,0.0,0.0,0.0,0.0,0.0,0.0,0.0,0.0,0.0,0.0,0.0,0.0,0.0,0.0,0.0,0.0,0.0,0.0,0.0,0.0,0.0,0.0,0.0,0.0,0.0,0.0,0.0,0.0,0.0,0.0,0.0,0.0,0.0,0.0,0.0,0.0,0.0,0.0,0.0,0.0,0.0,0.0,0.0,0.0,0.0,0.0,-0.12,0.0368,0.1515,0.1582,0.1788,0.1981,0.2183,0.2316,0.1515,0.0,0.0,0.0,0.0,0.0,0.0,0.0,0.0,0.0,0.0,0.0,0.0,0.0,0.0,0.0,0.0,0.0,0.0,0.0,0.0,0.0,0.0,0.0,0.0,0.0,0.0,0.0,0.0,0.0,0.0,0.0,0.0,0.0,0.0,0.0,0.0,0.0,0.0,0.0,0.0,0.0,0.0,0.0,0.0,0.0,0.0,0.0,0.0,0.0,0.0,0.0,0.0,0.0,0.0,0.0,0.0,0.0,0.0,0.0,0.0,0.0,0.0,0.0,0.0,0.0,0.0,0.0,0.0,0.0,0.0,0.0,0.0,0.0,0.0,0.0,0.0,0.0,0.0,0.0,0.0,0.0,0.0,0.0,0.0,0.0,0.0,0.0,0.0,0.0,0.0,0.0,0.0,0.0,0.0,0.0,0.0,0.0,0.0,0.0,0.0,0.0,0.0,0.0,-0.1588,0.0195,0.1461,0.1331,0.1655,0.1786,0.1507,0.1889,0.1108,-0.125,0.0,0.0,0.0,0.0,0.0,0.0,0.0,0.0,0.0,0.0,0.0,0.0,0.0,0.0,0.0,0.0,0.0,0.0,0.0,0.0,0.0,0.0,0.0,0.0,0.0,0.0,0.0,0.0,0.0,0.0,0.0,0.0,0.0,0.0,0.0,0.0,0.0,0.0,0.0,0.0,0.0,0.0,0.0,0.0,0.0,0.0,0.0,0.0,0.0,0.0,0.0,0.0,0.0,0.0,0.0,0.0,0.0,0.0,0.0,0.0,0.0,0.0,0.0,0.0,0.0,0.0,0.0,0.0,0.0,0.0,0.0,0.0,0.0,0.0,0.0,0.0,0.0,0.0,0.0,0.0,0.0,0.0,0.0,0.0,0.0,0.0,0.0,0.0,0.0,0.0,0.0,0.0,0.0,0.0,0.0,0.0,0.0,0.0,0.0,0.0,0.0,0.0,-0.1742,-0.0086,0.1028,0.0741,0.1139,0.1253,0.088,0.1484,0.0987,-0.1125,0.0,0.0,0.0,0.0,0.0,0.0,0.0,0.0,0.0,0.0,0.0,0.0,0.0,0.0,0.0,0.0,0.0,0.0,0.0,0.0,0.0,0.0,0.0,0.0,0.0,0.0,0.0,0.0,0.0,0.0,0.0,0.0,0.0,0.0,0.0,0.0,0.0,0.0,0.0,0.0,0.0,0.0,0.0,0.0,0.0,0.0,0.0,0.0,0.0,0.0,0.0,0.0,0.0,0.0,0.0,0.0,0.0,0.0,0.0,0.0,0.0,0.0,0.0,0.0,0.0,0.0,0.0,0.0,0.0,0.0,0.0,0.0,0.0,0.0,0.0,0.0,0.0,0.0,0.0,0.0,0.0,0.0,0.0,0.0,0.0,0.0,0.0,0.0,0.0,0.0,0.0,0.0,0.0,0.0,0.0,0.0,0.0,0.0,0.0,0.0,0.0,0.0,-0.1814,-0.0445,0.0393,0.0,0.0366,0.0545,0.0324,0.1093,0.0982,-0.0495,0.0,0.0,0.0,0.0,0.0,0.0,0.0,0.0,0.0,0.0,0.0,0.0,0.0,0.0,0.0,0.0,0.0,0.0,0.0,0.0,0.0,0.0,0.0,0.0,0.0,0.0,0.0,0.0,0.0,0.0,0.0,0.0,0.0,0.0,0.0,0.0,0.0,0.0,0.0,0.0,0.0,0.0,0.0,0.0,0.0,0.0,0.0,0.0,0.0,0.0,0.0,0.0,0.0,0.0,0.0,0.0,0.0,0.0,0.0,0.0,-0.0911,-0.1822,0.0,0.0,0.0,0.0,0.0,0.0,0.0,0.0,0.0,0.0,0.0,0.0,0.0,0.0,0.0,0.0,0.0,0.0,0.0,0.0,0.0,0.0,0.0,0.0,0.0,0.0,0.0,0.0,0.0,0.0,0.0,0.0,0.0,0.0,0.0,0.0,0.0,0.0,0.0,0.0,-0.2225,-0.0862,0.0023,-0.0294,-0.0025,0.0216,0.0371,0.0665,0.0461,-0.0391,-0.0129,0.0,0.0,0.0,0.0,0.0,0.0,0.0,0.0,0.0,0.0,0.0,0.0,0.0,0.0,0.0,0.0,0.0,0.0,0.0,0.0,0.0,0.0,0.0,0.0,0.0,0.0,0.0,0.0,0.0,0.0,0.0,0.0,0.0,0.0,0.0,0.0,0.0,0.0,0.0,0.0,0.0,0.0,0.0,0.0,0.0,0.0,0.0,0.0,0.0,0.0,0.0,0.0,0.0,0.0,0.0,0.0,0.0,0.0,0.0,-0.0568,-0.0936,0.0,0.0,0.0,0.0,0.0,0.0,0.0,0.0,0.0,0.0,0.0,0.0,0.0,0.0,0.0,0.0,0.0,0.0,0.0,0.0,0.0,0.0,0.0,0.0,0.0,0.0,0.0,0.0,0.0,0.0,0.0,0.0,0.0,0.0,0.0,0.0,0.0,0.0,0.0,0.0,-0.2516,-0.1221,-0.042,-0.0915,-0.0612,-0.0384,-0.0376,0.0045,0.0064,-0.0517,-0.0444,0.0,0.0,0.0,0.0,0.0,0.0,0.0,0.0,0.0,0.0,0.0,0.0,0.0,0.0,0.0,0.0,0.0,0.0,0.0,0.0,0.0,0.0,0.0,0.0,0.0,0.0,0.0,0.0,0.0,0.0,0.0,0.0,0.0,0.0,0.0,0.0,0.0,0.0,0.0,0.0,0.0,0.0,0.0,0.0,0.0,0.0,0.0,0.0,0.0,0.0,0.0,0.0,0.0,-0.0925,-0.069,-0.0539,-0.064,-0.0729,-0.0759,0.0132,0.038,0.0126,-0.016,0.0,0.0,0.0,0.0,0.0,0.0,0.0,0.0,0.0,0.0,0.0,0.0,0.0,0.0,0.0,0.0,0.0,0.0,0.0,0.0,0.0,0.0,-0.2101,-0.0987,-0.1113,-0.126,-0.0558,0.0,0.0,0.0,0.0,0.0,0.0,0.0,0.0,0.0,0.0,0.0,-0.2706,-0.1518,-0.0856,-0.1533,-0.1154,-0.0913,-0.105,-0.0454,-0.0198,-0.0481,-0.0874,-0.1042,0.0,0.0,0.0,0.0,0.0,0.0,0.0,0.0,0.0,0.0,0.0,0.0,0.0,0.0,0.0,0.0,0.0,0.0,0.0,0.0,0.0,0.0,0.0,0.0,0.0,0.0,0.0,0.0,0.0,0.0,0.0,0.0,-0.0567,-0.0136,0.0,0.0,0.0,0.0,0.0,0.0,0.0,0.0,0.0,0.0,0.0,0.0,0.0,-0.1415,-0.1422,-0.0315,0.0168,0.0062,0.1191,0.159,0.135,0.1628,0.1392,0.0773,0.0342,0.0,0.0753,0.0362,0.0,0.0,0.0,0.0,0.0,0.0,0.0,0.0,0.0,0.0,0.0,0.0,0.0,0.0,0.0,0.0,0.0,0.0,0.0,0.0,0.0,0.0,0.0228,0.0626,-0.0108,-0.0599,0.0541,-0.1027,-0.2459,-0.1789,-0.2534,-0.3249,0.0,0.0,0.0,0.0,0.0,0.0,-0.2771,-0.1762,-0.1159,-0.156,-0.1333,-0.0965,-0.055,-0.0466,-0.0228,0.0224,-0.0607,-0.1266,-0.1642,-0.2643,0.0,0.0,0.0,0.0,0.0,0.0,0.0,0.0,0.0,0.0,0.0,0.0,0.0,0.0,0.0,0.0,0.0,0.0,0.0,0.0,0.0,0.0,0.0,0.0,0.0,0.0,0.0,0.0,0.0,-0.0444,-0.0063,-0.0063,-0.0095,-0.0517,0.0,0.0,0.0,0.0,0.0,0.0,0.0,0.0,0.0,-0.1552,-0.0727,-0.0522,-0.0992,0.0534,0.1143,0.0874,0.1532,0.1782,0.1659,0.1786,0.1678,0.1367,0.1081,0.1122,0.1353,0.0691,0.0542,0.0659,0.0,0.0,0.0,0.0,-0.2057,-0.157,-0.1793,-0.1192,-0.0325,-0.0377,0.0,0.0,0.0,0.0,0.0,0.0,0.0,-0.177,-0.1108,-0.0633,-0.0198,0.0453,0.0114,-0.0206,0.0274,-0.0952,-0.1949,-0.1329,-0.219,-0.3026,-0.3105,-0.297,0.0,0.0,0.0,-0.2231,-0.2493,-0.172,-0.1274,-0.1562,-0.1351,-0.1111,-0.0874,-0.0848,-0.0944,-0.1209,-0.1459,-0.1862,-0.2451,-0.3104,-0.3356,0.0,0.0,0.0,0.0,0.0,0.0,0.0,0.0,0.0,0.0,0.0,0.0,0.0,0.0,0.0,0.0,0.0,0.0,0.0,0.0,0.0,0.0,0.0,0.0,0.0,0.0,0.0,0.0,-0.0225,0.0309,0.0217,0.0305,0.0,0.0,0.0,0.0,0.0,0.0,0.0,-0.0733,-0.1186,-0.1361,-0.1151,0.0045,0.0411,-0.022,0.1192,0.1755,0.1405,0.1555,0.1618,0.1614,0.1614,0.1614,0.1612,0.1564,0.1614,0.1723,0.1044,0.0673,0.055,0.0478,-0.0041,-0.0818,-0.1204,-0.1119,-0.0847,-0.1018,-0.0442,0.032,0.0127,-0.0122,-0.0431,-0.0832,0.0,0.0,0.0,0.0,-0.1768,-0.0947,-0.0867,-0.0826,-0.0071,-0.0048,-0.0193,-0.019,-0.1107,-0.1722,-0.1024,-0.1827,-0.2689,-0.2907,-0.2646,0.0,-0.3188,-0.2427,-0.1917,-0.2249,-0.1659,-0.1293,-0.1564,-0.1372,-0.1209,-0.1204,-0.1147,-0.1546,-0.2514,-0.2477,-0.2727,-0.3404,-0.3813,-0.3869,-0.3528,0.0,0.0,0.0,0.0,0.0,0.0,0.0,0.0,0.0,0.0,0.0,0.0,0.0,0.0,0.0,0.0,0.0,0.0,0.0,0.0,0.0,0.0,0.0,0.0,0.0,0.0,0.0,0.0,0.0,0.0943,0.1273,0.0,0.0,0.0,0.0,-0.13,-0.1822,-0.1497,-0.0022,-0.0462,-0.0096,0.1378,0.1303,0.1352,0.1562,0.1665,0.1693,0.1671,0.1697,0.1698,0.1699,0.1699,0.1699,0.1673,0.1433,0.1471,0.1698,0.1525,0.1711,0.1952,0.0563,0.0192,0.0231,-0.1239,-0.1035,-0.0087,-0.0354,0.0334,0.13,0.1097,0.0223,-0.1017,-0.2356,-0.2502,0.0,0.0,-0.192,-0.1536,-0.1608,-0.1233,-0.0744,-0.0449,-0.0579,-0.068,-0.0428,-0.1534,-0.2218,-0.1112,-0.1722,-0.2377,-0.2273,0.0,-0.2294,-0.2843,-0.2442,-0.2141,-0.228,-0.1655,-0.1312,-0.1566,-0.1363,-0.1202,-0.1205,-0.1201,-0.165,-0.2709,-0.3257,-0.3853,-0.4579,-0.5181,-0.5395,-0.5181,-0.4927,0.0,0.0,0.0,0.0,0.0,0.0,0.0,0.0,0.0,0.0,0.0,0.0,0.0,0.0,0.0,0.0,0.0,0.0,0.0,0.0,0.0,0.0,0.0,0.0,0.0,0.0,0.0,0.0,0.0391,0.0769,0.0,0.0513,0.0383,0.0131,-0.0371,0.0093,0.0504,0.08,0.0678,0.085,0.1385,0.1516,0.1613,0.176,0.1714,0.1714,0.176,0.1554,0.144,0.144,0.1226,0.1226,0.144,0.1332,0.1459,0.1686,0.1464,0.1555,0.1764,0.1183,0.0942,0.0845,0.046,0.0511,0.0753,0.0607,0.087,0.121,0.0791,0.0318,-0.02,-0.085,-0.0913,-0.0798,-0.081,-0.0807,-0.0804,-0.0845,-0.0833,-0.082,-0.0906,-0.0985,-0.1086,-0.1162,-0.1582,-0.1842,-0.1425,-0.2135,-0.2652,-0.2257,-0.1929,-0.1898,-0.2441,-0.2099,-0.1798,-0.1832,-0.1621,-0.1491,-0.1592,-0.1516,-0.1461,-0.1451,-0.1459,-0.1874,-0.286,-0.3319,-0.3987,-0.4978,-0.5472,-0.5787,-0.5935,-0.6032,-0.5649,0.0,0.0,0.0,0.0,0.0,0.0,0.0,0.0,0.0,0.0,0.0,0.0,0.0,0.0,0.0,0.0,0.0,0.0,0.0,0.0,0.0,0.0,0.0,0.0,0.0,-0.1086,-0.0254,0.0147,0.0428,0.0583,0.05,0.0517,0.0435,0.0221,0.0996,0.1391,0.111,0.1249,0.1269,0.1158,0.1344,0.1457,0.1502,0.1449,0.1445,0.1489,0.1282,0.1167,0.1167,0.0922,0.0649,0.0376,0.0811,0.0915,0.0771,0.0939,0.1208,0.1489,0.1321,0.121,0.1154,0.1326,0.1307,0.1188,0.105,0.0956,0.0864,0.0505,0.0378,0.0281,-0.0047,-0.0071,-0.0048,-0.0215,-0.0462,-0.0669,-0.0669,-0.0876,-0.1111,-0.1288,-0.1339,-0.139,-0.1566,-0.1859,-0.1979,-0.1665,-0.2103,-0.2525,-0.2536,-0.2212,-0.2173,-0.2905,-0.2739,-0.253,-0.2471,-0.2287,-0.2115,-0.2076,-0.1786,-0.1592,-0.1592,-0.1777,-0.2374,-0.3462,-0.3814,-0.4525,-0.5758,-0.5833,-0.5993,-0.6368,-0.6546,-0.5978,-0.4643,0.0,0.0,0.0,0.0,0.0,0.0,0.0,0.0,0.0,0.0,0.0,0.0,0.0,0.0,0.0,0.0,0.0,0.0,0.0,0.0,0.0,0.0,0.0,-0.2184,-0.1149,-0.0207,0.0339,0.0418,0.0539,0.0866,0.0383,0.0132,0.0383,0.0724,0.0905,0.0891,0.1167,0.1148,0.0824,0.0812,0.0805,0.0805,0.0877,0.0898,0.0926,0.0898,0.0897,0.0897,0.0897,0.0028,-0.1364,-0.0139,-0.0137,-0.0958,0.0,0.0732,0.1255,0.0933,0.0976,0.1195,0.1194,0.1206,0.1136,0.0808,0.0555,0.0354,0.0354,0.0354,0.0278,-0.0253,-0.0227,-0.0126,-0.0657,-0.101,-0.1213,-0.1213,-0.1416,-0.1594,-0.1594,-0.1594,-0.1594,-0.1594,-0.2314,-0.2689,-0.1787,-0.1592,-0.1933,-0.2975,-0.2939,-0.3107,-0.4151,-0.4304,0.0,-0.4147,-0.3559,-0.31,-0.297,-0.217,-0.1615,-0.1592,-0.2144,-0.3093,-0.4468,-0.4767,-0.551,-0.6907,-0.632,-0.6135,-0.6513,-0.6362,-0.5828,-0.4894,0.0,0.0,0.0,0.0,0.0,0.0,0.0,0.0,0.0,0.0,0.0,0.0,0.0,0.0,0.0,0.0,0.0,0.0,0.0,0.0,0.0,-0.1655,-0.1248,-0.1122,-0.0708,-0.0195,0.0324,0.0628,0.0809,0.0893,0.0746,0.0677,0.075,0.0841,0.0903,0.0907,-0.0261,-0.0951,-0.1066,-0.1062,-0.1059,-0.1059,0.0257,0.0999,0.1199,0.0733,0.0673,0.0897,0.0645,0.0307,-0.0111,0.0252,0.0502,0.0608,0.0056,0.0165,0.0731,0.1004,0.1017,0.0959,0.1356,0.1116,0.0404,-0.1032,-0.1058,-0.048,-0.048,-0.048,-0.0505,-0.0657,-0.0631,-0.0657,-0.0985,-0.1136,-0.1267,-0.149,-0.1624,-0.1681,-0.1675,-0.168,-0.1675,-0.168,-0.1874,-0.1964,-0.167,-0.1592,-0.169,-0.198,-0.1987,-0.2042,-0.233,-0.2363,-0.2367,-0.233,-0.2163,-0.2015,-0.198,-0.2187,-0.2138,-0.164,-0.2193,-0.2816,-0.3406,-0.4096,-0.4938,-0.602,-0.6847,-0.7158,-0.6862,-0.6406,-0.5684,0.0,0.0,0.0,0.0,0.0,0.0,0.0,0.0,0.0,0.0,0.0,0.0,0.0,0.0,0.0,0.0,0.0,0.0,0.0,0.0,0.0,0.0,-0.1444,-0.0702,-0.0451,-0.0299,-0.0078,0.0344,0.0468,0.051,0.0515,0.0523,0.0532,0.051,0.0661,0.0541,0.012,-0.0505,-0.1383,-0.2569,-0.1724,-0.169,-0.2601,-0.0812,0.0116,0.0116,-0.0086,-0.0057,0.0142,-0.0057,-0.0506,-0.1109,-0.0447,-0.0251,-0.0471,-0.0559,-0.0307,0.0138,0.0,0.0,0.0,0.0,0.0664,-0.0102,-0.1313,-0.1343,-0.0842,-0.081,-0.0732,-0.0682,-0.0909,-0.1286,-0.1713,-0.2091,-0.262,-0.2958,-0.263,-0.254,-0.2395,-0.183,-0.1704,-0.1697,-0.1694,-0.1998,-0.2142,-0.1698,-0.1918,0.0,-0.1667,-0.1869,-0.2246,-0.2698,-0.2773,-0.2765,-0.2694,-0.2434,-0.2238,-0.2196,-0.2188,-0.2021,-0.164,-0.2291,0.0,0.0,0.0,-0.559,-0.6584,-0.741,0.0,0.0,0.0,-0.6014,-0.4771,-0.4285,0.0,0.0,-0.3057,-0.3005,0.0,0.0,0.0,0.0,0.0,0.0,0.0,0.0,0.0,0.0,0.0,0.0,0.0,0.0,0.0,0.0,-0.1295,-0.0531,0.0027,0.0,0.0028,0.0276,0.0086,-0.0059,-0.0118,-0.012,-0.0121,-0.0123,0.0154,-0.0062,-0.0957,-0.0339,0.0,0.0,0.0,-0.1765,-0.3678,-0.1917,-0.1122,-0.1388,-0.112,-0.0935,-0.0863,-0.0863,-0.1637,-0.2956,-0.1531,-0.1555,-0.2545,-0.1448,-0.084,-0.0586,-0.0768,-0.0351,0.0318,0.013,-0.0155,-0.0516,-0.0965,0.0,0.0,-0.0916,-0.0735,-0.0634,-0.1117,-0.1924,-0.2775,-0.3262,-0.4241,-0.4911,-0.3778,-0.3513,-0.3216,-0.2,-0.1741,-0.1759,-0.17,-0.2366,-0.2686,-0.1774,-0.2269,-0.2571,-0.1742,-0.2197,-0.2976,-0.3952,-0.4078,-0.4054,-0.3911,-0.339,-0.2978,-0.2854,-0.2169,0.0,-0.1616,-0.2388,-0.343,-0.4734,-0.5756,-0.6821,-0.7922,-0.7948,-0.7682,-0.711,-0.711,-0.6293,-0.4619,-0.4619,-0.3827,-0.2364,-0.2864,-0.2956,0.0,0.0,0.0,0.0,0.0,0.0,0.0,0.0,0.0,0.0,0.0,0.0,0.0,0.0,0.0,-0.0994,-0.0532,0.0054,0.0637,0.0087,-0.0383,-0.032,-0.0381,-0.0503,-0.078,-0.0813,-0.082,-0.0802,-0.0741,-0.0803,-0.0988,-0.2191,-0.3135,-0.3696,-0.3306,-0.3271,-0.3709,-0.1919,-0.0901,-0.069,-0.0889,0.0,-0.0575,-0.0575,-0.0853,-0.1338,-0.1036,-0.0895,-0.092,-0.1428,-0.1586,-0.1454,-0.0755,-0.0265,-0.0104,-0.163,-0.157,-0.0938,-0.252,-0.2349,-0.1476,-0.1518,-0.1499,-0.1476,-0.1575,-0.1749,0.0,-0.2047,-0.2243,-0.2417,-0.2227,-0.2326,-0.2364,-0.1881,-0.1944,-0.2038,-0.1762,-0.1855,-0.1889,-0.1652,-0.1742,-0.1818,-0.1642,-0.1718,-0.1894,-0.212,-0.2145,-0.2142,-0.2109,-0.199,-0.1891,-0.1884,-0.2186,-0.2184,-0.164,-0.2241,-0.2951,-0.3666,-0.5379,-0.7009,-0.8394,-0.8262,-0.7454,-0.5967,-0.5918,-0.4935,-0.2892,-0.2892,-0.2604,-0.2095,-0.2408,-0.2519,0.0,0.0,0.0,0.0,0.0,0.0,0.0,0.0,0.0,0.0,0.0,-0.1256,-0.1596,0.0,-0.1652,-0.1346,-0.1267,-0.0968,-0.0172,-0.0443,-0.0632,-0.0298,-0.054,-0.0817,-0.0976,-0.1007,-0.101,-0.0987,-0.0988,-0.1142,-0.1481,-0.205,-0.2911,-0.4119,-0.3152,-0.3093,-0.4148,-0.2399,-0.1495,-0.1494,-0.1472,-0.136,-0.1193,-0.1154,-0.1225,-0.1346,-0.1346,-0.1268,-0.1136,-0.1633,-0.186,-0.1813,-0.1299,-0.0996,-0.092,-0.1601,-0.1592,-0.1373,-0.2333,-0.2315,-0.1866,-0.1695,-0.1752,-0.1868,-0.1712,-0.2112,-0.2662,-0.2659,-0.3259,-0.3774,-0.3157,-0.3092,-0.299,-0.2179,-0.1992,-0.1949,-0.1791,-0.1739,-0.1732,-0.1672,-0.166,-0.1656,-0.1642,-0.1627,-0.1592,-0.1592,-0.1592,-0.1592,-0.1592,-0.1592,-0.1592,-0.1592,-0.1903,-0.1975,-0.1615,-0.2527,-0.3512,-0.4434,-0.5938,-0.7131,-0.7864,-0.7772,-0.7035,-0.5622,-0.5597,-0.4749,-0.2996,-0.2996,-0.2597,-0.1819,-0.2221,-0.2396,0.0,0.0,0.0,0.0,0.0,0.0,0.0,-0.0481,-0.0554,-0.0829,-0.0976,-0.1165,-0.1544,-0.2072,-0.2276,-0.1793,-0.2007,-0.1893,-0.103,-0.102,-0.0879,-0.0273,-0.0735,-0.1111,-0.1173,-0.1204,-0.1204,-0.1204,-0.1204,-0.142,-0.1974,-0.1481,-0.2085,-0.4022,-0.2483,-0.2392,-0.4081,-0.2698,-0.213,-0.2406,-0.2073,-0.1924,-0.1894,-0.184,-0.181,-0.1804,-0.1804,-0.179,-0.1814,-0.1873,-0.1879,-0.1864,-0.1814,-0.1757,-0.1654,-0.1217,-0.1374,-0.1808,-0.1809,-0.197,-0.2137,-0.1828,-0.1851,-0.1968,-0.169,-0.2364,-0.3243,-0.324,-0.4272,-0.5112,-0.4085,-0.3908,-0.3688,-0.2572,-0.216,-0.201,-0.1894,-0.1879,-0.1853,-0.1715,-0.1699,-0.169,-0.17,-0.1645,-0.1624,-0.1593,-0.1592,-0.1619,-0.17,-0.1646,-0.1619,-0.17,-0.1646,-0.1592,-0.1592,-0.2646,-0.3847,-0.5122,-0.6024,-0.66,-0.68,-0.6772,-0.6221,-0.515,-0.5125,-0.4497,-0.3221,-0.3321,-0.2821,-0.1768,-0.2297,-0.2497,0.0353,-0.0226,-0.0706,-0.0573,-0.0675,-0.0796,0.0,-0.0175,0.0065,-0.0668,-0.0445,-0.0311,-0.0888,-0.1054,-0.1118,-0.1105,-0.1141,-0.1017,-0.0601,-0.1067,-0.1293,-0.0924,-0.1203,-0.1575,-0.1853,-0.1884,-0.1884,-0.1884,-0.1884,-0.1915,-0.2007,-0.1915,-0.2006,-0.2278,-0.2067,-0.2067,-0.2278,-0.2098,-0.2008,-0.2069,-0.2004,-0.1956,-0.1896,-0.1892,-0.186,-0.1806,-0.1806,-0.1808,-0.1814,-0.1873,-0.1854,-0.1804,-0.1797,-0.1757,-0.1705,-0.1628,-0.184,-0.2156,-0.2153,-0.2131,-0.2111,-0.2137,-0.1969,-0.1744,-0.1688,-0.1782,-0.1928,-0.1988,-0.2307,-0.2593,-0.246,-0.2819,-0.3131,-0.2747,-0.2803,-0.2817,-0.2278,-0.2164,-0.2072,-0.1764,-0.171,-0.17,-0.1696,-0.1702,-0.1674,-0.1621,-0.1592,-0.1702,-0.2012,-0.1785,-0.1703,-0.2013,-0.1785,-0.1592,-0.1592,-0.1945,-0.2647,-0.3747,-0.3925,-0.4429,-0.5379,-0.5202,-0.4574,-0.3499,-0.3473,-0.2923,-0.1818,-0.2296,-0.2446,-0.2321,-0.2851,-0.2851,0.0254,-0.0235,-0.0533,-0.049,-0.0315,-0.013,-0.0069,0.0047,0.0118,-0.0073,-0.0329,-0.0549,-0.0648,-0.1456,-0.1941,-0.1381,-0.1956,-0.2214,-0.1464,-0.1599,-0.1724,-0.1555,-0.2705,-0.358,-0.3733,-0.2699,-0.2489,-0.3644,-0.2669,-0.2008,-0.2008,-0.2008,-0.2008,-0.2008,-0.2008,-0.2008,-0.2008,-0.2008,-0.2008,-0.2007,-0.1959,-0.1934,-0.1904,-0.1857,-0.1835,-0.1812,-0.183,-0.1867,-0.1926,-0.2641,-0.2873,-0.2754,-0.2811,-0.3172,-0.353,-0.2884,-0.2873,-0.3191,-0.3138,-0.3676,-0.4123,-0.2622,-0.2496,-0.2765,-0.1943,-0.1709,-0.1718,-0.1743,-0.2078,-0.2389,-0.2231,-0.2643,-0.297,-0.2524,-0.2636,-0.2743,-0.2307,-0.2192,-0.2216,-0.2282,-0.2004,-0.1797,-0.1972,-0.1839,-0.1682,-0.1669,-0.1667,-0.1776,-0.2105,-0.2042,-0.2065,-0.2369,-0.21,-0.1898,-0.1898,-0.1804,-0.2221,-0.3298,-0.3374,-0.3575,-0.4026,-0.3925,-0.3374,-0.2296,-0.227,-0.2195,-0.207,-0.2296,-0.2548,-0.2876,-0.3405,-0.3555,0.0,-0.0358,-0.0577,-0.0616,-0.032,0.0,0.0024,-0.0049,-0.0101,0.0026,-0.0453,-0.088,-0.0872,-0.187,-0.2448,-0.1739,-0.2426,-0.2821,-0.2081,-0.1964,-0.2165,-0.2698,-0.4087,-0.5465,-0.6698,-0.4405,-0.3204,-0.4112,-0.2817,-0.2008,-0.2008,-0.2008,-0.2099,-0.2285,-0.2285,-0.2346,-0.2531,-0.2531,-0.2531,-0.2531,-0.2471,-0.2444,-0.2444,-0.2395,-0.2258,-0.2113,-0.2478,-0.2515,-0.2457,-0.3696,-0.4081,-0.387,-0.3962,-0.4399,-0.4873,-0.4341,-0.4216,-0.4332,-0.4379,-0.5022,-0.5501,-0.3633,-0.3332,-0.3483,-0.2488,-0.1951,-0.1706,-0.1714,-0.2084,-0.2464,-0.2365,-0.2722,-0.3026,-0.2663,-0.2692,-0.2776,-0.2608,-0.2523,-0.2551,-0.2889,-0.2573,-0.2331,-0.2575,-0.2395,-0.2206,-0.2255,-0.2249,-0.2211,-0.2201,-0.2254,-0.2357,-0.2479,-0.2344,-0.2246,-0.2246,-0.1937,-0.2097,-0.2845,-0.2818,-0.2787,-0.2748,-0.2898,-0.2622,-0.1843,-0.1969,-0.2222,-0.2623,-0.2774,-0.3051,-0.343,-0.3982,-0.4234,-0.0574,-0.0925,-0.1249,-0.1189,-0.1119,-0.1015,-0.0897,-0.0655,-0.056,-0.0815,-0.0874,-0.1077,-0.1656,-0.1863,-0.1923,-0.1896,-0.1985,-0.2025,-0.1906,-0.1902,-0.2637,-0.4669,-0.4951,-0.6676,-1.0975,-0.7449,-0.4111,-0.2218,-0.2038,-0.2008,-0.2008,-0.2008,-0.2285,-0.2961,-0.2961,-0.3237,-0.3852,-0.3852,-0.3852,-0.3852,-0.3849,-0.3848,-0.3843,-0.3759,-0.3412,-0.2938,-0.3957,-0.4103,-0.365,-0.4928,-0.5279,-0.505,-0.5046,-0.4942,-0.4937,-0.5944,-0.59,-0.5404,-0.5793,-0.5671,-0.532,-0.5385,-0.4463,-0.3328,-0.3412,-0.2634,-0.171,-0.1767,-0.1995,-0.2279,-0.2596,-0.2886,-0.3166,-0.3475,-0.3306,-0.3166,-0.3503,-0.3306,-0.3166,-0.3503,-0.3511,-0.3479,-0.3624,-0.3546,-0.3479,-0.3624,-0.3592,-0.3227,-0.2327,-0.2432,-0.2498,-0.2242,-0.2423,-0.2582,-0.2582,-0.2341,-0.2165,-0.2126,-0.1893,-0.1725,-0.1643,-0.2145,-0.2422,-0.2371,-0.2876,-0.3155,-0.318,-0.3706,-0.3957,-0.3982,-0.4533,-0.4784,-0.0875,-0.121,-0.1495,-0.1531,-0.1236,-0.1199,-0.2157,-0.2212,-0.2348,-0.3229,-0.3661,-0.3895,-0.3965,-0.4419,-0.4369,-0.3224,-0.4539,-0.4829,-0.226,-0.4428,-0.5418,-0.3156,-0.5866,-0.7328,-0.5849,-0.5271,-0.5377,-0.6257,-0.3584,-0.1955,-0.2006,-0.2408,-0.2776,-0.2992,-0.3391,-0.3698,-0.3913,-0.3913,-0.3913,-0.3912,-0.3902,-0.3915,-0.3912,-0.3834,-0.4117,-0.463,-0.496,-0.5437,-0.6085,-0.7269,-0.7584,-0.729,-0.734,-0.7621,-0.797,-0.7888,-0.7959,-0.7969,-0.6951,-0.707,-0.7441,-0.5987,-0.5041,-0.4373,-0.3698,-0.2702,-0.1767,-0.1805,-0.2002,-0.2172,-0.2129,-0.2775,-0.3363,-0.3057,-0.3531,-0.4005,-0.3896,-0.3785,-0.3783,-0.4145,-0.3883,-0.3702,-0.3873,-0.3819,-0.376,-0.3706,-0.3796,-0.3748,-0.3422,-0.3668,-0.3824,-0.3747,-0.3599,-0.3523,-0.3523,-0.3243,-0.3037,-0.2956,-0.2876,-0.2778,-0.2678,-0.2826,-0.2927,-0.2927,-0.3104,-0.3381,-0.3732,-0.4085,-0.4437,-0.4813,-0.516,-0.5334,-0.1901,-0.2535,-0.3189,-0.3285,-0.298,-0.2929,-0.4041,-0.4173,-0.4231,-0.4839,-0.5192,-0.5339,-0.5179,-0.5588,-0.5587,-0.4378,-0.5783,-0.62,-0.3886,-0.5928,-0.684,-0.4613,-0.757,-0.8831,-0.6412,-0.6705,-0.7267,-0.769,-0.5108,-0.3534,-0.357,-0.3966,-0.4039,-0.3698,-0.4067,-0.4373,-0.4621,-0.4621,-0.461,-0.4582,-0.4542,-0.452,-0.4602,-0.4974,-0.5545,-0.6223,-0.682,-0.7483,-0.8211,-0.9165,-0.939,-0.9154,-0.92,-0.946,-0.9768,-0.9338,-0.9405,-0.9583,-0.8417,-0.8412,-0.8669,-0.7266,-0.6046,-0.4994,-0.4363,-0.3219,-0.2132,-0.2132,-0.2412,-0.2691,-0.2607,-0.3167,-0.3671,-0.3419,-0.3839,-0.4314,-0.4316,-0.4251,-0.4354,-0.4773,-0.4611,-0.4418,-0.4542,-0.4525,-0.4482,-0.438,-0.448,-0.4402,-0.393,-0.4119,-0.4314,-0.4314,-0.4244,-0.4191,-0.4191,-0.3876,-0.365,-0.3588,-0.3499,-0.3361,-0.3209,-0.3428,-0.3531,-0.3482,-0.3682,-0.3984,-0.4435,-0.4612,-0.4914,-0.5338,-0.5511,-0.5611,-0.3477,-0.4705,-0.607,-0.6178,-0.6039,-0.5958,-0.6421,-0.6381,-0.6136,-0.5665,-0.557,-0.5516,-0.5361,-0.5619,-0.573,-0.5381,-0.5912,-0.6437,-0.6586,-0.6605,-0.7177,0.0,0.0,0.0,0.0,0.0,-0.9597,-0.6802,-0.6464,-0.6375,-0.638,-0.641,-0.5951,-0.4923,-0.4986,-0.5327,-0.5886,-0.5882,-0.5896,-0.59,-0.5747,-0.5776,-0.6009,-0.7143,-0.7631,-0.7664,-0.9383,-1.0075,-0.9983,-1.0539,-1.0722,-1.058,-1.058,-1.0473,-1.0268,-1.0277,-1.0281,-1.0253,-1.0132,-0.9599,-0.9013,-0.9197,-0.7459,-0.5335,-0.5528,-0.4336,-0.2917,-0.2917,-0.3309,-0.3755,-0.4008,-0.4036,-0.4092,-0.4424,-0.4286,-0.4234,-0.4797,-0.477,-0.4823,-0.54,-0.5553,-0.5612,-0.5626,-0.562,-0.5616,-0.562,-0.5622,-0.5151,-0.3859,-0.3929,-0.4069,-0.4066,-0.4342,-0.4534,-0.4531,-0.4257,-0.4032,-0.397,-0.3729,-0.3493,-0.3288,-0.3899,-0.4184,-0.4059,-0.4558,-0.4962,-0.5215,-0.524,-0.5363,-0.5611,-0.5636,-0.5634,-0.3767,-0.505,-0.6448,-0.6481,-0.6478,-0.6763,-0.7876,-0.7693,-0.7432,-0.7786,-0.7903,-0.7745,-0.7099,-0.827,-0.8818,-0.7247,-0.9488,-1.0608,-0.8249,-1.0448,0.0,-0.9044,0.0,-1.1196,-0.9712,-0.9825,-1.0168,-1.0674,-0.7737,-0.5966,-0.6035,-0.6497,-0.6209,-0.4925,-0.6361,-0.6733,-0.5916,-0.5849,-0.6251,-0.7058,-0.6975,-0.7431,-0.8333,-0.8542,-0.9102,-0.9968,-1.0373,-1.0991,-1.1742,-1.1887,-1.186,-1.1682,-1.1682,-1.1581,-1.1396,-1.1344,-1.1318,-1.1318,-1.1212,-1.0717,-1.0093,-1.0137,-0.9143,-0.7947,-0.7981,-0.7047,-0.5966,-0.5966,-0.547,-0.4947,-0.5031,-0.47,-0.4397,-0.4479,-0.4789,-0.509,-0.5291,-0.5321,-0.5326,-0.5538,-0.5543,-0.5577,-0.5782,-0.5705,-0.5638,-0.5735,-0.5747,-0.5562,-0.5068,-0.5076,-0.5111,-0.5052,-0.5128,-0.5129,-0.5037,-0.5036,-0.4945,-0.4735,-0.4693,-0.4603,-0.4392,-0.4554,-0.4733,-0.4889,-0.5039,-0.5238,-0.5486,-0.5691,-0.5842,-0.5914,-0.6112,-0.6187,-0.5641,-0.6898,-0.8219,-0.8219,-0.8198,-0.8288,-0.8773,-0.853,-0.8234,-0.8302,-0.8439,-0.8406,-0.798,-0.9235,-0.9932,-0.8673,-1.0768,-1.2055,-1.0632,-1.2353,-1.2946,0.0,-1.2023,0.0,-1.016,-1.0877,-1.1849,-1.2775,-1.0262,-0.8673,-0.872,-0.8549,-0.7763,-0.6267,-0.6731,-0.6837,-0.6432,-0.6481,-0.6992,-0.7991,-0.803,-0.8426,-0.9141,-0.9653,-1.0346,-1.1216,-1.1509,-1.2078,-1.2767,-1.2523,-1.2316,-1.2217,-1.2217,-1.2169,-1.2053,-1.2014,-1.2002,-1.1989,-1.1964,-1.1684,-1.1267,-1.0889,-0.991,-0.8903,-0.8903,-0.8235,-0.7487,-0.7487,-0.7213,-0.6939,-0.6939,-0.6692,-0.6308,-0.5759,-0.5934,-0.6085,-0.5562,-0.5545,-0.5655,-0.5715,-0.569,-0.569,-0.5884,-0.5768,-0.5735,-0.5827,-0.5841,-0.579,-0.5647,-0.5557,-0.549,-0.5441,-0.5432,-0.5361,-0.5281,-0.5351,-0.5309,-0.5047,-0.5118,-0.5041,-0.4819,-0.5037,-0.5171,-0.5192,-0.5383,-0.556,-0.5789,-0.5917,-0.6064,-0.6189,-0.6337,-0.6412,-0.7963,-0.9171,-1.0339,-1.0339,-1.0186,-0.9872,-0.9302,-0.8977,-0.8619,-0.7911,-0.7925,-0.8095,-0.8184,-0.9155,-0.9889,-0.9764,0.0,-1.2138,-1.3138,-1.32,-1.3137,-1.3095,-1.3844,-1.3717,-1.2127,-1.3087,-1.378,-1.3624,-1.2883,-1.2367,-1.222,-1.1171,-0.9898,-0.8462,-0.7072,-0.6696,-0.7385,-0.7544,-0.8026,-0.888,-0.9043,-0.9252,-0.9493,-1.0655,-1.1415,-1.1829,-1.2465,-1.2919,-1.3152,-1.2631,-1.2414,-1.2414,-1.2414,-1.2414,-1.2414,-1.2414,-1.2414,-1.2414,-1.2414,-1.2414,-1.2278,-1.1509,-1.0402,-0.9374,-0.9374,-0.901,-0.8593,-0.8593,-0.8844,-0.9154,-0.9154,-0.9016,-0.8631,-0.759,-0.7421,-0.7166,-0.5931,-0.5733,-0.5823,-0.5902,-0.5843,-0.5866,-0.6067,-0.6075,-0.6077,-0.61,-0.6154,-0.6071,-0.584,-0.5649,-0.5539,-0.5527,-0.5459,-0.5434,-0.5439,-0.5476,-0.5399,-0.5227,-0.5275,-0.5212,-0.4957,-0.5411,-0.5552,-0.5358,-0.5681,-0.5929,-0.609,-0.6075,-0.6164,-0.6412,-0.6412,-0.6412,-0.8319,-0.9463,-1.0637,-1.0637,-1.0395,-1.0043,-0.9602,-0.8934,-0.8235,-0.768,-0.7454,-0.7454,-0.7687,-0.8698,-0.9719,-1.041,-1.1829,-1.3273,-1.4489,-1.4259,-1.4284,0.0,-1.4824,-1.428,-1.3426,-1.406,-1.4178,-1.334,-1.3138,-1.2667,-1.1853,-1.1579,-1.1354,-1.105,-0.9532,-0.8763,-0.8924,-0.8735,-0.9177,-1.0245,-1.0325,-1.088,-1.1827,-1.2051,-1.2188,-1.2297,-1.2411,-1.2501,-1.255,-1.2441,-1.2414,-1.2414,-1.2414,-1.2414,-1.2414,-1.2414,-1.2414,-1.2414,-1.2414,-1.2414,-1.2387,-1.2219,-1.2001,-1.1801,-1.1801,-1.1719,-1.1633,-1.1633,-1.1027,-1.0394,-1.0394,-0.9649,-0.8848,-0.8631,-0.8595,-0.8335,-0.7287,-0.6435,-0.5898,-0.5884,-0.5843,-0.6114,-0.7055,-0.7312,-0.7337,-0.7235,-0.7405,-0.7154,-0.6016,-0.58,-0.5704,-0.5599,-0.5577,-0.5623,-0.5725,-0.5842,-0.5884,-0.5842,-0.5894,-0.5889,-0.58,-0.5884,-0.6015,-0.6184,-0.6145,-0.6254,-0.6487,-0.6385,-0.6362,-0.6412,-0.6412,-0.6412,-0.8421,-0.9295,-1.0206,-1.014,-0.9991,-0.9649,-0.8887,-0.8239,-0.7641,-0.7188,-0.706,-0.7175,-0.7623,-0.8566,-0.9554,-1.0368,-1.144,-1.2623,-1.398,-1.4052,-1.4169,-1.4843,-1.4649,-1.4384,-1.4232,-1.4337,-1.4234,-1.375,-1.3725,-1.3269,-1.226,-1.1756,-1.1178,-1.0475,-0.9866,-0.9704,-1.0025,-1.0131,-1.0578,-1.1332,-1.1642,-1.2018,-1.2414,-1.2414,-1.2414,-1.2414,-1.2414,-1.2577,-1.2849,-1.2523,-1.2577,-1.2849,-1.2523,-1.2414,-1.2414,-1.2414,-1.2414,-1.2414,-1.2414,-1.2414,-1.2414,-1.2414,-1.2414,-1.2414,-1.2414,-1.2414,-1.2414,-1.2414,-1.1996,-1.1582,-1.1582,-1.1168,-1.0558,-0.9982,-0.8936,-0.7949,-0.7543,-0.6619,-0.5861,-0.5908,-0.5882,-0.6244,-0.7505,-0.7175,-0.6966,-0.7626,-0.7218,-0.6615,-0.5978,-0.5837,-0.5747,-0.5624,-0.5571,-0.5549,-0.5585,-0.5645,-0.5648,-0.5593,-0.5787,-0.5876,-0.5799,-0.5954,-0.617,-0.64,-0.6381,-0.6461,-0.6714,-0.6441,-0.6306,-0.6306,-0.6306,-0.623,-0.8642,-0.9278,-0.9857,-0.9661,-0.9603,-0.932,-0.8193,-0.7636,-0.7231,-0.6781,-0.6714,-0.6952,-0.7629,-0.8369,-0.9179,0.0,-1.0835,-1.1769,-1.3227,-1.3576,-1.3805,-1.4139,-1.4187,0.0,-1.4269,-1.4156,-1.3995,-1.3781,-1.3727,-1.3415,-1.2831,-1.2118,-1.1265,-1.026,-1.0441,-1.0774,-1.1221,-1.1507,-1.1815,-1.2133,-1.252,-1.2606,-1.2414,-1.2414,-1.2414,-1.2414,-1.2414,-1.274,-1.3261,-1.2659,-1.2767,-1.3234,-1.2631,-1.2414,-1.2414,-1.2414,-1.2414,-1.2377,-1.2362,-1.2349,-1.2377,-1.2362,-1.2349,-1.2414,-1.2414,-1.2414,-1.2414,-1.2414,-1.2414,-1.2414,-1.2414,-1.2414,-1.211,-1.0973,-0.9133,-0.7638,-0.7509,-0.6598,-0.5808,-0.59,-0.5886,-0.6313,-0.7617,-0.7011,-0.6677,-0.7709,-0.7022,-0.6283,-0.6008,-0.5899,-0.5807,-0.5712,-0.5598,-0.5531,-0.5529,-0.5522,-0.5511,-0.5444,-0.5681,-0.5807,-0.5757,-0.5995,-0.6216,-0.6367,-0.6403,-0.6488,-0.6616,-0.6292,-0.6136,-0.6187,-0.6136,-0.6042,-0.9201,-0.9876,-1.0159,-0.9715,-0.9773,-0.9624,-0.836,0.0,-0.7385,-0.6748,-0.6417,-0.6549,-0.7451,-0.7691,-0.8313,-1.0016,0.0,-1.1682,-1.3263,-1.3561,-1.366,-1.3839,0.0,0.0,-1.2975,-1.3417,-1.3379,-1.2436,-1.2165,-1.2354,-1.3114,-1.3084,-1.3114,-1.3294,-1.302,-1.2916,-1.297,-1.2658,-1.2516,-1.2543,-1.2473,-1.2433,-1.2414,-1.2414,-1.2414,-1.2414,-1.2414,-1.274,-1.3261,-1.2659,-1.2767,-1.3234,-1.2631,-1.2414,-1.2414,-1.2414,-1.2414,-1.2358,-1.2202,-1.2258,-1.2381,-1.2202,-1.2263,-1.2414,-1.2414,-1.2414,-1.2414,-1.2414,-1.2414,-1.2414,-1.2414,-1.2414,-1.211,-1.0973,-0.9746,-0.8578,-0.7605,-0.6546,-0.5808,-0.59,-0.5886,-0.6283,-0.75,-0.7709,-0.7709,-0.7714,-0.7862,-0.7551,-0.6328,-0.6129,-0.6035,-0.5965,-0.5735,-0.5683,-0.5937,-0.5956,-0.603,-0.6181,-0.6232,-0.6255,-0.6246,-0.6255,-0.6283,-0.6299,-0.6185,-0.6116,-0.6061,-0.5926,-0.5953,-0.6187,-0.5953,-0.6033,-0.8073,-0.9208,-1.0218,-0.9808,-0.9682,-0.9367,-0.8377,0.0,-0.7261,-0.6915,-0.6664,-0.6689,-0.7298,-0.7494,-0.802,-0.9471,-0.9915,0.0,-1.192,-1.2246,-1.2555,-1.3139,-1.3227,-1.3408,-1.3854,-1.3971,-1.3839,-1.3422,-1.3276,-1.32,-1.3204,-1.3024,-1.3054,-1.3384,-1.3479,-1.3448,-1.3331,-1.3285,-1.314,-1.2893,-1.297,-1.288,-1.2635,-1.2635,-1.2536,-1.2414,-1.2414,-1.2822,-1.3478,-1.2713,-1.2849,-1.345,-1.2713,-1.2414,-1.2414,-1.2414,-1.2305,-1.2141,-1.1942,-1.1821,-1.1688,-1.1489,-1.169,-1.2038,-1.2322,-1.2414,-1.2414,-1.2414,-1.2414,-1.2387,-1.2353,-1.233,-1.2073,-1.0947,-0.983,-0.8694,-0.7583,-0.6475,-0.5679,-0.5715,-0.5798,-0.6226,-0.7489,-0.7246,-0.7085,-0.7728,-0.7315,-0.6694,-0.6041,-0.5877,-0.5785,-0.5719,-0.5598,-0.5555,-0.5638,-0.5632,-0.5671,-0.5747,-0.591,-0.6077,-0.6302,-0.6105,-0.6158,-0.6523,-0.6146,-0.5994,-0.6176,-0.5875,-0.5798,-0.5907,-0.5798,-0.5714,-0.7163,-0.8523,-0.9804,-0.9469,-0.9226,-0.8858,-0.8184,-0.7541,-0.707,-0.698,-0.6835,-0.6816,-0.7202,-0.7401,-0.7869,-0.9026,-0.9348,-0.9896,-1.113,-1.153,-1.1931,-1.2511,-1.2562,-1.2899,-1.3833,-1.3825,-1.381,-1.3898,-1.3767,-1.3584,-1.3354,-1.302,-1.2994,-1.3354,-1.3569,-1.3622,-1.348,-1.3561,-1.3482,-1.3193,-1.3283,-1.3222,-1.3041,-1.2879,-1.276,-1.2659,-1.2495,-1.2849,-1.3532,-1.274,-1.2876,-1.3505,-1.2713,-1.2414,-1.2414,-1.2414,-1.2278,-1.2077,-1.174,-1.1531,-1.1389,-1.1185,-1.1387,-1.1776,-1.2271,-1.2414,-1.2414,-1.2414,-1.2414,-1.2392,-1.2349,-1.2335,-1.1957,-1.0508,-0.9543,-0.857,-0.7088,-0.6131,-0.5581,-0.561,-0.5718,-0.6088,-0.7015,-0.657,-0.6391,-0.7224,-0.664,-0.6084,-0.5915,-0.5804,-0.5727,-0.5662,-0.5565,-0.5473,-0.5418,-0.5409,-0.5409,-0.5409,-0.5575,-0.5798,-0.6023,-0.5798,-0.588,-0.6297,-0.5963,-0.5919,-0.6114,-0.593,-0.5866,-0.5972,-0.5866,-0.5664,-0.6942,-0.8039,-0.8827,-0.8489,-0.8321,-0.8099,-0.7699,-0.718,-0.6823,-0.6894,-0.6796,-0.6806,-0.7138,-0.7368,-0.7824,-0.8834,-0.935,-1.0061,-1.1407,-1.1944,-1.2153,-1.2009,-1.2242,-1.233,-1.2133,-1.2491,-1.2835,-1.32,-1.29,-1.2994,-1.3658,-1.3384,-1.3354,-1.3688,-1.3688,-1.3688,-1.3688,-1.349,-1.3391,-1.3386,-1.3202,-1.3268,-1.3583,-1.3041,-1.2981,-1.3261,-1.2659,-1.274,-1.3261,-1.2659,-1.2767,-1.3234,-1.2631,-1.2414,-1.2414,-1.2414,-1.2414,-1.2298,-1.1623,-1.154,-1.1655,-1.1472,-1.1518,-1.1776,-1.2271,-1.2414,-1.2414,-1.2414,-1.2414,-1.2414,-1.2387,-1.2387,-1.1805,-0.9484,-0.8906,-0.8282,-0.5996,-0.5508,-0.5506,-0.5597,-0.5718,-0.5838,-0.59,-0.5914,-0.5916,-0.6006,-0.6137,-0.616,-0.6102,-0.6091,-0.608,-0.6009,-0.571,-0.5473,-0.5418,-0.5409,-0.5409,-0.5409,-0.5409,-0.5409,-0.5409,-0.5409,-0.5409,-0.5409,-0.5656,-0.5775,-0.5703,-0.5977,-0.6275,-0.6571,-0.6248,-0.5978,-0.6105,-0.7198,-0.8144,-0.7868,-0.7723,-0.7624,-0.7541,-0.7186,-0.6912,-0.7069,-0.7069,-0.7073,-0.7183,-0.7433,-0.794,-0.8846,-0.933,-0.9952,-1.0984,-1.1473,-1.203,-1.2851,-1.3514,-1.3713,-1.324,-1.3901,-1.4127,-1.3569,-1.4038,-1.4157,-1.3718,-1.3599,-1.3599,-1.3688,-1.3688,-1.3688,-1.3688,-1.3627,-1.3553,-1.3391,-1.3462,-1.3548,-1.3588,-1.3186,-1.3116,-1.3261,-1.2659,-1.2631,-1.2989,-1.2577,-1.2659,-1.2989,-1.255,-1.2414,-1.2414,-1.2414,-1.2278,-1.2027,-1.1361,-1.1251,-1.134,-1.0819,-1.1119,-1.1727,-1.1867,-1.2143,-1.2414,-1.2414,-1.238,-1.2349,-1.2397,-1.2357,-1.1759,-0.9454,-0.8903,-0.8257,-0.5943,-0.5516,-0.5561,-0.5528,-0.5676,-0.5769,-0.5707,-0.5881,-0.6026,-0.5937,-0.6047,-0.6081,-0.5972,-0.5928,-0.5852,-0.5729,-0.5716,-0.5633,-0.548,-0.5414,-0.5409,-0.5409,-0.5409,-0.5491,-0.5656,-0.5491,-0.5491,-0.5656,-0.5575,-0.5614,-0.5775,-0.586,-0.5943,-0.6051,-0.5943,-0.5767,-0.5373,-0.6327,-0.7177,-0.7324,-0.701,-0.6799,-0.7289,-0.6884,-0.6553,-0.7093,-0.7276,-0.7353,-0.7313,-0.7643,-0.8105,-0.8684,-0.9247,-0.9878,-1.0677,-1.1485,-1.244,-1.3588,-1.4035,-1.4111,-1.3849,-1.4272,-1.4341,-1.3748,-1.4252,-1.4311,-1.3718,-1.3688,-1.3688,-1.3688,-1.3688,-1.3688,-1.3688,-1.3688,-1.3589,-1.3391,-1.3518,-1.3601,-1.3583,-1.3172,-1.3102,-1.3261,-1.2659,-1.2523,0.0,-1.2495,-1.2523,-1.2686,-1.2495,-1.2414,-1.2414,-1.2414,-1.2305,-1.2068,-1.1477,-1.1345,-1.138,-1.0971,-1.1344,-1.1957,-1.1957,-1.218,-1.2414,-1.2414,-1.2371,-1.2363,-1.2392,-1.2041,-1.121,-0.9344,-0.8548,-0.7697,-0.5796,-0.5492,-0.5597,-0.554,-0.5706,-0.5814,-0.5727,-0.5898,-0.6011,-0.5947,-0.5995,-0.601,-0.5906,-0.5898,-0.5849,-0.5727,-0.5767,-0.5735,-0.562,-0.55,-0.5414,-0.5412,-0.5409,-0.5463,-0.5629,-0.5491,-0.5491,-0.5656,-0.5573,-0.5687,-0.5991,-0.61,-0.6075,-0.5991,-0.5991,-0.5824,0.0,-0.5402,-0.5984,-0.6729,-0.6194,-0.5775,-0.6843,-0.6339,0.0,-0.7001,-0.7429,-0.7591,-0.7524,-0.7983,-0.8387,-0.8432,-0.9121,-0.9875,-1.0557,-1.1968,-1.3284,-1.4193,-1.3977,-1.3813,-1.3992,-1.3805,-1.3688,-1.3688,-1.3688,-1.3688,-1.3688,-1.3688,-1.3688,-1.3688,-1.3688,-1.3688,-1.3688,-1.3704,-1.3595,-1.3455,-1.3411,-1.3499,-1.3613,-1.3074,-1.2995,-1.3261,-1.2659,-1.2414,-1.2414,-1.2414,-1.2414,-1.2414,-1.2414,-1.2414,-1.2409,-1.2368,-1.2372,-1.2326,-1.1817,-1.1687,-1.1763,-1.1763,-1.2043,-1.2414,-1.2414,-1.2414,-1.2414,-1.2414,-1.2414,-1.2414,-1.2414,-1.1555,-1.0398,-0.9196,-0.7986,-0.6806,-0.565,-0.5516,-0.564,-0.5628,-0.5772,-0.5892,-0.591,-0.5912,-0.5947,-0.6008,-0.6057,-0.6066,-0.5955,-0.6014,-0.6031,-0.5945,-0.5855,-0.5824,-0.5812,-0.5612,-0.5473,-0.5424,-0.5414,-0.5414,-0.5418,-0.5414,-0.5409,-0.5409,-0.5656,-0.5963,-0.6274,-0.655,-0.6523,-0.6274,-0.6274,-0.6077,-0.4035,0.0,-0.4926,-0.5021,-0.5308,-0.5648,0.0,-0.6096,0.0,0.0,0.0,-0.7739,-0.773,-0.8466,-0.9014,-0.8884,-0.9538,-1.0315,-1.104,-1.2932,-1.4285,-1.438,-1.4823,-1.4867,-1.4217,-1.387,-1.3688,-1.3688,-1.3688,-1.3688,-1.3688,-1.3688,-1.3688,-1.3688,-1.3688,-1.3688,-1.3688,-1.3537,-1.3586,-1.3777,-1.3514,-1.3622,-1.4049,-1.3348,-1.3131,-1.3261,-1.2659,-1.2414,-1.2414,-1.2414,-1.2414,-1.2414,-1.2414,-1.2414,-1.2368,-1.1998,-1.2093,-1.2281,-1.1441,-1.1624,-1.2235,-1.2235,-1.2322,-1.2414,-1.2414,-1.2414,-1.2414,-1.2414,-1.2414,-1.2414,-1.2414,-1.1555,-1.0402,-0.9245,-0.8095,-0.694,-0.5796,-0.575,-0.5886,-0.5776,-0.5865,-0.5947,-0.5837,-0.6083,-0.6223,-0.6039,-0.6554,-0.681,-0.6281,-0.6406,-0.6432,-0.6152,-0.601,-0.5902,-0.5822,-0.5612,-0.55,-0.548,-0.5416,-0.541,-0.5475,-0.5416,-0.5409,-0.5409,-0.5656,-0.5849,-0.5907,-0.6244,-0.6244,-0.5907,-0.5907,-0.5768,-0.3673,-0.4065,-0.4503,-0.5081,-0.5296,-0.5498,-0.5992,0.0,0.0,0.0,0.0,-0.7509,-0.7753,-0.8322,-0.877,-0.884,-0.9486,-1.0493,-1.196,-1.3133,-1.4141,-1.4988,-1.5214,-1.5158,-1.4703,-1.4341,-1.4013,-1.3718,-1.3688,-1.3688,-1.3688,-1.3688,-1.3688,-1.3688,-1.3688,-1.3688,-1.3688,-1.349,-1.3514,-1.3697,-1.3322,-1.3293,-1.3586,-1.3033,-1.2824,-1.2876,-1.2686,-1.255,-1.2414,-1.2577,-1.255,-1.2414,-1.2414,-1.2414,-1.2331,-1.1867,-1.1998,-1.2312,-1.1575,-1.1799,-1.2414,-1.2414,-1.2414,-1.2414,-1.2414,-1.2414,-1.2414,-1.2414,-1.2414,-1.2414,-1.2414,-1.1141,-0.9726,-0.9092,-0.7675,-0.6317,-0.5685,-0.5768,-0.5943,-0.5886,-0.5985,-0.608,-0.5982,-0.6285,-0.6495,-0.6328,-0.6894,-0.7205,-0.6834,-0.6927,-0.6895,-0.6569,-0.6383,-0.615,-0.5855,-0.5676,-0.5506,-0.5455,-0.5443,-0.5443,-0.5449,-0.5406,-0.5409,-0.5409,-0.5656,-0.574,-0.5631,-0.591,-0.591,-0.5631,-0.5631,-0.5547,-0.3595,-0.3935,-0.452,-0.5746,-0.558,-0.5359,-0.6332,0.0,0.0,0.0,0.0,-0.7268,-0.7798,-0.8208,0.0,0.0,-0.9441,-1.0771,-1.2993,-1.32,-1.3843,-1.5788,-1.5479,-1.5124,-1.5183,-1.4754,-1.4247,-1.3748,-1.3688,-1.3688,-1.3688,-1.3688,-1.3688,-1.3688,-1.3688,-1.3704,-1.3646,-1.3505,-1.3456,-1.355,-1.3064,-1.2876,-1.2962,-1.261,-1.2447,-1.2414,-1.2686,-1.2659,-1.2414,-1.2713,-1.2659,-1.2414,-1.2414,-1.2414,-1.2331,-1.1803,-1.1943,-1.2331,-1.1948,-1.2084,-1.2414,-1.2414,-1.2414,-1.2414,-1.2414,-1.2414,-1.2414,-1.2414,-1.2414,-1.2414,-1.2414,-1.0672,-0.8916,-0.8933,-0.7189,-0.5535,-0.5563,-0.5733,-0.593,-0.5976,-0.6123,-0.6208,-0.6163,-0.6464,-0.6699,-0.6699,-0.7138,-0.7472,-0.7424,-0.7456,-0.7353,-0.6946,-0.6716,-0.6435,-0.5927,-0.5731,-0.5561,-0.5412,-0.5455,-0.5455,-0.5414,-0.5409,-0.5409,-0.5409,-0.5629,-0.5629,-0.5409,-0.5629,-0.5629,-0.5409,-0.5409,-0.5409,-0.3854,-0.4348,-0.4881,-0.5321,-0.5262,-0.5226,-0.5732,-0.5545,0.0,0.0,0.0,0.0,0.0,-0.9349,-0.9934,0.0,-1.0273,-1.189,-1.3552,-1.4305,-1.5111,-1.6345,-1.5922,-1.5403,-1.5142,-1.4351,-1.3808,-1.3718,-1.3688,-1.3688,-1.3688,-1.3688,-1.3688,-1.3688,-1.3688,-1.3608,-1.3438,-1.3434,-1.3543,-1.384,-1.3321,-1.3127,-1.3239,-1.2883,-1.2616,-1.2414,-1.2441,-1.2441,-1.2414,-1.2468,-1.2441,-1.2414,-1.2414,-1.2414,-1.2285,-1.1432,-1.1659,-1.2377,-1.2322,-1.2331,-1.2414,-1.2414,-1.2414,-1.2414,-1.2414,-1.2414,-1.2414,-1.2414,-1.2414,-1.2414,-1.2414,-1.0672,-0.894,-0.9114,-0.7317,-0.5636,-0.579,-0.5918,-0.5974,-0.5988,-0.6123,-0.6157,-0.6054,-0.639,-0.6699,-0.6699,-0.733,-0.7726,-0.7524,-0.7767,-0.7697,-0.6979,-0.6774,-0.6478,-0.5931,-0.5821,-0.5682,-0.55,-0.5433,-0.5424,-0.5409,-0.5409,-0.5409,-0.5409,-0.5437,-0.5437,-0.5409,-0.5437,-0.5437,-0.5409,-0.5409,-0.5409,-0.3843,-0.4288,-0.489,-0.5786,-0.5676,-0.5638,-0.666,-0.6216,0.0,0.0,0.0,0.0,0.0,0.0,-0.9597,-0.997,-1.1061,-1.2355,-1.371,-1.4171,-1.4859,-1.6263,-1.5869,-1.5407,-1.5176,-1.4564,-1.4043,-1.3718,-1.3688,-1.3688,-1.3688,-1.3688,-1.3688,-1.3688,-1.3584,-1.348,-1.3391,-1.3302,-1.3336,-1.3514,-1.2977,-1.2846,-1.3076,-1.2737,-1.2508,-1.2414,-1.2577,-1.2577,-1.2414,-1.2604,-1.255,-1.2414,-1.2414,-1.2414,-1.2358,-1.1929,-1.1815,-1.1881,-1.197,-1.2189,-1.2368,-1.2098,-1.2189,-1.2414,-1.2414,-1.2414,-1.2414,-1.2414,-1.2414,-1.2246,-1.1637,-1.0202,-0.8766,-0.8302,-0.6832,-0.5591,-0.5804,-0.5807,-0.5859,-0.6052,-0.6078,-0.6072,-0.6146,-0.6522,-0.6876,-0.7036,-0.7613,-0.803,-0.8084,-0.8256,-0.8079,-0.7243,-0.7129,-0.6761,-0.6006,-0.5861,-0.5702,-0.5518,-0.5429,-0.5409,-0.5409,-0.5409,-0.5409,-0.5409,-0.5409,-0.5409,-0.5409,-0.5409,-0.5409,-0.5409,-0.5409,-0.5409,-0.3788,-0.4183,-0.4879,-0.6054,-0.5856,-0.5841,-0.7586,-0.6815,0.0,0.0,0.0,0.0,0.0,-0.8849,-0.9302,-1.087,-1.1639,-1.243,-1.362,-1.3753,-1.431,-1.5931,-1.545,-1.5094,-1.5266,-1.4735,-1.4187,-1.3718,-1.3688,-1.3688,-1.3688,-1.3676,-1.3618,-1.3618,-1.3419,-1.3321,-1.3273,-1.3107,-1.3055,-1.311,-1.2698,-1.2602,-1.2772,-1.2523,-1.2414,-1.2414,-1.2659,-1.2631,-1.2414,-1.2686,-1.2631,-1.2414,-1.2414,-1.2271,-1.2093,-1.2322,-1.1937,-1.1362,-1.1722,-1.2098,-1.2331,-1.1993,-1.2098,-1.2414,-1.2414,-1.2414,-1.2414,-1.2414,-1.2414,-1.2137,-1.1004,-0.9598,-0.8288,-0.7499,-0.6396,-0.559,-0.5774,-0.5741,-0.574,-0.6088,-0.6025,-0.5988,-0.6279,-0.655,-0.6851,-0.7392,-0.7726,-0.8064,-0.8548,-0.8587,-0.8309,-0.7608,-0.7432,-0.7004,-0.604,-0.5841,-0.568,-0.5518,-0.5429,-0.5409,-0.5409,-0.5409,-0.5409,-0.5409,-0.5409,-0.5409,-0.5409,-0.5409,-0.5409,-0.5409,-0.543,-0.541,-0.3767,-0.4329,-0.4983,-0.5464,-0.5176,-0.5384,-0.774,-0.6654,0.0,-0.8578,0.0,0.0,0.0,-0.962,-1.0093,-1.1504,-1.1789,-1.2198,-1.3294,-1.3422,-1.3985,-1.5472,-1.4564,-1.4287,-1.5451,-1.4485,-1.3748,-1.3688,-1.3688,-1.3688,-1.3688,-1.3514,-1.341,-1.341,-1.3231,-1.3032,-1.2842,-1.2823,-1.2809,-1.2818,-1.2781,-1.2635,-1.2441,-1.2414,-1.2414,-1.2414,-1.2436,-1.2414,-1.2414,-1.2436,-1.2414,-1.2414,-1.2414,-1.1857,-1.1207,-1.2079,-1.183,-1.115,-1.2034,-1.2372,-1.2382,-1.2368,-1.2372,-1.2414,-1.2414,-1.2414,-1.2414,-1.2414,-1.2414,-1.2137,-1.1004,-0.8968,-0.7265,-0.7379,-0.6475,-0.5654,-0.5837,-0.5835,-0.5829,-0.5993,-0.5953,-0.6011,-0.6428,-0.6261,-0.6446,-0.752,-0.7481,-0.7657,-0.8493,-0.8587,-0.8408,-0.7931,-0.7593,-0.6979,-0.5891,-0.5681,-0.5581,-0.5514,-0.5429,-0.5409,-0.5409,-0.5409,-0.5409,-0.5409,-0.5409,-0.5409,-0.5409,-0.5409,-0.5409,-0.5412,-0.5463,-0.5498,-0.3768,-0.4179,-0.4831,-0.5805,-0.5466,0.0,0.0,-0.7383,-0.7141,-0.926,-0.9057,0.0,0.0,0.0,-1.0853,-1.1509,-1.1451,-1.1747,-1.3036,-1.2607,-1.2575,-1.3663,-1.294,-1.271,-1.371,-1.2981,-1.2761,-1.345,-1.3618,-1.3575,-1.3344,-1.3358,-1.3329,-1.3221,-1.3018,-1.2875,-1.2795,-1.263,-1.2564,-1.2564,-1.2564,-1.2494,-1.2414,-1.2414,-1.2414,-1.2414,-1.2414,-1.2414,-1.2414,-1.2414,-1.2414,-1.2414,-1.2414,-1.1919,-1.1349,-1.2124,-1.191,-1.1314,-1.1807,-1.2148,-1.2363,-1.2052,-1.2148,-1.2414,-1.2414,-1.2414,-1.2414,-1.2414,-1.1887,-1.1055,-0.9896,-0.8906,-0.7881,-0.6527,-0.5874,-0.5581,-0.5794,-0.5761,-0.5737,-0.5944,-0.6085,-0.62,-0.6286,-0.6307,-0.649,-0.7001,-0.7232,-0.7475,-0.7747,-0.8264,-0.8315,-0.7609,-0.7264,-0.6769,-0.6003,-0.5888,-0.578,-0.5575,-0.5459,-0.5432,-0.5457,-0.541,-0.5409,-0.5409,-0.5409,-0.5409,-0.5409,-0.5409,-0.5409,-0.5412,-0.5469,-0.5508,-0.3891,-0.417,-0.4701,-0.5832,0.0,0.0,-0.7958,-0.7918,-0.7897,-0.978,-0.9876,-0.9683,-0.9953,0.0,-1.1207,-1.1153,-1.116,-1.1358,-1.1944,-1.1521,-1.1395,-1.2012,-1.1391,-1.1207,-1.2012,-1.1477,-1.1554,-1.2682,-1.2883,-1.2982,-1.3079,-1.3174,-1.3155,-1.3003,-1.28,-1.2663,-1.2663,-1.2489,-1.2219,-1.186,-1.2219,-1.2414,-1.2414,-1.2414,-1.2414,-1.2414,-1.2414,-1.2414,-1.2414,-1.2414,-1.2414,-1.2377,-1.2235,-1.181,-1.134,-1.1974,-1.1748,-1.121,-1.174,-1.208,-1.2227,-1.2012,-1.2139,-1.2414,-1.2414,-1.2414,-1.2414,-1.2414,-1.1582,-1.0425,-0.9209,-0.8631,-0.7838,-0.5939,-0.5508,-0.5549,-0.5704,-0.5636,-0.5644,-0.5888,-0.6023,-0.6114,-0.6242,-0.6298,-0.6413,-0.6762,-0.6997,-0.7235,-0.7451,-0.8004,-0.8108,-0.7403,-0.7038,-0.6606,-0.6034,-0.599,-0.5912,-0.5724,-0.5633,-0.5539,-0.5508,-0.548,-0.5439,-0.5409,-0.5408,-0.5435,-0.5465,-0.5465,-0.548,-0.5539,-0.5596,-0.562,-0.4155,-0.4349,-0.4663,-0.5337,0.0,0.0,-0.8286,-0.8064,-0.7926,-1.0064,-1.1096,-1.158,-1.1497,-1.1404,-1.1121,-1.0514,-1.1,-1.1066,-0.9854,-1.0191,-1.0603,-1.0748,-1.0065,-0.9877,-1.0676,-1.0107,-1.0144,-1.1295,-1.1309,-1.1786,-1.3003,-1.2871,-1.2767,-1.2762,-1.2522,-1.2382,-1.2382,-1.2382,-1.1832,-1.0699,-1.1828,-1.2382,-1.2382,-1.2414,-1.2414,-1.2414,-1.2409,-1.2409,-1.2414,-1.2414,-1.2414,-1.2336,-1.1871,-1.1406,-1.1067,-1.153,-1.1239,-1.0784,-1.1972,-1.2219,-1.206,-1.23,-1.2414,-1.2414,-1.2414,-1.2414,-1.2414,-1.2414,-1.1582,-1.0425,-0.9209,-0.8002,-0.6819,-0.574,-0.5506,-0.5504,-0.5593,-0.5543,-0.5563,-0.5775,-0.5708,-0.5761,-0.6309,-0.6131,-0.6163,-0.6969,-0.68,-0.6907,-0.7789,-0.7883,-0.7754,-0.743,-0.6983,-0.6502,-0.603,-0.5992,-0.5992,-0.5992,-0.5937,-0.5796,-0.5522,-0.5569,-0.5534,-0.5416,-0.5467,-0.5526,-0.5616,-0.5616,-0.5662,-0.5814,-0.5874,-0.5867,-0.4571,-0.4533,-0.4454,-0.5466,0.0,0.0,0.0,-0.7955,0.0,0.0,-1.0972,-1.1038,-1.155,-1.1961,-1.1846,-1.0721,-1.0039,-0.9618,-0.9439,-0.8364,-0.7789,-0.8416,-0.7849,-0.7726,-0.8528,-0.8497,-0.8872,-0.9909,-1.0124,-1.0156,-1.0146,-1.0227,-1.0212,-1.0062,-1.081,-1.1196,-1.1196,-1.1996,-1.1832,-1.0695,-1.0951,-1.1118,-1.1223,-1.2023,-1.2414,-1.2377,-1.2048,-1.2093,-1.2414,-1.2414,-1.2414,-1.2336,-1.1871,-1.1406,-1.1067,-1.153,-1.1344,-1.1019,-1.2052,-1.2355,-1.2305,-1.2359,-1.2414,-1.2414,-1.2414,-1.2414,-1.2414,-1.2414,-1.1582,-1.0425,-0.9209,-0.8002,-0.6829,-0.5691,-0.5465,-0.5514,-0.5514,-0.5629,-0.5716,-0.5799,-0.5989,-0.6124,-0.6059,-0.616,-0.6261,-0.626,-0.6445,-0.6819,-0.7397,-0.7191,-0.6951,-0.6928,-0.6781,-0.6558,-0.6177,-0.6143,-0.6143,-0.6143,-0.603,-0.5916,-0.5802,-0.5759,-0.5686,-0.5538,-0.5653,-0.5714,-0.5741,-0.5774,-0.5937,-0.6139,-0.6207,-0.6352,-0.509,-0.5165,0.0,-0.6776,-0.6961,-0.7029,-0.7959,0.0,0.0,0.0,-1.1368,-1.0959,-1.1388,-1.1294,-1.0731,-0.9417,-0.8899,-0.8557,-0.8246,-0.734,-0.6845,-0.7116,-0.6747,-0.6558,-0.6837,-0.6924,-0.741,-0.8481,-0.8637,-0.8739,-0.8892,-0.9022,-0.9029,-0.8906,-0.959,-0.9945,-0.9982,-1.063,-1.038,-0.923,-0.9656,-0.9633,-0.9285,-1.082,-1.1804,-1.2255,-1.1783,-1.1784,-1.2129,-1.2129,-1.2235,-1.2326,-1.1673,-1.1255,-1.1032,-1.1308,-1.1172,-1.0984,-1.1938,-1.2262,-1.2264,-1.2265,-1.2321,-1.2414,-1.2414,-1.2414,-1.2414,-1.2414,-1.1223,-0.9814,-0.9099,-0.767,-0.6239,-0.5575,-0.542,-0.5457,-0.5457,-0.5571,-0.5684,-0.572,-0.5948,-0.6117,-0.5941,-0.607,-0.6129,-0.5916,-0.6303,-0.6699,-0.698,-0.6778,-0.6607,-0.6667,-0.6515,-0.6368,-0.621,-0.6215,-0.6249,-0.6319,-0.6206,-0.6085,-0.6025,-0.5902,-0.5792,-0.567,-0.5788,-0.587,-0.597,-0.6121,-0.6324,-0.6554,-0.6665,-0.6831,-0.5697,-0.6036,-0.6628,-0.8509,-0.7891,0.0,-0.9044,-0.9723,-1.053,-1.2439,0.0,-1.0922,-1.0958,-0.9907,-0.8622,-0.7368,-0.7727,-0.78,-0.6648,-0.6899,-0.7047,-0.6628,-0.6417,-0.6113,-0.5652,-0.5534,-0.5972,-0.7067,-0.7031,-0.7438,-0.852,-0.8575,-0.8575,-0.8575,-0.8608,-0.8676,-0.8718,-0.8774,-0.8192,-0.701,-0.8177,-0.8117,-0.7058,-0.923,-1.0875,-1.1993,-1.1607,-1.1525,-1.1663,-1.17,-1.1979,-1.2289,-1.137,-1.1014,-1.104,-1.0997,-1.0845,-1.0811,-1.1773,-1.2056,-1.2055,-1.2121,-1.2263,-1.2414,-1.2414,-1.2414,-1.2414,-1.2414,-1.0699,-0.8903,-0.8903,-0.7146,-0.5409,-0.5409,-0.5409,-0.5409,-0.5409,-0.5475,-0.5563,-0.5597,-0.5718,-0.584,-0.5902,-0.5886,-0.5886,-0.5886,-0.6265,-0.6538,-0.6538,-0.6538,-0.6538,-0.6538,-0.6198,-0.6048,-0.6204,-0.6249,-0.6339,-0.6481,-0.6359,-0.6268,-0.6216,-0.6027,-0.5898,-0.5806,-0.5933,-0.6095,-0.6258,-0.6591,-0.6833,-0.7009,-0.7172,-0.7313,-0.6339,-0.6363,0.0,-0.7046,-0.6747,-0.6767,-0.8617,-0.869,-0.9016,-1.1199,-1.0084,-0.8963,-0.9918,-0.9612,-0.8875,-0.7739,-0.7455,-0.7138,-0.6524,-0.6073,-0.5976,-0.6329,-0.5958,-0.5657,-0.5535,-0.5555,-0.5671,-0.5882,-0.5858,-0.5927,-0.6133,-0.6156,-0.6156,-0.6156,-0.6953,-0.7389,-0.7412,-0.8219,-0.8068,-0.6934,-0.7198,-0.7198,-0.699,-0.9299,-1.0701,-1.1325,-1.159,-1.1524,-1.1271,-1.1796,-1.2056,-1.2101,-1.1294,-1.1118,-1.1282,-1.0902,-1.0964,-1.1301,-1.1905,-1.219,-1.2323,-1.2335,-1.2349,-1.2414,-1.2414,-1.2414,-1.2414,-1.2414,-1.0699,-0.8903,-0.8903,-0.7146,-0.5409,-0.5409,-0.5409,-0.5409,-0.5409,-0.5647,-0.5826,-0.5627,-0.5863,-0.6077,-0.5931,-0.5886,-0.5886,-0.5886,-0.5994,-0.6038,-0.6038,-0.6038,-0.6038,-0.6038,-0.5976,-0.601,-0.62,-0.6105,-0.6176,-0.6473,-0.6333,-0.6202,-0.6214,-0.6143,-0.6084,-0.5965,-0.6441,-0.671,-0.6749,-0.7156,-0.7459,-0.7692,-0.7732,-0.7838,-0.5809,-0.6552,0.0,-0.7596,0.0,-0.6887,-0.8222,-0.7658,-0.7393,-0.9336,-0.8699,-0.7991,-0.8625,-0.8023,-0.7249,-0.6697,-0.6412,-0.6202,-0.5949,-0.5633,-0.5519,-0.5822,-0.5615,-0.5447,-0.5447,-0.549,-0.5498,-0.5451,-0.5447,-0.5429,-0.5412,-0.5409,-0.5409,-0.5409,-0.5845,-0.6109,-0.6135,-0.6635,-0.6573,-0.5979,-0.603,-0.6288,-0.6833,-0.912,-1.0454,-1.097,-1.1221,-1.1242,-1.1139,-1.157,-1.183,-1.1895,-1.1241,-1.1116,-1.1215,-1.095,-1.1027,-1.1319,-1.1781,-1.2027,-1.2112,-1.2112,-1.2187,-1.226,-1.2381,-1.2316,-1.2291,-1.2358,-1.0638,-0.8791,-0.8886,-0.7146,-0.5409,-0.5409,-0.5409,-0.5409,-0.5409,-0.559,-0.5738,-0.5627,-0.5835,-0.5989,-0.59,-0.5886,-0.5886,-0.5886,-0.5886,-0.5886,-0.5886,-0.5886,-0.5886,-0.5886,-0.5886,-0.5941,-0.6108,-0.6048,-0.6099,-0.6345,-0.6194,-0.6182,-0.6339,-0.6339,-0.6339,-0.6339,-0.6788,-0.7059,-0.7107,-0.7488,-0.7749,-0.7918,-0.8054,-0.8247,-0.5089,-0.6547,-0.8033,-0.8212,-0.7512,0.0,-0.7513,-0.6585,-0.6012,-0.7352,-0.7445,-0.7277,-0.7221,-0.6235,-0.5409,-0.5409,-0.5409,-0.5409,-0.5409,-0.5409,-0.5409,-0.5409,-0.5409,-0.5403,-0.5359,-0.5399,-0.5403,-0.5359,-0.5359,-0.5365,-0.5407,-0.5379,-0.5341,-0.5357,-0.5179,-0.512,-0.5169,-0.503,-0.4974,-0.4974,-0.5024,-0.56,-0.6679,-0.865,-0.9954,-1.0605,-1.0777,-1.0951,-1.1125,-1.1322,-1.1559,-1.1688,-1.1198,-1.1078,-1.1155,-1.1027,-1.1065,-1.1261,-1.1616,-1.181,-1.1895,-1.1857,-1.1994,-1.2192,-1.2319,-1.2217,-1.2123,-1.2288,-1.0548,-0.8642,-0.8838,-0.7146,-0.5409,-0.5409,-0.5409,-0.5409,-0.5409,-0.5505,-0.5592,-0.5597,-0.5731,-0.5829,-0.5904,-0.5886,-0.5886,-0.5886,-0.5886,-0.5886,-0.5886,-0.5886,-0.5886,-0.5886,-0.5886,-0.5922,-0.5982,-0.5976,-0.604,-0.6206,-0.6132,-0.6208,-0.6488,-0.6645,-0.6789,-0.6857,-0.7146,-0.7324,-0.7397,-0.779,-0.7996,-0.8014,-0.8314,-0.8497,-0.5318,0.0,-0.6618,0.0,-0.6043,-0.5998,0.0,0.0,-0.55,-0.6066,-0.6111,-0.5959,-0.574,-0.5519,-0.5409,-0.5409,-0.5409,-0.5409,-0.5409,-0.5409,-0.5409,-0.5409,-0.5409,-0.5349,-0.5244,-0.5335,-0.5349,-0.5242,-0.5236,-0.527,-0.5405,-0.523,-0.5179,-0.5232,-0.5086,-0.5022,-0.5034,-0.4906,-0.4828,-0.4828,-0.484,-0.5461,-0.6628,-0.7758,-0.8811,-0.9805,-1.0748,-1.1163,-1.1206,-1.1392,-1.1507,-1.1507,-1.1203,-1.124,-1.1395,-1.0988,-1.1189,-1.1679,-1.1584,-1.1881,-1.2301,-1.2126,-1.2206,-1.2316,-1.217,-1.2109,-1.2117,-1.2118,-1.0432,-0.8642,-0.8838,-0.7146,-0.5409,-0.5409,-0.5409,-0.5409,-0.5409,-0.5677,-0.5855,-0.5656,-0.5752,-0.5902,-0.5884,-0.5886,-0.5886,-0.5886,-0.5886,-0.5886,-0.5886,-0.5886,-0.5886,-0.5886,-0.5886,-0.5922,-0.5982,-0.5951,-0.6006,-0.6202,-0.6351,-0.6457,-0.6488,-0.7291,-0.7672,-0.7557,-0.7594,-0.7681,-0.782,-0.8152,-0.8402,-0.8496,-0.8565,-0.8573,-0.5631,-0.5599,-0.5473,0.0,-0.5995,-0.5483,-0.559,-0.5611,-0.5696,-0.6095,-0.6158,-0.6037,-0.5741,-0.5445,-0.5228,-0.5228,-0.5271,-0.5276,-0.5276,-0.5349,-0.5409,-0.5409,-0.5337,-0.526,-0.5194,-0.5254,-0.524,-0.5149,-0.5187,-0.5211,-0.5228,-0.5153,-0.5126,-0.514,-0.5041,-0.4997,-0.4997,-0.4856,-0.4809,-0.4809,-0.4809,-0.5079,-0.5648,-0.7253,-0.8591,-0.9657,-1.0723,-1.1194,-1.1212,-1.143,-1.1419,-1.1325,-1.1171,-1.1194,-1.129,-1.1065,-1.1191,-1.1472,-1.148,-1.1669,-1.1881,-1.1791,-1.19,-1.2046,-1.1961,-1.1853,-1.1657,-1.1159,-0.9783,-0.8328,-0.7934,-0.6631,-0.5409,-0.5409,-0.5409,-0.5409,-0.5409,-0.5553,-0.565,-0.5616,-0.5762,-0.5886,-0.5886,-0.5886,-0.5886,-0.5886,-0.5886,-0.5886,-0.5886,-0.5886,-0.5886,-0.5886,-0.5886,-0.5904,-0.5943,-0.591,-0.5949,-0.6027,-0.6305,-0.6531,-0.6719,-0.7303,-0.7676,-0.7809,-0.801,-0.8137,-0.8184,-0.8318,-0.8407,-0.8394,-0.8524,-0.8516,0.0,0.0,-0.4753,-0.6377,-0.6032,-0.537,0.0,-0.5796,-0.6013,-0.6305,-0.6383,-0.6365,-0.6263,-0.5733,-0.5294,-0.5294,-0.5219,-0.5183,-0.5183,-0.5269,-0.5312,-0.5312,-0.5224,-0.5173,-0.5151,-0.5169,-0.5144,-0.5081,-0.511,-0.5128,-0.511,-0.5063,-0.5049,-0.5073,-0.4983,-0.4937,-0.4937,-0.4844,-0.4809,-0.4809,-0.4809,-0.4809,-0.486,-0.6731,-0.817,-0.9258,-1.0625,-1.1194,-1.1208,-1.1368,-1.134,-1.1212,-1.1149,-1.1166,-1.1188,-1.1129,-1.1194,-1.1293,-1.1397,-1.148,-1.156,-1.1509,-1.1626,-1.1782,-1.173,-1.1612,-1.132,-1.0377,-0.9242,-0.8101,-0.7233,-0.6216,-0.5409,-0.5409,-0.5409,-0.5416,-0.5408,-0.5412,-0.5459,-0.5583,-0.5744,-0.5882,-0.5882,-0.5902,-0.5886,-0.5886,-0.5886,-0.5886,-0.5886,-0.5886,-0.5886,-0.5886,-0.5886,-0.5886,-0.5886,-0.5886,-0.5947,-0.6009,-0.6344,-0.6681,-0.7023,-0.7383,-0.7703,-0.7949,-0.8217,-0.834,-0.834,-0.8369,-0.834,-0.8253,-0.8462,-0.8435,0.0,-0.4393,0.0,-0.5255,-0.564,-0.5738,0.0,-0.5768,-0.6281,-0.6296,-0.6367,-0.6556,-0.7034,-0.6437,-0.585,-0.585,-0.543,-0.5116,-0.5116,-0.512,-0.5122,-0.5122,-0.5118,-0.5081,-0.5022,-0.5063,-0.5077,-0.5011,-0.5009,-0.5048,-0.5104,-0.4917,-0.4862,-0.5001,-0.489,-0.4817,-0.4817,-0.4811,-0.4809,-0.4809,-0.4809,-0.4809,-0.4834,-0.5959,-0.708,-0.8195,-1.0301,-1.1194,-1.1194,-1.1208,-1.1203,-1.1194,-1.1208,-1.1203,-1.1198,-1.1208,-1.1311,-1.1447,-1.1279,-1.1472,-1.1744,-1.1556,-1.1626,-1.1758,-1.1565,-1.1499,-1.1288,-1.0201,-0.9135,-0.8101,-0.7233,-0.6216,-0.5409,-0.5409,-0.5409,-0.5404,-0.5484,-0.5502,-0.5529,-0.5595,-0.5723,-0.5818,-0.5818,-0.5859,-0.5886,-0.5886,-0.5886,-0.5886,-0.5886,-0.5886,-0.5886,-0.5886,-0.5886,-0.5886,-0.5886,-0.5886,-0.6039,-0.6342,-0.6683,-0.7021,-0.7355,-0.7828,-0.8077,-0.8074,-0.8176,-0.8212,-0.8212,-0.8329,-0.8383,-0.8375,-0.8388,-0.8326,0.0,0.0,0.0,-0.5109,-0.535,-0.5382,-0.5345,-0.5705,-0.6064,-0.6109,-0.6473,-0.6933,-0.7361,-0.6506,-0.5697,-0.5697,-0.5317,-0.5046,-0.5046,-0.5071,-0.5108,-0.5108,-0.5057,-0.5034,-0.5001,-0.5028,-0.4981,-0.489,-0.5597,-0.57,-0.496,-0.55,-0.5528,-0.4881,-0.4826,-0.4809,-0.4809,-0.4809,-0.4809,-0.4809,-0.4809,-0.4809,-0.486,-0.6631,-0.7627,-0.812,-1.0277,-1.1194,-1.1194,-1.1194,-1.1194,-1.1194,-1.1194,-1.1194,-1.1194,-1.1194,-1.1246,-1.1298,-1.1222,-1.1383,-1.1565,-1.1378,-1.1428,-1.156,-1.1373,-1.0836,-1.0058,-0.9088,-0.8069,-0.705,-0.6106,-0.5613,-0.5409,-0.5409,-0.5409,-0.5418,-0.542,-0.5469,-0.5506,-0.5597,-0.5718,-0.58,-0.5859,-0.5896,-0.5886,-0.5886,-0.5886,-0.5886,-0.5886,-0.5886,-0.5886,-0.5886,-0.5886,-0.5886,-0.5886,-0.6099,-0.6283,-0.6403,-0.6926,-0.7266,-0.7385,-0.7762,-0.7968,-0.7968,-0.8088,-0.8157,-0.8204,-0.8248,-0.8261,-0.8216,-0.8266,-0.8161,-0.3772,0.0,0.0,0.0,-0.509,-0.5055,-0.5166,-0.5698,-0.6155,-0.608,-0.6592,-0.7162,-0.753,-0.6631,-0.5842,-0.5854,-0.5342,-0.4924,-0.4924,-0.4977,-0.499,-0.499,-0.504,-0.5029,-0.4952,-0.5003,-0.5004,-0.4813,-0.5544,-0.5655,-0.4836,-0.5486,-0.5536,-0.4834,-0.4809,-0.4809,-0.4809,-0.4809,-0.4809,-0.4809,-0.4809,-0.4985,-0.5386,-0.6805,-0.7851,-0.8616,-1.0031,-1.087,-1.1194,-1.1194,-1.1194,-1.1194,-1.1194,-1.1194,-1.1194,-1.1194,-1.1194,-1.1194,-1.1194,-1.1288,-1.1387,-1.1241,-1.1293,-1.1358,-1.1241,-1.0449,-0.9385,-0.842,-0.744,-0.6463,-0.5421,-0.529,-0.5409,-0.5409,-0.5409,-0.5409,-0.5409,-0.5426,-0.5484,-0.5516,-0.5629,-0.5708,-0.5769,-0.5831,-0.5872,-0.5872,-0.5898,-0.5886,-0.5886,-0.5886,-0.5886,-0.5886,-0.5886,-0.5947,-0.607,-0.6283,-0.6495,-0.6709,-0.7141,-0.7447,-0.7569,-0.778,-0.7903,-0.7903,-0.7982,-0.8064,-0.8114,-0.8164,-0.8171,-0.8085,-0.8136,-0.8065,0.0,0.0,0.0,0.0,-0.4886,-0.4874,-0.4823,-0.5769,-0.6562,-0.6257,-0.6659,-0.7185,-0.7513,-0.6864,-0.6314,-0.6385,-0.5509,-0.4809,-0.4809,-0.4809,-0.4809,-0.4809,-0.5037,-0.509,-0.4834,-0.5037,-0.509,-0.4809,-0.4834,-0.4834,-0.4809,-0.4809,-0.4809,-0.4809,-0.4809,-0.4809,-0.4809,-0.4809,-0.4809,-0.4809,-0.4809,-0.5361,-0.6412,-0.6434,-0.7599,-0.9608,-0.9632,-1.0252,-1.1194,-1.1194,-1.1194,-1.1194,-1.1194,-1.1194,-1.1194,-1.1194,-1.1194,-1.1194,-1.1194,-1.1194,-1.1194,-1.1194,-1.1194,-1.1194,-1.1169,-1.04,-0.9336,-0.8251,-0.7319,-0.6421,-0.5377,-0.5249,-0.5409,-0.5409,-0.5409,-0.5409,-0.5409,-0.5409,-0.5409,-0.5414,-0.5453,-0.5512,-0.5514,-0.5665,-0.5816,-0.5816,-0.5861,-0.5886,-0.5886,-0.5886,-0.5916,-0.5916,-0.5916,-0.6039,-0.6372,-0.6434,-0.6709,-0.7355,-0.7416,-0.7569,-0.79,-0.7903,-0.7903,-0.7903,-0.7903,-0.7903,-0.7903,-0.8108,-0.8163,-0.808,-0.808,-0.8017,-0.3815,0.0,0.0,0.0,0.0,0.0,-0.495,-0.5396,-0.5807,-0.5944,-0.6271,-0.6558,-0.6697,-0.6267,-0.5904,-0.6021,-0.5661,-0.5233,-0.486,-0.4809,-0.4809,-0.4809,-0.486,-0.4885,-0.4809,-0.486,-0.4885,-0.4809,-0.5511,-0.5611,-0.4834,-0.4809,-0.4809,-0.4809,-0.4809,-0.4809,-0.4809,-0.4809,-0.4809,-0.4809,-0.4809,-0.5361,-0.6437,-0.7204,-0.8294,-0.9632,-1.0424,-1.0924,-1.1194,-1.1194,-1.1194,-1.1194,-1.1194,-1.1194,-1.1194,-1.1194,-1.1194,-1.1194,-1.1194,-1.1194,-1.1194,-1.1194,-1.1194,-1.1071,-1.0277,-0.9287,-0.8244,-0.7266,-0.6282,-0.5507,-0.5353,-0.5371,-0.5409,-0.5409,-0.5409,-0.5409,-0.5409,-0.5409,-0.5428,-0.5461,-0.5516,-0.5597,-0.5694,-0.5802,-0.588,-0.588,-0.5902,-0.5886,-0.5886,-0.5886,-0.6009,-0.6252,-0.6252,-0.6405,-0.6745,-0.699,-0.7202,-0.7385,-0.7627,-0.7811,-0.7903,-0.7903,-0.7903,-0.7903,-0.7903,-0.7903,-0.7903,-0.7968,-0.7987,-0.7952,-0.7952,-0.7935,0.0,0.0,0.0,0.0,0.0,0.0,-0.4894,-0.5178,-0.5437,-0.5673,-0.5799,-0.5975,-0.6362,-0.6181,-0.594,-0.5915,-0.6011,-0.5807,-0.4924,-0.4809,-0.4809,-0.4809,-0.4912,-0.4912,-0.4809,-0.4912,-0.4912,-0.4809,-0.5386,-0.5461,-0.4834,-0.4809,-0.4809,-0.4809,-0.4809,-0.4809,-0.4809,-0.4809,-0.4809,-0.4809,-0.4809,-0.5584,-0.708,-0.7723,-0.8838,-1.0301,-1.0924,-1.1194,-1.1194,-1.1194,-1.1194,-1.1194,-1.1194,-1.1194,-1.1194,-1.1194,-1.1194,-1.1194,-1.1194,-1.1194,-1.1194,-1.1194,-1.09,-1.0424,-0.978,-0.8542,-0.7219,-0.6667,-0.5834,-0.5151,-0.5335,-0.5409,-0.5409,-0.5409,-0.5409,-0.5409,-0.5409,-0.5409,-0.5424,-0.5445,-0.5498,-0.5561,-0.5651,-0.5743,-0.5786,-0.5855,-0.5894,-0.5886,-0.5886,-0.5886,-0.6039,-0.6372,-0.6403,-0.6589,-0.7082,-0.7294,-0.7447,-0.76,-0.778,-0.7903,-0.7903,-0.7903,-0.7903,-0.7903,-0.7903,-0.7903,-0.7903,-0.7903,-0.7903,-0.7903,-0.7903,-0.7903,0.0,0.0,0.0,0.0,-0.4815,0.0,-0.4766,-0.5104,-0.5417,-0.5525,-0.5413,-0.5535,-0.6327,-0.6358,-0.6187,-0.5967,-0.6391,-0.6307,-0.5072,-0.4881,-0.4858,-0.4918,-0.5072,-0.5077,-0.4834,-0.5012,-0.5062,-0.4809,-0.4809,-0.4809,-0.4809,-0.4809,-0.4809,-0.4809,-0.4809,-0.4809,-0.4809,-0.4809,-0.4809,-0.4809,-0.4809,-0.5857,-0.7822,-0.7947,-0.911,-1.1022,-1.1145,-1.1194,-1.1194,-1.1071,-1.1096,-1.1194,-1.1071,-1.1022,-1.1022,-1.1022,-1.1022,-1.1047,-1.1169,-1.112,-1.1022,-1.1022,-1.0301,-0.941,-0.9287,-0.7925,-0.6392,-0.6294,-0.5712,-0.5163,-0.5337,-0.5409,-0.5409,-0.5409,-0.5409,-0.5409,-0.5409,-0.5409,-0.5409,-0.5409,-0.5426,-0.5435,-0.551,-0.5577,-0.5673,-0.5784,-0.5865,-0.5886,-0.5886,-0.5947,-0.607,-0.6436,-0.6495,-0.6771,-0.7416,-0.7447,-0.7597,-0.7869,-0.7903,-0.7903,-0.7903,-0.7903,-0.7903,-0.7903,-0.7903,-0.7903,-0.7903,-0.7903,-0.7903,-0.7903,-0.7903,-0.7903,0.0,0.0,0.0,-0.4683,-0.4965,0.0,-0.487,-0.5357,-0.585,-0.5827,-0.5831,-0.5946,-0.6279,-0.6185,-0.6054,-0.6062,-0.6255,-0.6177,-0.5542,-0.5315,-0.5299,-0.5574,-0.5317,-0.5028,-0.4828,-0.4834,-0.486,-0.4809,-0.4809,-0.4809,-0.4809,-0.4809,-0.4809,-0.4809,-0.4809,-0.4809,-0.4809,-0.4809,-0.4809,-0.4809,-0.4809,-0.5459,-0.6734,-0.7599,-0.869,-0.9953,-1.0821,-1.1194,-1.112,-1.0277,-1.0424,-1.112,-1.0252,-0.9903,-0.9903,-0.9903,-0.9903,-1.0031,-1.09,-1.0625,-0.9903,-0.9903,-0.9188,-0.8145,-0.7279,-0.6734,-0.6251,-0.5558,-0.5266,-0.5216,-0.5353,-0.5409,-0.5409,-0.5409,-0.5409,-0.5409,-0.5409,-0.5409,-0.5409,-0.5409,-0.5496,-0.5569,-0.5585,-0.5723,-0.5839,-0.5888,-0.5906,-0.5886,-0.5886,-0.6129,-0.6436,-0.6775,-0.7049,-0.7352,-0.778,-0.7811,-0.7841,-0.7903,-0.7903,-0.7903,-0.7903,-0.7903,-0.7903,-0.7903,-0.7903,-0.7903,-0.7903,-0.7903,-0.7903,-0.7903,-0.7903,-0.7903,-0.5509,-0.5382,-0.5305,-0.5298,-0.538,0.0,0.0,-0.548,-0.5688,-0.582,-0.5817,-0.594,-0.6411,-0.6397,-0.6322,-0.6394,-0.6548,-0.6548,-0.6287,-0.5823,-0.5447,-0.5271,-0.5048,-0.4863,-0.4801,-0.4809,-0.4809,-0.4809,-0.4809,-0.4809,-0.4809,-0.4809,-0.4809,-0.4809,-0.4809,-0.4809,-0.4809,-0.4809,-0.4809,-0.4809,-0.4809,-0.5634,-0.7204,-0.7751,-0.8863,-1.0424,-1.0968,-1.09,-1.035,-0.983,-0.9608,-0.9558,-0.9011,-0.8789,-0.8789,-0.8789,-0.8789,-0.8892,-0.9406,-0.9262,-0.8789,-0.8789,-0.8074,-0.7104,-0.6559,-0.6075,-0.5621,-0.5227,-0.5146,-0.5238,-0.5357,-0.5409,-0.5409,-0.5409,-0.5409,-0.5409,-0.5409,-0.5409,-0.5422,-0.5437,-0.5524,-0.5614,-0.5614,-0.5729,-0.5865,-0.591,-0.5886,-0.5947,-0.6129,-0.628,-0.6589,-0.7082,-0.7296,-0.7538,-0.7872,-0.7903,-0.7903,-0.7903,-0.7903,-0.7903,-0.7903,-0.7903,-0.7903,-0.7903,-0.7903,-0.7903,-0.7903,-0.7903,-0.7903,-0.7903,-0.7903,-0.7903,-0.6176,-0.5994,-0.5872,-0.6099,-0.5947,-0.575,0.0,0.0,0.0,-0.5871,-0.589,-0.6054,-0.6613,-0.6708,-0.6701,-0.6724,-0.6969,-0.7071,-0.6832,-0.6309,-0.5757,-0.523,-0.5149,-0.5132,-0.5134,-0.5046,-0.4945,-0.4807,-0.4809,-0.4809,-0.4809,-0.4809,-0.4809,-0.4809,-0.4809,-0.4809,-0.4809,-0.4809,-0.4809,-0.4809,-0.4809,-0.5807,-0.7702,-0.79,-0.9061,-1.09,-1.09,-1.04,-0.9558,-0.916,-0.8467,-0.7702,-0.7702,-0.7702,-0.7702,-0.7702,-0.7702,-0.7723,-0.7922,-0.7875,-0.7702,-0.7702,-0.6955,-0.6089,-0.6113,-0.5614,-0.5042,-0.5108,-0.5173,-0.526,-0.5363,-0.5409,-0.5409,-0.5409,-0.5409,-0.5409,-0.5409,-0.5409,-0.5406,-0.549,-0.5553,-0.562,-0.5638,-0.5745,-0.5833,-0.5906,-0.5947,-0.6099,-0.6372,-0.6526,-0.6801,-0.7355,-0.7447,-0.76,-0.7869,-0.7903,-0.7903,-0.7903,-0.7903,-0.7903,-0.7903,-0.7903,-0.7903,-0.7903,-0.7903,-0.7903,-0.7903,-0.7903,-0.7903,-0.7903,-0.7903,-0.7903,-0.712,-0.725,-0.7198,-0.6531,-0.6686,-0.675,-0.5838,0.0,-0.6795,-0.6403,0.0,-0.6832,-0.6795,0.0,0.0,-0.6823,-0.7309,-0.7418,-0.658,-0.6676,-0.6856,-0.6837,-0.6766,-0.6626,-0.6331,-0.5928,-0.5437,-0.4847,-0.4809,-0.4809,-0.4809,-0.4809,-0.4809,-0.4809,-0.4809,-0.4809,-0.4809,-0.4809,-0.4809,-0.4809,-0.4809,-0.5434,-0.6609,-0.7577,-0.8641,-0.978,-0.978,-0.9706,-0.946,-0.7549,-0.6684,-0.6587,-0.6587,-0.6587,-0.6587,-0.6587,-0.6587,-0.6709,-0.7673,-0.7378,-0.6587,-0.6587,-0.5859,-0.5,-0.5112,-0.5124,-0.5112,-0.5177,-0.5268,-0.5369,-0.5405,-0.5409,-0.5409,-0.5409,-0.5409,-0.5409,-0.5409,-0.5409,-0.5406,-0.549,-0.5553,-0.564,-0.5751,-0.5841,-0.5906,-0.5886,-0.616,-0.6342,-0.6403,-0.6926,-0.7324,-0.7385,-0.7658,-0.7872,-0.7903,-0.7903,-0.7903,-0.7903,-0.7903,-0.7903,-0.7903,-0.7903,-0.7903,-0.7903,-0.7903,-0.7903,-0.7903,-0.7903,-0.7903,-0.7903,-0.7903,-0.7903,-0.6606,-0.6569,-0.6646,-0.631,-0.627,-0.6234,-0.5857,-0.6395,-0.694,-0.6781,0.0,0.0,0.0,0.0,0.0,0.0,-0.7245,-0.7209,-0.7157,-0.7299,-0.7168,-0.6528,-0.6427,-0.6279,-0.5958,-0.6156,-0.6104,-0.5591,-0.5456,-0.5439,-0.5561,-0.5078,-0.4809,-0.4809,-0.4809,-0.4809,-0.4809,-0.4809,-0.4809,-0.4809,-0.4809,-0.5684,-0.7353,-0.7801,-0.8591,-0.9608,-0.9608,-0.8888,-0.7677,-0.6783,-0.6037,-0.5461,-0.5461,-0.5461,-0.5461,-0.5461,-0.5461,-0.5534,-0.5982,-0.5859,-0.5461,-0.5461,-0.5158,-0.4826,-0.497,-0.5037,-0.5126,-0.5191,-0.531,-0.5409,-0.5409,-0.5409,-0.5409,-0.5409,-0.5409,-0.5424,-0.5445,-0.5416,-0.5467,-0.5629,-0.5626,-0.566,-0.5835,-0.5892,-0.5978,-0.616,-0.6313,-0.6526,-0.6926,-0.7232,-0.7477,-0.7658,-0.7811,-0.7903,-0.7903,-0.7903,-0.7903,-0.7903,-0.7903,-0.7903,-0.7903,-0.7903,-0.7903,-0.7903,-0.7903,-0.7903,-0.7903,-0.7903,-0.7903,-0.7903,-0.7903,-0.7903,-0.5992,-0.5912,-0.6031,-0.6056,-0.5923,-0.5828,-0.6002,-0.6561,-0.7037,-0.7056,-0.7284,0.0,0.0,0.0,0.0,0.0,0.0,-0.7179,-0.7564,-0.7622,-0.7315,-0.6492,-0.6311,-0.6147,-0.586,-0.6334,-0.6493,-0.6123,-0.5866,-0.5815,-0.5999,-0.5255,-0.4809,-0.4809,-0.4809,-0.4809,-0.4809,-0.4809,-0.4809,-0.4809,-0.511,-0.6207,-0.7996,-0.8294,-0.8863,-0.9583,-0.9287,-0.812,-0.6387,-0.6087,-0.5509,-0.4809,-0.4809,-0.4809,-0.4809,-0.4809,-0.4809,-0.4809,-0.4809,-0.4809,-0.4809,-0.4809,-0.4809,-0.4832,-0.4973,-0.5055,-0.5132,-0.5222,-0.5331,-0.5409,-0.5409,-0.5409,-0.5409,-0.5409,-0.5409,-0.5426,-0.5459,-0.5443,-0.5482,-0.57,-0.571,-0.5731,-0.5982,-0.5947,-0.6009,-0.6342,-0.6464,-0.6742,-0.7324,-0.7477,-0.7627,-0.7872,-0.7903,-0.7903,-0.7903,-0.7903,-0.7903,-0.7903,-0.7903,-0.7903,-0.7903,-0.7903,-0.7903,-0.7903,-0.7903,-0.7903,-0.7903,-0.7903,-0.7903,-0.7903,-0.7903,-0.7903,-0.5705,-0.5809,-0.5839,-0.5976,-0.6003,-0.6052,-0.6327,-0.6911,-0.7342,-0.7227,-0.7717,-0.8044,-0.7655,0.0,0.0,0.0,0.0,0.0,0.0,-0.7409,-0.7387,-0.7358,-0.7129,-0.6883,-0.6689,-0.6565,-0.6395,-0.6116,-0.5723,-0.5606,-0.581,-0.5158,-0.4809,-0.4809,-0.4809,-0.4809,-0.4809,-0.4809,-0.4809,-0.4809,-0.5862,-0.6933,-0.8046,-0.9086,-0.9558,-0.9534,-0.8492,-0.7428,-0.6312,-0.5286,-0.4834,-0.4809,-0.4809,-0.4809,-0.4809,-0.4809,-0.4809,-0.4809,-0.4809,-0.4809,-0.4809,-0.4809,-0.4809,-0.4842,-0.5049,-0.5106,-0.5147,-0.5326,-0.5407,-0.5409,-0.5409,-0.5409,-0.5409,-0.5409,-0.5409,-0.5409,-0.5414,-0.5447,-0.5533,-0.5599,-0.5718,-0.5925,-0.6324,-0.6129,-0.6009,-0.6342,-0.6683,-0.7023,-0.7355,-0.7689,-0.7903,-0.7903,-0.7903,-0.7903,-0.7903,-0.7903,-0.7903,-0.7903,-0.7903,-0.7903,-0.7903,-0.7903,-0.7903,-0.7903,-0.7903,-0.7903,-0.7903,-0.7903,-0.7903,-0.7903,-0.7903,-0.7903,-0.4814,-0.4814,-0.4917,-0.4777,-0.5007,-0.5277,-0.5339,-0.655,-0.7552,-0.7153,-0.7734,-0.8175,-0.7636,0.0,0.0,0.0,0.0,0.0,0.0,-0.7215,-0.719,-0.732,-0.7416,-0.7333,-0.6995,-0.7243,-0.7351,-0.7169,-0.6784,-0.6704,-0.7044,-0.5923,-0.5258,-0.5258,-0.4969,-0.4809,-0.4809,-0.4809,-0.4809,-0.4809,-0.5884,-0.6955,-0.8046,-0.911,-0.9209,-0.8517,-0.8145,-0.6977,-0.5311,-0.496,-0.4809,-0.4809,-0.4809,-0.4809,-0.4809,-0.4809,-0.4809,-0.4809,-0.4809,-0.4809,-0.4809,-0.4809,-0.485,-0.4949,-0.5071,-0.5124,-0.5197,-0.5347,-0.5409,-0.5409,-0.5409,-0.5409,-0.5409,-0.5409,-0.5409,-0.5426,-0.5453,-0.5488,-0.5553,-0.5704,-0.5759,-0.5871,-0.6053,-0.616,-0.6436,-0.6985,-0.7171,-0.7355,-0.7689,-0.7841,-0.7903,-0.7903,-0.7903,-0.7903,-0.7903,-0.7903,-0.7903,-0.7903,-0.7903,-0.7903,-0.7903,-0.7903,-0.7903,-0.7903,-0.7903,-0.7903,-0.7903,-0.7903,-0.7903,-0.7903,-0.7903,-0.7903,-0.3913,-0.3882,-0.4001,-0.402,-0.4295,-0.4584,-0.4731,-0.5954,-0.6949,-0.6613,-0.7108,-0.7628,-0.7666,0.0,0.0,0.0,0.0,0.0,0.0,-0.7169,-0.709,-0.721,-0.7304,-0.7284,-0.7112,-0.735,-0.7566,-0.7692,-0.7204,-0.7094,-0.757,-0.6265,-0.5509,-0.5509,-0.5033,-0.4809,-0.4809,-0.4809,-0.4809,-0.4809,-0.6282,-0.7329,-0.8046,-0.9509,-0.9386,-0.7996,-0.7996,-0.6778,-0.4809,-0.4809,-0.4809,-0.4809,-0.4809,-0.4809,-0.4809,-0.4809,-0.4809,-0.4809,-0.4809,-0.4809,-0.4809,-0.4809,-0.4898,-0.5013,-0.5081,-0.5144,-0.5242,-0.5392,-0.5404,-0.5418,-0.5418,-0.5432,-0.5409,-0.5409,-0.5409,-0.5404,-0.549,-0.5533,-0.56,-0.5751,-0.5806,-0.5877,-0.6059,-0.6344,-0.6712,-0.7143,-0.7327,-0.7508,-0.7872,-0.7903,-0.7903,-0.7903,-0.7903,-0.7903,-0.7903,-0.7903,-0.7903,-0.7903,-0.7903,-0.7903,-0.7903,-0.7903,-0.7963,-0.8062,-0.7968,-0.7965,-0.8065,-0.7965,-0.7903,-0.7903,-0.7903,-0.7903]},{"header":{"parameterUnit":"m.s-1","parameterCategory":1,"la1":30.6,"la2":29.2853,"lo1":-89.7004,"lo2":-87.6739,"dy":0.0162,"dx":0.0183,"nx":112,"ny":82,"refTime":"2024-04-20T12:00:00:Z","depth":0,"parameterNumber":3,"parameterNumberName":"V-component_of_WINDS"},"data":[0.0,0.0,0.0,0.0,0.0,0.0,0.0,0.0,0.0,0.0,0.0,0.0,0.0,0.0,0.0,0.0,0.0,0.0,0.0,0.0,0.0,0.0,0.0,0.0,0.0,0.0,0.0,0.0,0.0,0.0,0.0,0.0,0.0,0.0,0.0,0.0,0.0,0.0,0.0,0.0,0.0,0.0,0.0,0.0,0.0,0.0,0.0,0.0,0.0,0.0,0.0,0.0,0.0,0.0,0.0,0.0,0.0,0.0,0.0,0.0,0.0,0.0,0.0,0.0,0.0,0.0,0.0,0.0,0.0,0.0,0.0,0.0,0.0,0.0,0.0,0.0,0.0,0.0,0.0,0.0,0.0,0.0,0.0,0.0,0.0,0.0,0.0,0.0,0.0,0.0,3.324,3.6526,4.1136,4.3872,4.3629,4.2671,3.961,3.3765,0.0,0.0,0.0,0.0,0.0,0.0,0.0,0.0,0.0,0.0,0.0,0.0,0.0,0.0,0.0,0.0,0.0,0.0,0.0,0.0,0.0,0.0,0.0,0.0,0.0,0.0,0.0,0.0,0.0,0.0,0.0,0.0,0.0,0.0,0.0,0.0,0.0,0.0,0.0,0.0,0.0,0.0,0.0,0.0,0.0,0.0,0.0,0.0,0.0,0.0,0.0,0.0,0.0,0.0,0.0,0.0,0.0,0.0,0.0,0.0,0.0,0.0,0.0,0.0,0.0,0.0,0.0,0.0,0.0,0.0,0.0,0.0,0.0,0.0,0.0,0.0,0.0,0.0,0.0,0.0,0.0,0.0,0.0,0.0,0.0,0.0,0.0,0.0,0.0,0.0,0.0,0.0,0.0,0.0,0.0,0.0,0.0,0.0,0.0,0.0,0.0,0.0,0.0,0.0,3.4302,4.0589,4.3887,4.5089,4.3722,4.2113,3.9223,3.4589,0.0,0.0,0.0,0.0,0.0,0.0,0.0,0.0,0.0,0.0,0.0,0.0,0.0,0.0,0.0,0.0,0.0,0.0,0.0,0.0,0.0,0.0,0.0,0.0,0.0,0.0,0.0,0.0,0.0,0.0,0.0,0.0,0.0,0.0,0.0,0.0,0.0,0.0,0.0,0.0,0.0,0.0,0.0,0.0,0.0,0.0,0.0,0.0,0.0,0.0,0.0,0.0,0.0,0.0,0.0,0.0,0.0,0.0,0.0,0.0,0.0,0.0,0.0,0.0,0.0,0.0,0.0,0.0,0.0,0.0,0.0,0.0,0.0,0.0,0.0,0.0,0.0,0.0,0.0,0.0,0.0,0.0,0.0,0.0,0.0,0.0,0.0,0.0,0.0,0.0,0.0,0.0,0.0,0.0,0.0,0.0,0.0,0.0,0.0,0.0,0.0,0.0,0.0,3.3486,3.7056,4.3025,4.5106,4.5766,4.5018,4.2962,3.9829,3.5422,3.2289,0.0,0.0,0.0,0.0,0.0,0.0,0.0,0.0,0.0,0.0,0.0,0.0,0.0,0.0,0.0,0.0,0.0,0.0,0.0,0.0,0.0,0.0,0.0,0.0,0.0,0.0,0.0,0.0,0.0,0.0,0.0,0.0,0.0,0.0,0.0,0.0,0.0,0.0,0.0,0.0,0.0,0.0,0.0,0.0,0.0,0.0,0.0,0.0,0.0,0.0,0.0,0.0,0.0,0.0,0.0,0.0,0.0,0.0,0.0,0.0,0.0,0.0,0.0,0.0,0.0,0.0,0.0,0.0,0.0,0.0,0.0,0.0,0.0,0.0,0.0,0.0,0.0,0.0,0.0,0.0,0.0,0.0,0.0,0.0,0.0,0.0,0.0,0.0,0.0,0.0,0.0,0.0,0.0,0.0,0.0,0.0,0.0,0.0,0.0,0.0,0.0,0.0,3.7018,3.9831,4.4393,4.5627,4.5955,4.5551,4.3349,4.0118,3.5698,3.1481,0.0,0.0,0.0,0.0,0.0,0.0,0.0,0.0,0.0,0.0,0.0,0.0,0.0,0.0,0.0,0.0,0.0,0.0,0.0,0.0,0.0,0.0,0.0,0.0,0.0,0.0,0.0,0.0,0.0,0.0,0.0,0.0,0.0,0.0,0.0,0.0,0.0,0.0,0.0,0.0,0.0,0.0,0.0,0.0,0.0,0.0,0.0,0.0,0.0,0.0,0.0,0.0,0.0,0.0,0.0,0.0,0.0,0.0,0.0,0.0,0.0,0.0,0.0,0.0,0.0,0.0,0.0,0.0,0.0,0.0,0.0,0.0,0.0,0.0,0.0,0.0,0.0,0.0,0.0,0.0,0.0,0.0,0.0,0.0,0.0,0.0,0.0,0.0,0.0,0.0,0.0,0.0,0.0,0.0,0.0,0.0,0.0,0.0,0.0,0.0,0.0,0.0,3.8149,4.1778,4.4511,4.5649,4.5541,4.3913,4.2138,3.9233,3.4868,3.0572,0.0,0.0,0.0,0.0,0.0,0.0,0.0,0.0,0.0,0.0,0.0,0.0,0.0,0.0,0.0,0.0,0.0,0.0,0.0,0.0,0.0,0.0,0.0,0.0,0.0,0.0,0.0,0.0,0.0,0.0,0.0,0.0,0.0,0.0,0.0,0.0,0.0,0.0,0.0,0.0,0.0,0.0,0.0,0.0,0.0,0.0,0.0,0.0,0.0,0.0,0.0,0.0,0.0,0.0,0.0,0.0,0.0,0.0,0.0,0.0,0.0,0.0,0.0,0.0,0.0,0.0,0.0,0.0,0.0,0.0,0.0,0.0,0.0,0.0,0.0,0.0,0.0,0.0,0.0,0.0,0.0,0.0,0.0,0.0,0.0,0.0,0.0,0.0,0.0,0.0,0.0,0.0,0.0,0.0,0.0,0.0,0.0,0.0,0.0,0.0,0.0,0.0,3.8994,4.2246,4.5344,4.5503,4.5112,4.4473,4.2302,3.9133,3.4783,0.0,0.0,0.0,0.0,0.0,0.0,0.0,0.0,0.0,0.0,0.0,0.0,0.0,0.0,0.0,0.0,0.0,0.0,0.0,0.0,0.0,0.0,0.0,0.0,0.0,0.0,0.0,0.0,0.0,0.0,0.0,0.0,0.0,0.0,0.0,0.0,0.0,0.0,0.0,0.0,0.0,0.0,0.0,0.0,0.0,0.0,0.0,0.0,0.0,0.0,0.0,0.0,0.0,0.0,0.0,0.0,0.0,0.0,0.0,0.0,0.0,0.0,0.0,0.0,0.0,0.0,0.0,0.0,0.0,0.0,0.0,0.0,0.0,0.0,0.0,0.0,0.0,0.0,0.0,0.0,0.0,0.0,0.0,0.0,0.0,0.0,0.0,0.0,0.0,0.0,0.0,0.0,0.0,0.0,0.0,0.0,0.0,0.0,0.0,0.0,0.0,0.0,3.6138,3.9511,4.272,4.5897,4.5446,4.4705,4.4158,4.197,3.8632,3.3961,0.0,0.0,0.0,0.0,0.0,0.0,0.0,0.0,0.0,0.0,0.0,0.0,0.0,0.0,0.0,0.0,0.0,0.0,0.0,0.0,0.0,0.0,0.0,0.0,0.0,0.0,0.0,0.0,0.0,0.0,0.0,0.0,0.0,0.0,0.0,0.0,0.0,0.0,0.0,0.0,0.0,0.0,0.0,0.0,0.0,0.0,0.0,0.0,0.0,0.0,0.0,0.0,0.0,0.0,0.0,0.0,0.0,0.0,0.0,0.0,0.0,0.0,0.0,0.0,0.0,0.0,0.0,0.0,0.0,0.0,0.0,0.0,0.0,0.0,0.0,0.0,0.0,0.0,0.0,0.0,0.0,0.0,0.0,0.0,0.0,0.0,0.0,0.0,0.0,0.0,0.0,0.0,0.0,0.0,0.0,0.0,0.0,0.0,0.0,0.0,0.0,0.0,3.5468,3.9666,4.3391,4.6008,4.5512,4.4272,4.2542,4.0794,3.7528,0.0,0.0,0.0,0.0,0.0,0.0,0.0,0.0,0.0,0.0,0.0,0.0,0.0,0.0,0.0,0.0,0.0,0.0,0.0,0.0,0.0,0.0,0.0,0.0,0.0,0.0,0.0,0.0,0.0,0.0,0.0,0.0,0.0,0.0,0.0,0.0,0.0,0.0,0.0,0.0,0.0,0.0,0.0,0.0,0.0,0.0,0.0,0.0,0.0,0.0,0.0,0.0,0.0,0.0,0.0,0.0,0.0,0.0,0.0,0.0,0.0,0.0,0.0,0.0,0.0,0.0,0.0,0.0,0.0,0.0,0.0,0.0,0.0,0.0,0.0,0.0,0.0,0.0,0.0,0.0,0.0,0.0,0.0,0.0,0.0,0.0,0.0,0.0,0.0,0.0,0.0,0.0,0.0,0.0,0.0,0.0,0.0,0.0,0.0,0.0,0.0,0.0,0.0,3.5472,3.9667,4.3178,4.5176,4.4598,4.3635,4.2493,4.0249,3.6917,3.2261,0.0,0.0,0.0,0.0,0.0,0.0,0.0,0.0,0.0,0.0,0.0,0.0,0.0,0.0,0.0,0.0,0.0,0.0,0.0,0.0,0.0,0.0,0.0,0.0,0.0,0.0,0.0,0.0,0.0,0.0,0.0,0.0,0.0,0.0,0.0,0.0,0.0,0.0,0.0,0.0,0.0,0.0,0.0,0.0,0.0,0.0,0.0,0.0,0.0,0.0,0.0,0.0,0.0,0.0,0.0,0.0,0.0,0.0,0.0,0.0,0.0,0.0,0.0,0.0,0.0,0.0,0.0,0.0,0.0,0.0,0.0,0.0,0.0,0.0,0.0,0.0,0.0,0.0,0.0,0.0,0.0,0.0,0.0,0.0,0.0,0.0,0.0,0.0,0.0,0.0,0.0,0.0,0.0,0.0,0.0,0.0,0.0,0.0,0.0,0.0,0.0,0.0,3.5465,3.9375,4.282,4.5267,4.4438,4.3341,4.2471,3.9992,3.694,3.3262,0.0,0.0,0.0,0.0,0.0,0.0,0.0,0.0,0.0,0.0,0.0,0.0,0.0,0.0,0.0,0.0,0.0,0.0,0.0,0.0,0.0,0.0,0.0,0.0,0.0,0.0,0.0,0.0,0.0,0.0,0.0,0.0,0.0,0.0,0.0,0.0,0.0,0.0,0.0,0.0,0.0,0.0,0.0,0.0,0.0,0.0,0.0,0.0,0.0,0.0,0.0,0.0,0.0,0.0,0.0,0.0,0.0,0.0,0.0,0.0,0.0,0.0,0.0,0.0,0.0,0.0,0.0,0.0,0.0,0.0,0.0,0.0,0.0,0.0,0.0,0.0,0.0,0.0,0.0,0.0,0.0,0.0,0.0,0.0,0.0,0.0,0.0,0.0,0.0,0.0,0.0,0.0,0.0,0.0,0.0,0.0,0.0,0.0,0.0,0.0,0.0,0.0,3.5344,3.8884,4.24,4.582,4.4764,4.3434,4.2479,4.0083,3.7507,3.4899,0.0,0.0,0.0,0.0,0.0,0.0,0.0,0.0,0.0,0.0,0.0,0.0,0.0,0.0,0.0,0.0,0.0,0.0,0.0,0.0,0.0,0.0,0.0,0.0,0.0,0.0,0.0,0.0,0.0,0.0,0.0,0.0,0.0,0.0,0.0,0.0,0.0,0.0,0.0,0.0,0.0,0.0,0.0,0.0,0.0,0.0,0.0,0.0,0.0,0.0,0.0,0.0,0.0,0.0,0.0,0.0,0.0,0.0,0.0,0.0,2.9302,2.9005,0.0,0.0,0.0,0.0,0.0,0.0,0.0,0.0,0.0,0.0,0.0,0.0,0.0,0.0,0.0,0.0,0.0,0.0,0.0,0.0,0.0,0.0,0.0,0.0,0.0,0.0,0.0,0.0,0.0,0.0,0.0,0.0,0.0,0.0,0.0,0.0,0.0,0.0,0.0,0.0,3.4518,3.8525,4.2168,4.4979,4.4941,4.4081,4.2537,4.0639,3.8415,3.5799,3.3691,0.0,0.0,0.0,0.0,0.0,0.0,0.0,0.0,0.0,0.0,0.0,0.0,0.0,0.0,0.0,0.0,0.0,0.0,0.0,0.0,0.0,0.0,0.0,0.0,0.0,0.0,0.0,0.0,0.0,0.0,0.0,0.0,0.0,0.0,0.0,0.0,0.0,0.0,0.0,0.0,0.0,0.0,0.0,0.0,0.0,0.0,0.0,0.0,0.0,0.0,0.0,0.0,0.0,0.0,0.0,0.0,0.0,0.0,0.0,3.1577,3.065,0.0,0.0,0.0,0.0,0.0,0.0,0.0,0.0,0.0,0.0,0.0,0.0,0.0,0.0,0.0,0.0,0.0,0.0,0.0,0.0,0.0,0.0,0.0,0.0,0.0,0.0,0.0,0.0,0.0,0.0,0.0,0.0,0.0,0.0,0.0,0.0,0.0,0.0,0.0,0.0,3.5419,3.9278,4.2732,4.5342,4.4879,4.4002,4.3104,4.1074,3.9277,3.7907,3.5427,0.0,0.0,0.0,0.0,0.0,0.0,0.0,0.0,0.0,0.0,0.0,0.0,0.0,0.0,0.0,0.0,0.0,0.0,0.0,0.0,0.0,0.0,0.0,0.0,0.0,0.0,0.0,0.0,0.0,0.0,0.0,0.0,0.0,0.0,0.0,0.0,0.0,0.0,0.0,0.0,0.0,0.0,0.0,0.0,0.0,0.0,0.0,0.0,0.0,0.0,0.0,0.0,0.0,3.6844,3.722,3.6617,3.7866,3.8196,3.7629,3.4648,3.3201,3.2949,3.2617,0.0,0.0,0.0,0.0,0.0,0.0,0.0,0.0,0.0,0.0,0.0,0.0,0.0,0.0,0.0,0.0,0.0,0.0,0.0,0.0,0.0,0.0,3.3156,3.3501,3.4572,3.4977,3.3023,0.0,0.0,0.0,0.0,0.0,0.0,0.0,0.0,0.0,0.0,0.0,3.6678,4.0323,4.3566,4.6049,4.5005,4.4033,4.3737,4.1638,4.0273,4.0114,3.7255,3.5375,0.0,0.0,0.0,0.0,0.0,0.0,0.0,0.0,0.0,0.0,0.0,0.0,0.0,0.0,0.0,0.0,0.0,0.0,0.0,0.0,0.0,0.0,0.0,0.0,0.0,0.0,0.0,0.0,0.0,0.0,0.0,0.0,2.6635,2.7734,0.0,0.0,0.0,0.0,0.0,0.0,0.0,0.0,0.0,0.0,0.0,0.0,0.0,3.5049,3.7766,3.8456,3.8515,3.8008,3.8986,3.9382,3.9274,3.8735,3.9253,4.05,3.9237,0.0,3.632,3.492,0.0,0.0,0.0,0.0,0.0,0.0,0.0,0.0,0.0,0.0,0.0,0.0,0.0,0.0,0.0,0.0,0.0,0.0,0.0,0.0,0.0,0.0,3.8085,3.9546,3.9492,3.9234,3.9645,3.5532,3.1682,3.1512,3.1539,3.1238,0.0,0.0,0.0,0.0,0.0,0.0,3.6751,4.086,4.4243,4.6106,4.6094,4.5341,4.3825,4.2693,4.1757,4.0995,3.9741,3.8045,3.5822,3.7798,0.0,0.0,0.0,0.0,0.0,0.0,0.0,0.0,0.0,0.0,0.0,0.0,0.0,0.0,0.0,0.0,0.0,0.0,0.0,0.0,0.0,0.0,0.0,0.0,0.0,0.0,0.0,0.0,0.0,2.7145,2.9043,2.8945,2.8906,2.8726,0.0,0.0,0.0,0.0,0.0,0.0,0.0,0.0,0.0,3.7409,3.7024,3.8258,4.1336,4.0817,4.1078,4.2159,4.2531,4.2971,4.3445,4.3068,4.3307,4.3963,4.3072,4.1977,4.0641,3.8412,3.6773,3.5521,0.0,0.0,0.0,0.0,3.3335,3.3831,3.4211,3.4686,3.5057,3.4568,0.0,0.0,0.0,0.0,0.0,0.0,0.0,3.5248,3.6936,3.8686,4.0312,4.154,4.1914,4.1953,4.1854,3.9676,3.7195,3.5287,3.4873,3.3947,3.1174,3.1207,0.0,0.0,0.0,3.714,3.9687,4.2602,4.4904,4.6165,4.5859,4.526,4.4503,4.3175,4.2216,4.1799,4.0501,3.9214,3.8026,3.8116,3.6094,0.0,0.0,0.0,0.0,0.0,0.0,0.0,0.0,0.0,0.0,0.0,0.0,0.0,0.0,0.0,0.0,0.0,0.0,0.0,0.0,0.0,0.0,0.0,0.0,0.0,0.0,0.0,0.0,2.9452,3.1463,3.0585,3.1034,3.1152,0.0,0.0,0.0,0.0,0.0,0.0,3.5383,3.8146,4.0231,4.1351,4.0801,4.1912,4.4902,4.3695,4.4047,4.5975,4.597,4.6319,4.6945,4.6945,4.6945,4.6906,4.6243,4.5499,4.4478,4.1588,3.9779,3.8766,3.8122,3.7324,3.6592,3.6777,3.7288,3.7881,3.8092,3.8611,3.91,3.8672,3.7383,3.5915,3.5459,0.0,0.0,0.0,0.0,3.8103,3.9442,4.0772,4.2043,4.3144,4.3887,4.4199,4.3535,4.3169,4.2074,3.9108,3.8472,3.7286,3.3644,3.4097,0.0,3.4286,3.703,3.9915,4.203,4.407,4.5587,4.6223,4.5721,4.5238,4.5023,4.3813,4.2921,4.2621,4.1234,4.0259,3.9914,3.8503,3.6809,3.4841,0.0,0.0,0.0,0.0,0.0,0.0,0.0,0.0,0.0,0.0,0.0,0.0,0.0,0.0,0.0,0.0,0.0,0.0,0.0,0.0,0.0,0.0,0.0,0.0,0.0,0.0,0.0,0.0,0.0,3.3229,3.5348,0.0,0.0,0.0,0.0,3.5562,3.7925,3.9757,4.0664,4.238,4.414,4.5917,4.5938,4.6758,4.8529,4.8448,4.8486,4.8604,4.8603,4.8623,4.8662,4.8662,4.8662,4.8663,4.8631,4.8141,4.7137,4.3684,4.1254,3.9737,3.9683,3.914,3.8456,3.916,3.9518,3.9785,4.0545,4.0877,4.1093,4.188,4.0956,3.9674,4.0322,3.8826,0.0,0.0,3.9524,4.0224,4.2704,4.3459,4.3998,4.5701,4.6149,4.6167,4.6111,4.5345,4.4163,4.2466,4.2074,4.1455,3.9642,0.0,3.8897,3.7157,3.9221,4.1292,4.2184,4.4598,4.6251,4.6302,4.6269,4.5902,4.5062,4.4925,4.4461,4.3509,4.2571,4.1678,4.0779,3.986,3.9319,3.919,3.6801,0.0,0.0,0.0,0.0,0.0,0.0,0.0,0.0,0.0,0.0,0.0,0.0,0.0,0.0,0.0,0.0,0.0,0.0,0.0,0.0,0.0,0.0,0.0,0.0,0.0,0.0,0.0,0.0,3.5838,3.8098,0.0,3.7633,3.9021,4.0019,4.0018,4.2402,4.402,4.4426,4.603,4.7238,4.789,4.7906,4.8469,4.9637,4.9072,4.9072,4.9637,4.9116,4.8865,4.8865,4.8852,4.8852,4.8865,4.8829,4.863,4.8271,4.7087,4.5227,4.3089,4.2523,4.2118,4.1886,4.2146,4.2614,4.3118,4.2828,4.3116,4.3479,4.2668,4.1639,4.0742,4.1007,4.083,4.0637,4.1261,4.2258,4.3352,4.4269,4.4934,4.5539,4.6143,4.6298,4.6296,4.6294,4.6027,4.5607,4.5016,4.3952,4.2593,4.0934,4.1576,4.1891,4.063,4.2252,4.3928,4.4767,4.5713,4.6304,4.6301,4.6303,4.6168,4.5856,4.5328,4.4589,4.3637,4.2174,4.0939,4.0004,3.9091,3.8868,3.9419,3.9048,3.6973,0.0,0.0,0.0,0.0,0.0,0.0,0.0,0.0,0.0,0.0,0.0,0.0,0.0,0.0,0.0,0.0,0.0,0.0,0.0,0.0,0.0,0.0,0.0,0.0,0.0,3.6195,3.8808,3.8554,4.1306,4.2789,4.1657,4.3083,4.4334,4.4921,4.6825,4.8105,4.8444,4.9789,5.055,5.0553,5.0275,5.0389,5.0974,5.0116,4.9979,5.0525,5.0003,4.9732,4.9732,4.9737,4.9566,4.9256,4.9544,4.9327,4.8763,4.9171,4.8149,4.6265,4.5684,4.5277,4.5024,4.5019,4.5196,4.5355,4.4773,4.4951,4.5246,4.4099,4.3358,4.2929,4.293,4.3281,4.3711,4.371,4.4548,4.5444,4.5444,4.587,4.6295,4.6291,4.6309,4.6307,4.6302,4.6037,4.5895,4.6239,4.5322,4.4049,4.26,4.3577,4.4224,4.3242,4.4388,4.5437,4.5714,4.6037,4.6123,4.5832,4.6098,4.6301,4.6301,4.5219,4.437,4.3985,4.2015,4.0706,4.0333,3.9177,3.8936,3.9786,4.0055,3.8424,3.4828,0.0,0.0,0.0,0.0,0.0,0.0,0.0,0.0,0.0,0.0,0.0,0.0,0.0,0.0,0.0,0.0,0.0,0.0,0.0,0.0,0.0,0.0,0.0,3.6028,3.9749,4.2187,4.1405,4.5076,4.7028,4.5363,4.6756,4.8476,5.0194,5.1049,5.1847,5.2707,5.3503,5.3953,5.3958,5.3138,5.2689,5.2689,5.1867,5.1437,5.1437,5.1418,5.1398,5.1398,5.1398,5.0879,5.0001,5.0976,5.0371,4.878,4.9805,4.9721,4.8929,4.8878,4.8349,4.7602,4.7563,4.7035,4.6295,4.6282,4.6286,4.6307,4.6307,4.6307,4.6308,4.6308,4.6308,4.6308,4.6304,4.6297,4.6312,4.6332,4.6345,4.6359,4.6379,4.6379,4.6379,4.6359,4.5586,4.5174,4.6118,4.6301,4.5994,4.5019,4.5608,4.5871,4.4906,4.548,0.0,4.4867,4.5545,4.5774,4.4941,4.5691,4.6261,4.6301,4.4636,4.3895,4.462,4.2251,4.1156,4.1836,4.0328,3.9863,4.0693,3.9886,3.9889,4.0781,0.0,0.0,0.0,0.0,0.0,0.0,0.0,0.0,0.0,0.0,0.0,0.0,0.0,0.0,0.0,0.0,0.0,0.0,0.0,0.0,0.0,3.6975,3.9433,3.8812,4.1888,4.4609,4.5682,4.7945,4.9466,4.9621,5.0658,5.1753,5.2866,5.3157,5.3391,5.3625,5.3124,5.2843,5.2841,5.2606,5.2489,5.2489,5.2382,5.2334,5.233,5.1694,5.1402,5.1398,5.1402,5.1249,5.0996,5.1288,5.1111,5.0641,5.0957,5.0566,4.9643,4.8427,4.7802,4.7529,4.6894,4.651,4.6287,4.6121,4.6179,4.6306,4.6306,4.6306,4.6306,4.6304,4.6304,4.6304,4.6298,4.6295,4.6447,4.7086,4.7238,4.7392,4.7978,4.8115,4.7959,4.7372,4.7033,4.6736,4.6376,4.6301,4.6219,4.5934,4.609,4.6185,4.5898,4.6053,4.6131,4.5898,4.6082,4.6147,4.5914,4.5533,4.5555,4.624,4.4634,4.3698,4.3891,4.2538,4.1524,4.1045,4.1054,4.1794,4.3327,4.1323,4.0442,0.0,0.0,0.0,0.0,0.0,0.0,0.0,0.0,0.0,0.0,0.0,0.0,0.0,0.0,0.0,0.0,0.0,0.0,0.0,0.0,0.0,0.0,4.0091,4.2904,4.3533,4.5643,4.7519,4.8553,5.0486,5.1931,5.2439,5.3279,5.4157,5.5017,5.5094,5.5095,5.5097,5.4509,5.3947,5.3493,5.3566,5.3391,5.2944,5.3138,5.3242,5.3242,5.2734,5.2305,5.1933,5.1933,5.1521,5.0808,5.1228,5.1152,5.0798,5.1227,5.1093,5.0508,0.0,0.0,0.0,0.0,4.6831,4.6777,4.629,4.6445,4.6789,4.6419,4.6303,4.6303,4.63,4.6232,4.6179,4.6163,4.6137,4.6292,4.7231,4.7471,4.7694,4.8598,4.8798,4.8584,4.7763,4.7556,4.7276,4.6453,4.6249,0.0,4.6298,4.6271,4.6234,4.6171,4.6167,4.603,4.5682,4.5971,4.6078,4.5709,4.5553,4.5717,4.624,4.4648,0.0,0.0,0.0,4.1756,4.1136,4.1492,0.0,0.0,0.0,4.1007,4.1877,3.9927,0.0,0.0,3.857,3.7399,0.0,0.0,0.0,0.0,0.0,0.0,0.0,0.0,0.0,0.0,0.0,0.0,0.0,0.0,0.0,0.0,4.3145,4.6364,4.8828,5.0098,5.0742,5.0644,5.2617,5.4043,5.414,5.4843,5.5664,5.6523,5.6601,5.6601,5.6593,5.6483,0.0,0.0,0.0,5.4815,5.3859,5.4048,5.4148,5.4142,5.4051,5.3546,5.2708,5.2708,5.1732,5.0128,5.1012,5.0894,5.0131,5.1034,5.1341,5.1168,5.0307,4.9471,4.8651,4.7754,4.7422,4.7341,4.6533,0.0,0.0,4.6671,4.6459,4.646,4.6549,4.6386,4.6206,4.6291,4.6153,4.6244,4.7349,4.7624,4.7861,4.8865,4.909,4.8835,4.7938,4.7636,4.7306,4.645,4.6194,4.6159,4.6276,4.6256,4.6174,4.6042,4.6031,4.5758,4.4986,4.5616,4.5821,4.5046,4.5671,0.0,4.628,4.4643,4.389,4.4573,4.2995,4.2028,4.1974,4.1989,4.1701,4.1108,4.1108,4.1952,4.3721,4.3721,4.4582,4.6072,4.0641,3.9773,0.0,0.0,0.0,0.0,0.0,0.0,0.0,0.0,0.0,0.0,0.0,0.0,0.0,0.0,0.0,4.2371,4.6403,4.957,5.0758,5.2871,5.4041,5.3358,5.3709,5.4275,5.4975,5.5209,5.5658,5.6537,5.6597,5.6596,5.6593,5.5777,5.5204,5.5013,5.5037,5.4961,5.4757,5.4947,5.5051,5.5035,5.4348,0.0,5.2692,5.2692,5.2122,5.1115,5.1318,5.1281,5.1124,5.1328,5.0991,5.0272,4.9447,4.8612,4.7734,4.669,4.6419,4.6494,4.6162,4.6268,4.6637,4.7163,4.7359,4.7477,4.8119,4.7839,0.0,4.8081,4.7779,4.7614,4.9168,4.9555,4.9788,5.0688,5.09,5.0467,4.8913,4.8558,4.8088,4.6592,4.6276,4.6273,4.6299,4.6296,4.627,4.624,4.6239,4.6181,4.6006,4.6148,4.6192,4.6036,4.5514,4.5475,4.624,4.4631,4.3924,4.4713,4.3615,4.3185,4.3693,4.3778,4.4101,4.476,4.4767,4.5062,4.5651,4.5651,4.5864,4.6242,4.5014,4.4792,0.0,0.0,0.0,0.0,0.0,0.0,0.0,0.0,0.0,0.0,0.0,3.5427,3.7974,0.0,4.2644,4.5703,4.8401,5.0713,5.2461,5.4197,5.5133,5.4706,5.5036,5.5463,5.5909,5.5948,5.6124,5.6573,5.6593,5.659,5.6543,5.6076,5.5549,5.5022,5.5516,5.5539,5.5,5.5632,5.5937,5.5898,5.5058,5.4182,5.3346,5.2897,5.2212,5.1408,5.1408,5.1644,5.2077,5.2514,5.2447,5.1921,5.0647,4.9345,4.8194,4.8098,4.7844,4.748,4.6973,4.7131,4.7483,4.7079,4.7213,4.7541,4.7547,4.7199,4.6877,4.7288,4.7349,4.7624,4.898,4.9669,5.0243,5.1184,5.1407,5.1037,4.9733,4.9794,4.9599,4.7881,4.7549,4.7412,4.7022,4.6593,4.6301,4.6301,4.6301,4.6301,4.6301,4.6301,4.6301,4.6301,4.5878,4.5797,4.6261,4.5379,4.4941,4.5272,4.4725,4.455,4.4883,4.4938,4.5218,4.5789,4.5792,4.5907,4.6094,4.6094,4.6177,4.6292,4.6236,4.6207,0.0,0.0,0.0,0.0,0.0,0.0,0.0,3.3922,3.4996,3.6201,3.8073,4.0296,4.2863,4.4131,4.5822,4.9049,5.039,5.1782,5.3955,5.499,5.5559,5.5546,5.6167,5.6591,5.6609,5.6608,5.6608,5.6608,5.6608,5.6584,5.6528,5.6563,5.6192,5.5342,5.6156,5.6199,5.5318,5.6166,5.6561,5.6511,5.586,5.5103,5.4225,5.3523,5.2645,5.1648,5.1648,5.2059,5.2762,5.3639,5.3795,5.3366,5.1941,5.0321,4.8898,4.9594,4.9395,4.8716,4.8052,4.8143,4.8351,4.7172,4.7112,4.744,4.6923,4.6561,4.6371,4.6704,4.7052,4.7637,4.8833,4.9651,5.0373,5.1205,5.14,5.1152,5.0296,5.0649,5.0689,4.9111,4.8662,4.8408,4.7919,4.712,4.6495,4.634,4.6301,4.6358,4.6512,4.6397,4.6358,4.6512,4.6397,4.6301,4.6301,4.6155,4.5992,4.5847,4.5757,4.5698,4.5668,4.5653,4.5711,4.5864,4.5867,4.5913,4.6059,4.6052,4.6125,4.6275,4.6232,4.6202,3.2322,3.1894,3.2336,3.3882,3.4349,3.5596,0.0,4.0117,3.9844,4.2202,4.2927,4.3905,4.6534,4.8309,5.0007,5.1941,5.364,5.4815,5.5114,5.5908,5.645,5.6457,5.655,5.6599,5.6591,5.6609,5.6609,5.6609,5.6609,5.6608,5.6585,5.6608,5.6546,5.6419,5.6544,5.6544,5.6419,5.6543,5.6605,5.6583,5.6507,5.6001,5.5143,5.5045,5.4109,5.2547,5.2547,5.2606,5.2762,5.3639,5.3093,5.1668,5.1472,5.0321,4.8818,4.8918,4.8872,4.878,4.8702,4.8215,4.7746,4.8332,4.8104,4.7702,4.833,4.8014,4.7734,4.9218,4.9145,4.8974,5.0643,5.1114,5.1193,5.1352,5.1349,5.1094,5.028,5.0188,4.9957,4.8992,4.8212,4.7938,4.8564,4.7997,4.7197,4.6417,4.6301,4.6551,4.7262,4.6743,4.657,4.7281,4.6724,4.6301,4.6301,4.6287,4.6174,4.6,4.6024,4.5998,4.5877,4.5878,4.5925,4.6059,4.6061,4.6138,4.6273,4.6212,4.6185,4.6211,4.6201,4.6201,3.5819,3.5878,3.6187,3.7419,3.8456,3.9746,4.1914,4.2637,4.3301,4.4883,4.6385,4.7907,4.9527,5.035,5.1545,5.3849,5.432,5.4818,5.5899,5.6364,5.6419,5.5896,5.5676,5.5549,5.5558,5.6185,5.6312,5.5603,5.6206,5.6605,5.6605,5.6605,5.6605,5.6605,5.6605,5.6605,5.6605,5.6605,5.6605,5.6585,5.6098,5.5396,5.4537,5.4011,5.3386,5.2723,5.325,5.3463,5.3481,5.3763,5.3164,5.1997,5.1486,5.0506,4.9327,4.8899,4.8724,4.8684,4.8688,4.8396,4.8026,4.8034,4.8138,4.8221,4.8125,4.8192,4.8446,4.9149,4.9448,4.9728,5.0458,5.0967,5.132,5.1383,5.1378,5.1274,5.0924,5.0851,5.0752,5.0378,4.9627,4.9166,4.9492,4.8852,4.8174,4.7803,4.7744,4.7877,4.8216,4.7964,4.7885,4.8223,4.7493,4.6993,4.6993,4.6567,4.6236,4.6073,4.6087,4.6072,4.6016,4.6024,4.6087,4.6212,4.6214,4.6217,4.6243,4.6212,4.6199,4.62,4.6164,4.6133,3.7969,3.8572,3.9195,4.0308,4.1854,4.3242,4.3691,4.4961,4.6308,4.7168,4.8826,5.0441,5.1555,5.1919,5.2756,5.4953,5.4888,5.4967,5.6075,5.6235,5.5876,5.4914,5.4593,5.4276,5.3823,5.5196,5.5885,5.5336,5.6101,5.6605,5.6605,5.6605,5.6582,5.6575,5.6575,5.6553,5.6545,5.6545,5.6545,5.6545,5.5902,5.5278,5.4613,5.3521,5.3038,5.3044,5.3419,5.3574,5.3596,5.3701,5.2968,5.1691,5.1057,4.9963,4.8663,4.8105,4.8195,4.8596,4.8827,4.8549,4.8045,4.7831,4.8029,4.8292,4.7982,4.832,4.8857,4.9091,4.9605,5.0154,5.0394,5.0884,5.1317,5.1357,5.1375,5.137,5.1379,5.1364,5.1362,5.1364,5.0677,5.0239,5.0716,4.9864,4.9286,4.9773,4.9636,4.9404,4.9189,4.9167,4.9064,4.8824,4.8244,4.7857,4.7857,4.7324,4.6848,4.6515,4.6497,4.6401,4.6168,4.6139,4.6176,4.6272,4.6267,4.6255,4.6195,4.6186,4.6169,4.6162,4.6098,4.6075,3.7554,3.8524,4.0176,4.1897,4.3638,4.536,4.6964,4.8042,4.8922,4.9798,5.0051,5.0613,5.2337,5.3346,5.4224,5.5143,5.598,5.6233,5.5455,5.5338,5.4898,5.3704,5.3561,5.294,5.136,5.3428,5.5316,5.646,5.6584,5.6605,5.6605,5.6605,5.6575,5.6504,5.6504,5.647,5.6411,5.6411,5.6411,5.6411,5.6373,5.6353,5.6275,5.4617,5.3857,5.3806,5.286,5.2496,5.2608,5.3308,5.2136,4.9882,4.9843,4.8283,4.6005,4.5925,4.6994,4.8607,4.9408,4.8596,4.7378,4.8196,4.7996,4.7599,4.8415,4.8737,4.8974,4.9812,5.0077,5.03,5.1145,5.1325,5.1309,5.1308,5.13,5.1309,5.1306,5.13,5.1309,5.1306,5.0601,5.0544,5.2238,5.1107,5.0544,5.2238,5.177,5.0933,5.0161,5.0058,4.9742,4.8894,4.8787,4.876,4.876,4.8733,4.8369,4.7511,4.7521,4.7175,4.6338,4.6239,4.6206,4.6209,4.62,4.6201,4.6199,4.6121,4.61,4.6098,4.6027,4.6002,3.9131,4.1076,4.2806,4.4544,4.6253,4.7797,4.88,4.8837,4.8889,4.968,4.8906,4.8476,4.9686,5.051,5.1553,5.3184,5.3911,5.4513,5.5208,5.4371,5.3515,5.3031,5.2505,5.2144,5.2094,5.3216,5.3991,5.4132,5.5137,5.5981,5.6566,5.657,5.6514,5.6503,5.6461,5.6422,5.6407,5.6407,5.6407,5.6388,5.5801,5.5546,5.5507,5.4396,5.3807,5.3589,5.2716,5.2277,5.2146,5.1718,5.037,4.8597,4.8569,4.728,4.5637,4.6821,4.7244,4.7302,4.7758,4.784,4.7823,4.8322,4.8724,4.9063,4.9393,4.9986,5.0594,5.0886,5.0957,5.1028,5.1323,5.1351,5.1316,5.1354,5.1304,5.125,5.1297,5.1306,5.1286,5.1239,5.1494,5.1723,5.173,5.2165,5.2541,5.2584,5.1853,5.1191,5.094,5.0864,5.0715,5.0427,4.9909,4.9602,4.9602,4.9073,4.8362,4.7486,4.7452,4.7106,4.627,4.6203,4.6196,4.6196,4.6204,4.6185,4.6138,4.6108,4.6076,4.6038,4.5961,4.5922,4.146,4.3383,4.4906,4.6975,4.8287,4.921,4.9621,4.9571,4.9291,4.8862,4.8139,4.7553,4.7531,4.8114,4.9038,5.0357,5.1001,5.1896,5.3472,5.2538,5.1954,5.2728,5.201,5.1732,5.2461,5.2936,5.3178,5.3039,5.4291,5.5297,5.5862,5.5836,5.6007,5.6422,5.6396,5.6354,5.6354,5.6354,5.6217,5.5887,5.5028,5.4755,5.5023,5.4127,5.3601,5.3329,5.2469,5.1806,5.13,5.0682,4.9607,4.836,4.8311,4.7425,4.6325,4.7489,4.7555,4.7101,4.7582,4.786,4.8092,4.862,4.9239,4.9868,5.0182,5.0816,5.1401,5.1401,5.1389,5.1355,5.136,5.1328,5.1294,5.1312,5.1282,5.1244,5.1264,5.1504,5.1711,5.1635,5.2375,5.2823,5.2244,5.3049,5.3582,5.3062,5.2524,5.1943,5.1373,5.126,5.1244,5.1244,5.0741,5.0432,5.0432,4.9947,4.9122,4.7932,4.8154,4.7694,4.6256,4.6475,4.6487,4.6177,4.6142,4.6117,4.6056,4.6059,4.6027,4.596,4.592,4.5908,4.418,4.5244,4.65,4.8987,4.9634,4.9644,4.9606,5.0162,4.9976,4.7417,4.7506,4.7493,4.5722,4.6183,4.6878,4.6998,4.7721,4.8894,5.0667,5.0172,5.0469,0.0,0.0,0.0,0.0,0.0,5.2906,5.3239,5.4107,5.4629,5.4668,5.4664,5.5168,5.6269,5.6283,5.6291,5.6295,5.6256,5.5803,5.4977,5.411,5.4106,5.4867,5.3805,5.3245,5.3063,5.2052,5.1086,5.0189,5.0254,4.9776,4.8988,4.8988,4.8491,4.7796,4.7834,4.7853,4.7979,4.8843,4.8672,4.8188,4.9027,4.9539,4.997,5.0735,5.1164,5.1362,5.1362,5.1339,5.1288,5.1289,5.1287,5.1282,5.1215,5.1247,5.129,5.128,5.191,5.2494,5.2477,5.3109,5.3672,5.3808,5.375,5.3711,5.375,5.3769,5.3189,5.1555,5.1354,5.1343,5.1304,5.1242,5.1186,5.1147,5.123,5.0523,4.8745,4.9449,4.8801,4.629,4.6928,4.6943,4.6111,4.6025,4.6003,4.5994,4.5991,4.5958,4.5908,4.5905,4.5886,4.3607,4.6111,4.8775,4.944,5.0051,5.0309,4.9554,4.8574,4.7093,4.444,4.3566,4.2563,4.0258,4.2424,4.4844,4.5758,4.7838,5.004,5.2085,5.1788,0.0,5.2805,0.0,5.2391,5.2885,5.35,5.3555,5.2759,5.398,5.5029,5.567,5.5677,5.5847,5.6289,5.6105,5.6101,5.6291,5.565,5.5135,5.4762,5.3886,5.351,5.3555,5.2632,5.2121,5.1883,5.0987,5.0357,4.9987,4.9993,4.9517,4.8777,4.8777,4.8239,4.758,4.8295,4.8542,4.8662,4.9548,4.9358,4.8791,4.9001,4.9634,5.0353,5.0565,5.0743,5.0882,5.0882,5.0977,5.1089,5.1081,5.1152,5.1218,5.1191,5.1202,5.1389,5.1977,5.2269,5.2602,5.3248,5.3012,5.3342,5.5304,5.4566,5.3925,5.4563,5.4679,5.405,5.2333,5.2117,5.1897,5.1295,5.1209,5.0934,5.0295,5.0845,5.0206,4.7813,4.8465,4.8081,4.6139,4.6241,4.6243,4.603,4.6014,4.5972,4.5923,4.5938,4.5919,4.589,4.5844,4.5834,4.5944,4.7944,4.9953,4.9953,4.9996,4.9526,4.7477,4.6589,4.5114,4.1382,4.0796,4.0304,3.8159,4.0103,4.2387,4.3479,4.5842,4.8464,5.1113,5.1207,5.1684,0.0,5.3269,0.0,5.3994,5.4372,5.4288,5.3596,5.4054,5.4569,5.5056,5.5142,5.5455,5.6096,5.6082,5.5931,5.5645,5.4754,5.4022,5.3469,5.2554,5.2274,5.2511,5.1923,5.157,5.1388,5.0862,5.0309,4.9816,4.9878,4.9627,4.9229,4.9229,4.8919,4.8566,4.9098,4.9282,4.9346,4.9834,4.974,4.9415,4.95,4.9964,5.0491,5.0491,5.0564,5.0661,5.0661,5.072,5.0778,5.0778,5.0831,5.0919,5.1043,5.1338,5.1654,5.1831,5.2756,5.3805,5.4663,5.4135,5.4135,5.5981,5.5168,5.4563,5.5437,5.5573,5.5087,5.3727,5.2873,5.2232,5.1766,5.1413,5.1008,5.0506,5.0911,5.0248,4.8017,4.8696,4.8214,4.6096,4.6702,4.6746,4.6016,4.6348,4.6328,4.5906,4.5909,4.587,4.5854,4.5814,4.5803,4.9065,4.9787,5.0396,5.0396,4.9649,4.8119,4.4966,4.4494,4.3331,3.8452,3.8629,3.9132,3.7496,3.8597,4.0128,4.1263,0.0,4.6206,4.9355,5.0026,5.1374,5.4544,5.4016,5.3887,5.5127,5.4907,5.4758,5.4897,5.4313,5.3972,5.4006,5.4153,5.4737,5.5788,5.6079,5.5791,5.4935,5.3889,5.291,5.2021,5.0962,5.0845,5.1535,5.1367,5.1224,5.111,5.1059,5.0523,4.9736,4.985,4.9905,4.9905,4.9905,4.9905,4.9905,4.9905,4.9905,4.9905,4.9905,4.9905,4.9939,5.0101,5.0283,5.0425,5.0425,5.0452,5.0505,5.0505,5.0481,5.0465,5.0465,5.049,5.0558,5.0784,5.1381,5.1811,5.1554,5.3424,5.5398,5.6155,5.5592,5.5236,5.5961,5.5469,5.5213,5.5977,5.6187,5.6,5.5278,5.3747,5.2698,5.2581,5.194,5.1432,5.1216,5.129,5.0572,4.8705,4.9407,4.8824,4.6435,4.7721,4.7804,4.6351,4.6903,4.6813,4.6064,4.5948,4.5857,4.5803,4.5803,4.5803,4.8411,4.9255,5.0314,5.0314,4.9167,4.7505,4.5542,4.3067,4.014,3.6426,3.5934,3.5835,3.4766,3.6939,3.9626,4.185,4.4732,4.7557,5.0014,5.1743,5.3193,0.0,5.3796,5.3761,5.4866,5.4121,5.397,5.4906,5.4855,5.4865,5.5027,5.5065,5.5192,5.5393,5.5654,5.5721,5.5557,5.4005,5.306,5.2705,5.1036,5.0242,5.0228,5.0195,5.0162,5.0135,5.0127,5.0024,4.9871,4.9898,4.9905,4.9905,4.9905,4.9905,4.9905,4.9905,4.9905,4.9905,4.9905,4.9905,4.9912,4.9933,4.9986,4.9993,4.9993,5.0012,5.0013,5.0013,5.0129,5.0245,5.0245,5.0373,5.05,5.0558,5.0682,5.1181,5.2682,5.4622,5.6117,5.6275,5.5592,5.4993,5.4979,5.4847,5.4804,5.4955,5.5544,5.599,5.6065,5.5184,5.4271,5.3556,5.3342,5.2669,5.1244,5.1781,5.1147,4.8674,4.9337,4.9298,4.8108,4.8354,4.8338,4.7982,4.7475,4.7106,4.6897,4.6162,4.581,4.5803,4.5803,4.5803,4.885,4.9546,5.0303,4.9838,4.8433,4.639,4.3436,4.0837,3.8089,3.4653,3.3941,3.3937,3.3859,3.5766,3.8319,4.1296,4.3744,4.6399,4.957,5.1212,5.2537,5.375,5.3965,5.4036,5.4056,5.3624,5.3591,5.4141,5.4167,5.4482,5.5158,5.5307,5.5407,5.5504,5.5596,5.5208,5.4257,5.384,5.2878,5.1382,5.0932,5.0423,4.9905,4.9905,4.9905,4.9905,4.9905,4.9864,4.9795,4.9878,4.9864,4.9795,4.9878,4.9905,4.9905,4.9905,4.9905,4.9905,4.9905,4.9905,4.9905,4.9905,4.9905,4.9905,4.9905,4.9905,4.9905,4.9905,4.9967,5.0044,5.0044,5.0118,5.021,5.0328,5.0842,5.1835,5.3672,5.4895,5.5767,5.6214,5.5961,5.5607,5.5372,5.5436,5.5482,5.5356,5.5765,5.6155,5.6285,5.5534,5.4679,5.3789,5.3284,5.252,5.1259,5.1547,5.1056,4.9332,4.9585,4.9417,4.8541,4.8936,4.8929,4.8407,4.8468,4.8261,4.7773,4.6943,4.6528,4.6528,4.6528,4.6538,4.9327,4.9907,5.0273,4.9416,4.7735,4.5301,4.1543,3.8946,3.6458,3.3421,3.2457,3.2447,3.3377,3.4527,3.6561,0.0,4.2085,4.4505,4.8725,5.0229,5.1522,5.3232,5.4007,0.0,5.3723,5.3531,5.3513,5.377,5.3804,5.4184,5.5028,5.5229,5.5369,5.5525,5.5491,5.479,5.3364,5.3563,5.2615,5.0537,5.0804,5.0561,4.9905,4.9905,4.9905,4.9905,4.9905,4.9823,4.9707,4.9843,4.9816,4.9714,4.985,4.9905,4.9905,4.9905,4.9905,4.9874,4.9696,4.976,4.9874,4.9696,4.976,4.9905,4.9905,4.9905,4.9905,4.9905,4.9905,4.9905,4.9905,4.9905,4.9959,5.0141,5.1144,5.2474,5.4071,5.4721,5.5262,5.6136,5.6295,5.6229,5.5968,5.6087,5.6147,5.5956,5.5928,5.5957,5.5987,5.5252,5.4398,5.3504,5.2986,5.2345,5.152,5.1462,5.109,5.0213,5.0109,4.976,4.9097,4.9718,4.973,4.8982,4.947,4.9282,4.8417,4.7594,4.72,4.7194,4.72,4.7291,4.9047,4.9792,5.0213,4.9405,4.7242,4.4678,4.2148,0.0,3.4931,3.3168,3.1541,3.0895,3.2436,3.2822,3.4461,3.9169,0.0,4.285,4.7722,4.9848,5.1541,5.3271,0.0,0.0,5.4833,5.4063,5.3911,5.4958,5.5159,5.5157,5.5021,5.5028,5.5021,5.4978,5.5023,5.4988,5.4814,5.3363,5.2513,5.2246,5.0735,4.9981,4.9905,4.9905,4.9905,4.9905,4.9905,4.9823,4.9707,4.9843,4.9816,4.9714,4.985,4.9905,4.9905,4.9905,4.9905,4.9798,4.9052,4.9279,4.9772,4.9052,4.9298,4.9905,4.9905,4.9905,4.9905,4.9905,4.9905,4.9905,4.9905,4.9905,4.9959,5.0141,5.1031,5.2131,5.3268,5.4294,5.5262,5.6136,5.6295,5.6232,5.6024,5.5956,5.5956,5.5994,5.5283,5.4814,5.5008,5.4323,5.3489,5.2612,5.3168,5.3233,5.236,5.2279,5.1917,5.1033,5.0988,5.0945,5.0868,5.0945,5.0942,5.0842,5.0147,4.9369,4.849,4.7621,4.7204,4.7194,4.7204,4.7627,4.7601,4.9085,5.0081,4.875,4.6423,4.3834,4.1407,0.0,3.4159,3.2974,3.135,3.0486,3.161,3.1825,3.3245,3.7635,3.8167,0.0,4.5475,4.6824,4.8438,5.1736,5.256,5.3159,5.3933,5.366,5.3634,5.4082,5.4641,5.4981,5.5,5.5042,5.5035,5.4956,5.4953,5.4699,5.4225,5.4035,5.3447,5.2442,5.2262,5.1661,5.0675,5.0675,5.0398,4.9905,4.9905,4.9802,4.9648,4.983,4.9795,4.9656,4.983,4.9905,4.9905,4.9905,4.9932,4.9851,4.9035,4.9004,4.9157,4.8321,4.8574,4.9313,4.9767,4.9905,4.9905,4.9905,4.9905,5.0032,5.0604,5.075,5.0651,5.0287,5.1015,5.1953,5.2502,5.3457,5.4313,5.4663,5.5165,5.5452,5.5256,5.5269,5.5448,5.5874,5.4866,5.4276,5.4883,5.4213,5.3359,5.2482,5.2711,5.2578,5.1744,5.1686,5.1525,5.1182,5.1124,5.1105,5.1097,5.1101,5.1075,5.105,5.0742,5.0406,5.007,4.9181,4.8758,4.8765,4.8758,4.8964,4.587,4.788,4.9288,4.7602,4.5221,4.2704,4.045,3.6654,3.344,3.284,3.1314,3.0277,3.081,3.0903,3.2157,3.6035,3.6558,3.8353,4.3723,4.5092,4.6764,5.0062,5.1216,5.2099,5.301,5.3577,5.3883,5.3861,5.4458,5.4867,5.4963,5.5023,5.505,5.4963,5.4931,5.4636,5.4067,5.4389,5.3946,5.279,5.315,5.2541,5.1116,5.1178,5.0704,4.9843,4.9885,4.9795,4.9634,4.9823,4.9788,4.9641,4.983,4.9905,4.9905,4.9905,4.9939,4.9827,4.8783,4.8612,4.8726,4.7851,4.8124,4.8935,4.9679,4.9905,4.9905,4.9905,4.9905,5.0051,5.0705,5.089,5.0779,5.0381,5.087,5.1558,5.2078,5.279,5.3381,5.3653,5.4407,5.5035,5.5141,5.5255,5.5551,5.6296,5.507,5.4191,5.4563,5.4084,5.3365,5.2488,5.24,5.2076,5.1277,5.1199,5.1199,5.1199,5.1162,5.1137,5.1131,5.1137,5.1108,5.1058,5.1098,5.0966,5.0707,5.0099,4.9792,4.976,4.9792,4.9953,4.3987,4.618,4.7626,4.5941,4.3568,4.1184,3.9491,3.5791,3.2714,3.2699,3.1302,3.0079,3.0022,2.9967,3.1021,3.4391,3.6316,3.8815,4.2944,4.5671,4.7634,4.8617,4.9444,5.0629,5.2423,5.4104,5.5047,5.4981,5.5052,5.505,5.4909,5.4956,5.4963,5.4901,5.4901,5.4901,5.4901,5.4105,5.3707,5.3688,5.2828,5.1885,5.0914,5.1116,5.0648,4.9707,4.9843,4.9823,4.9707,4.9843,4.9816,4.9714,4.985,4.9905,4.9905,4.9905,4.9905,4.9672,4.8068,4.8068,4.8663,4.7783,4.8093,4.8935,4.9679,4.9905,4.9905,4.9905,4.9905,4.9905,4.9912,4.9912,5.0012,5.0404,5.051,5.0853,5.2117,5.2407,5.2662,5.3536,5.4407,5.5259,5.6136,5.6272,5.6586,5.7441,5.6032,5.4595,5.3815,5.3718,5.3366,5.2489,5.2405,5.2076,5.1277,5.1199,5.1199,5.1199,5.1199,5.1199,5.1199,5.1199,5.1199,5.1199,5.1133,5.0688,4.9811,4.9799,4.9762,4.9704,4.9765,5.0271,4.0697,4.2302,4.3283,4.1566,4.0083,3.8769,3.7591,3.4932,3.2695,3.2642,3.1241,3.0038,2.9992,2.9951,3.1193,3.5154,3.6159,3.8137,4.2954,4.4764,4.6516,4.9027,5.1559,5.3384,5.4107,5.4485,5.475,5.4931,5.4773,5.4742,5.4894,5.4923,5.4923,5.4901,5.4901,5.4901,5.4901,5.4655,5.4231,5.3707,5.3992,5.2983,5.0933,5.1684,5.1178,4.9707,4.9843,4.985,4.9778,4.9864,4.9843,4.9778,4.9871,4.9905,4.9905,4.9905,4.9939,4.9738,4.813,4.8136,4.8637,4.7214,4.7686,4.8846,4.9074,4.9509,4.9905,4.9905,5.0356,5.0705,5.007,5.0382,5.0805,5.0549,5.0491,5.0699,5.1415,5.2484,5.3187,5.2876,5.3999,5.4893,5.4585,5.4527,5.5022,5.6486,5.5217,5.4427,5.5362,5.4955,5.4255,5.3385,5.3818,5.3591,5.2135,5.1513,5.1199,5.1199,5.1199,5.1171,5.1133,5.1171,5.1171,5.1133,5.1162,5.1,5.0688,5.0697,5.0688,5.0655,5.0688,5.0865,3.7488,3.912,4.0065,3.8926,3.7594,3.6461,3.6127,3.3838,3.1852,3.2077,3.1515,3.0774,3.0101,3.0442,3.1695,3.4349,3.5757,3.7853,4.1661,4.3914,4.6125,4.8686,5.148,5.3361,5.3793,5.4328,5.4714,5.4886,5.4737,5.4722,5.4894,5.4901,5.4901,5.4901,5.4901,5.4901,5.4901,5.4901,5.4503,5.3707,5.4219,5.3191,5.0914,5.1627,5.1121,4.9707,4.9843,4.9878,0.0,4.9885,4.9878,4.9836,4.9885,4.9905,4.9905,4.9905,4.9932,4.9789,4.8504,4.8415,4.8688,4.764,4.8175,4.9213,4.9213,4.954,4.9905,4.9905,5.0318,5.0642,5.0051,5.0398,5.0829,5.057,5.0572,5.0748,5.1118,5.2526,5.3536,5.2992,5.4291,5.532,5.4779,5.4683,5.5162,5.6583,5.5871,5.5437,5.6194,5.6117,5.565,5.4779,5.4873,5.4563,5.3475,5.2329,5.1513,5.1219,5.1199,5.1174,5.1136,5.1171,5.1171,5.1133,5.1142,5.115,5.1095,5.1063,5.1085,5.1095,5.1095,5.1114,0.0,3.628,3.7514,3.7328,3.5697,3.4282,3.4902,3.2612,0.0,3.1257,3.202,3.2083,3.0391,3.1504,3.2651,3.268,3.5427,3.8096,3.9573,4.3339,4.6519,4.8106,4.9977,5.1439,5.222,5.3864,5.4901,5.4901,5.4901,5.4901,5.4901,5.4901,5.4901,5.4901,5.4901,5.4901,5.4901,5.4837,5.4401,5.3591,5.3662,5.2672,5.0805,5.1128,5.0705,4.9707,4.9843,4.9905,4.9905,4.9905,4.9905,4.9905,4.9905,4.9905,4.9886,4.9836,4.9855,4.9786,4.8985,4.8796,4.8878,4.8878,4.9332,4.9905,4.9905,4.9905,4.9905,4.9905,4.9905,4.9905,4.9905,5.0051,5.0264,5.0537,5.0782,5.1052,5.133,5.2759,5.3944,5.3828,5.5207,5.6353,5.6233,5.6253,5.6583,5.746,5.7632,5.7415,5.666,5.7224,5.7379,5.6563,5.5709,5.5123,5.5006,5.3397,5.2076,5.1335,5.1238,5.1238,5.1277,5.1238,5.1199,5.1199,5.1133,5.1098,5.1101,5.1046,5.105,5.1101,5.1101,5.1105,2.9767,0.0,3.2124,3.1477,3.1826,3.2342,0.0,3.1824,0.0,0.0,0.0,3.2389,3.1969,3.3719,3.5252,3.5305,3.7558,3.9617,4.0495,4.4548,4.8323,5.0776,5.2559,5.3723,5.4121,5.4614,5.4901,5.4901,5.4901,5.4901,5.4901,5.4901,5.4901,5.4901,5.4901,5.4901,5.4901,5.4295,5.3497,5.256,5.3334,5.2318,4.9814,5.138,5.1235,4.9707,4.9843,4.9905,4.9905,4.9905,4.9905,4.9905,4.9905,4.9905,4.9836,4.9263,4.9421,4.9717,4.8352,4.865,4.9647,4.9647,4.9767,4.9905,4.9905,4.9905,4.9905,4.9905,4.9905,4.9905,4.9905,5.0051,5.0423,5.1283,5.1655,5.2059,5.2926,5.4993,5.6295,5.4951,5.61,5.6877,5.5534,5.5822,5.6533,5.7457,5.8088,5.8629,5.914,5.8792,5.8436,5.823,5.748,5.645,5.5103,5.3397,5.2329,5.2135,5.1532,5.1474,5.2096,5.1532,5.1199,5.1199,5.1133,5.1092,5.1105,5.1085,5.1085,5.1105,5.1105,5.1121,2.7096,2.8362,3.0016,3.026,3.0719,3.1278,3.1943,0.0,0.0,0.0,0.0,3.2443,3.1984,3.3614,3.5173,3.5538,3.7349,3.959,4.2144,4.5058,4.7836,5.0295,5.1776,5.2971,5.393,5.4472,5.4799,5.4894,5.4901,5.4901,5.4901,5.4901,5.4901,5.4901,5.4901,5.4901,5.4901,5.4105,5.3213,5.2258,5.2456,5.1516,4.9619,5.0736,5.0728,4.9788,4.9836,4.9871,4.9905,4.9864,4.9871,4.9905,4.9905,4.9905,4.9805,4.9074,4.9263,4.9729,4.8561,4.8909,4.9905,4.9905,4.9905,4.9905,4.9905,4.9905,4.9905,4.9905,4.9905,4.9905,4.9905,5.0124,5.0478,5.1072,5.1738,5.2394,5.2977,5.5168,5.6838,5.6295,5.7246,5.7845,5.6913,5.7096,5.7564,5.8074,5.8796,5.9487,5.9983,5.9638,5.9366,5.9384,5.8284,5.7013,5.5709,5.3999,5.2662,5.1901,5.1785,5.1785,5.1843,5.1435,5.1199,5.1199,5.1133,5.1124,5.1156,5.1124,5.1124,5.1156,5.1156,5.1165,2.5884,2.7454,2.9579,3.0816,3.0668,3.0589,3.2016,0.0,0.0,0.0,0.0,3.2698,3.2094,3.3702,0.0,0.0,3.6837,3.9677,4.4306,4.5751,4.711,4.9229,5.0432,5.168,5.3167,5.4118,5.4719,5.4886,5.4901,5.4901,5.4901,5.4901,5.4901,5.4901,5.4901,5.4837,5.4731,5.4041,5.3228,5.2276,5.1675,5.0816,4.9785,4.9997,5.0038,4.9905,4.9836,4.9843,4.9905,4.983,4.9843,4.9905,4.9905,4.9905,4.9805,4.8928,4.9156,4.9805,4.9175,4.9383,4.9905,4.9905,4.9905,4.9905,4.9905,4.9905,4.9905,4.9905,4.9905,4.9905,4.9905,5.0206,5.0567,5.0822,5.1769,5.2659,5.2931,5.4838,5.6722,5.7463,5.8253,5.8755,5.8642,5.8727,5.8799,5.8799,5.9475,6.0045,6.0188,6.0184,6.0158,6.0088,5.866,5.7316,5.6388,5.4818,5.3187,5.1494,5.1901,5.1901,5.1238,5.1199,5.1199,5.1199,5.1136,5.1136,5.1199,5.1136,5.1136,5.1199,5.1199,5.1199,2.6577,2.7846,2.9264,2.9425,2.9376,2.9541,3.0461,2.9384,0.0,0.0,0.0,0.0,0.0,3.8571,4.0217,0.0,3.9547,4.2874,4.6971,4.8195,4.9523,5.184,5.3114,5.3937,5.4255,5.4631,5.4871,5.4894,5.4901,5.4901,5.4901,5.4901,5.4901,5.4901,5.4901,5.4579,5.3897,5.3757,5.3206,5.222,5.2214,5.1336,4.9733,5.0612,5.0599,4.9905,4.9898,4.9898,4.9905,4.9891,4.9898,4.9905,4.9905,4.9905,4.9736,4.8314,4.8682,4.9874,4.9767,4.9805,4.9905,4.9905,4.9905,4.9905,4.9905,4.9905,4.9905,4.9905,4.9905,4.9905,4.9905,5.0206,5.0861,5.2357,5.3112,5.3905,5.5382,5.6605,5.7444,5.758,5.8253,5.8583,5.7907,5.8342,5.8799,5.8799,5.9432,6.0209,6.1002,6.1051,6.0764,6.0084,5.9164,5.7979,5.6427,5.5378,5.4058,5.2329,5.1688,5.1335,5.1199,5.1199,5.1199,5.1199,5.1196,5.1196,5.1199,5.1196,5.1196,5.1199,5.1199,5.1199,2.6007,2.6887,2.8093,2.9337,3.0074,3.0797,3.193,3.0984,0.0,0.0,0.0,0.0,0.0,0.0,3.9314,3.9987,4.3257,4.6108,4.723,4.852,4.9864,5.119,5.2314,5.3184,5.3697,5.4352,5.4791,5.4894,5.4901,5.4901,5.4901,5.4901,5.4901,5.4901,5.4484,5.4067,5.3707,5.3226,5.2513,5.1559,5.1213,5.0582,4.9776,5.0267,5.0284,4.9905,4.9864,4.9864,4.9905,4.9857,4.9871,4.9905,4.9905,4.9905,4.9798,4.9099,4.8745,4.8668,4.9149,4.9578,4.9836,4.944,4.9578,4.9905,4.9905,4.9905,4.9905,4.9905,4.9905,4.9926,5.0032,5.0284,5.0851,5.2235,5.2782,5.3478,5.5223,5.5537,5.6042,5.7887,5.7826,5.7768,5.8781,5.9251,5.9487,5.9448,6.0106,6.0741,6.1147,6.1164,6.0853,6.0073,5.9673,5.8772,5.7146,5.5767,5.4252,5.2504,5.1649,5.1199,5.1199,5.1199,5.1199,5.1199,5.1199,5.1199,5.1199,5.1199,5.1199,5.1199,5.1199,5.1199,2.5343,2.6132,2.7322,2.9104,3.004,3.1136,3.3527,3.2496,0.0,0.0,0.0,0.0,0.0,3.6682,3.8562,4.2801,4.6253,4.839,4.8393,4.9593,5.0634,5.111,5.195,5.2746,5.3347,5.4164,5.4734,5.4894,5.4901,5.4901,5.4901,5.4723,5.4617,5.4617,5.3821,5.3302,5.3113,5.2449,5.1758,5.1038,5.0458,5.0079,4.9835,4.9878,4.9905,4.9905,4.9843,4.985,4.9905,4.9836,4.985,4.9905,4.9905,4.9679,4.9421,4.9767,4.8896,4.7668,4.8707,4.944,4.9805,4.9244,4.944,4.9905,4.9905,4.9905,4.9905,4.9905,4.9905,4.9953,5.0155,5.0403,5.0892,5.2119,5.2561,5.3183,5.4932,5.4621,5.4896,5.7923,5.7321,5.6971,5.912,5.9504,5.9549,5.9661,6.0209,6.0736,6.1065,6.1099,6.0802,6.0067,5.999,5.9177,5.7162,5.5573,5.4038,5.2504,5.1649,5.1199,5.1199,5.1199,5.1199,5.1199,5.1199,5.1199,5.1199,5.1199,5.1199,5.1199,5.1394,5.1474,2.5208,2.6583,2.7819,2.7868,2.7426,2.8361,3.3693,3.1991,0.0,3.7248,0.0,0.0,0.0,3.969,4.1344,4.6247,4.7283,4.8811,5.2584,5.3216,5.3475,5.3958,5.4352,5.4506,5.433,5.4656,5.4886,5.4901,5.4901,5.4901,5.4901,5.42,5.3783,5.3783,5.2942,5.2146,5.1388,5.1312,5.1256,5.1173,5.1142,5.0675,4.9898,4.9905,4.9905,4.9905,4.9879,4.9905,4.9905,4.9879,4.9905,4.9905,4.9905,4.9036,4.7946,4.9364,4.8922,4.7819,4.9294,4.9855,4.9893,4.9836,4.9855,4.9905,4.9905,4.9905,4.9905,4.9905,4.9905,4.9953,5.0155,5.0538,5.1285,5.2925,5.3457,5.408,5.5828,5.5514,5.5456,5.7324,5.6936,5.6596,5.7533,5.7747,5.7982,5.8601,5.8803,5.9411,6.0915,6.1099,6.0788,5.9986,5.9951,5.8688,5.5469,5.4333,5.3381,5.2465,5.1649,5.1199,5.1199,5.1199,5.1199,5.1199,5.1199,5.1199,5.1199,5.1199,5.1199,5.1219,5.1979,5.2309,2.3706,2.5401,2.731,2.8218,2.8703,0.0,0.0,3.3913,3.4144,3.8572,3.8941,0.0,0.0,0.0,4.3833,4.6266,4.8511,5.0628,5.2528,5.2893,5.3403,5.4545,5.442,5.4374,5.4735,5.4993,5.4864,5.4196,5.4617,5.4446,5.3397,5.3575,5.3461,5.2904,5.2089,5.1521,5.1199,5.0656,5.0391,5.0391,5.0391,5.0227,4.9905,4.9905,4.9905,4.9905,4.9905,4.9905,4.9905,4.9905,4.9905,4.9905,4.9905,4.894,4.7732,4.9313,4.8903,4.77,4.8827,4.9528,4.9817,4.937,4.9528,4.9905,4.9905,4.9905,4.9905,4.9905,4.9993,5.0123,5.0325,5.051,5.1016,5.2447,5.2838,5.3381,5.5126,5.4815,5.4877,5.7153,5.6411,5.6045,5.798,5.788,5.7801,5.8607,5.9169,5.9532,5.9596,6.0473,6.0604,5.9299,5.9696,5.9125,5.6813,5.6314,5.5284,5.3323,5.194,5.1413,5.1921,5.1474,5.1199,5.1199,5.1199,5.1199,5.1199,5.1199,5.1199,5.1219,5.2037,5.2407,2.3568,2.5085,2.6917,2.8192,0.0,0.0,3.4905,3.5715,3.6759,4.0737,4.1136,4.1021,4.186,0.0,4.5053,4.6795,4.9319,5.1497,5.2786,5.306,5.3607,5.4892,5.4466,5.4325,5.5032,5.5027,5.4651,5.3859,5.4052,5.3687,5.2456,5.2715,5.2639,5.2032,5.1218,5.0789,5.0789,5.0208,4.9933,4.9999,4.9933,4.9905,4.9905,4.9905,4.9905,4.9905,4.9905,4.9905,4.9905,4.9905,4.9905,4.9874,4.9647,4.8726,4.7694,4.9048,4.8701,4.7724,4.8783,4.9484,4.985,4.932,4.949,4.9905,4.9905,4.9905,4.9905,4.9905,5.0044,5.0258,5.0455,5.0558,5.0924,5.2124,5.2407,5.2795,5.4271,5.3905,5.3983,5.6314,5.5553,5.5268,5.7573,5.7508,5.7397,5.8222,5.8843,5.9188,5.9083,6.0035,6.0317,5.9226,5.9468,5.9124,5.7713,5.7599,5.6842,5.5035,5.3591,5.2698,5.2407,5.2135,5.1746,5.1199,5.1455,5.1707,5.1999,5.1999,5.2135,5.2423,5.3242,5.3475,2.5167,2.5986,2.6785,2.7534,0.0,0.0,3.6252,3.7043,3.821,4.392,4.4919,4.5079,4.6007,4.4802,4.4812,4.8422,4.9616,5.1101,5.3991,5.4326,5.4545,5.5293,5.4806,5.4622,5.5247,5.4699,5.4235,5.4007,5.3206,5.2622,5.2395,5.1623,5.1206,5.1187,5.0341,4.9893,4.9893,4.9893,5.0006,5.0201,4.9987,4.9893,4.9893,4.9905,4.9905,4.9905,4.9886,4.9886,4.9905,4.9905,4.9905,4.9824,4.9093,4.832,4.7698,4.8492,4.8319,4.7903,4.939,4.9933,4.9992,4.9913,4.9905,4.9905,4.9905,4.9905,4.9905,4.9905,5.0044,5.0258,5.0455,5.07,5.1149,5.2146,5.2387,5.2643,5.3497,5.3012,5.2931,5.4657,5.431,5.4246,5.5915,5.6268,5.656,5.7273,5.745,5.8087,5.9669,5.9874,5.991,5.9971,5.9277,5.8487,5.7674,5.7619,5.7619,5.7619,5.678,5.5145,5.2542,5.3264,5.2934,5.1258,5.2018,5.2856,5.3711,5.3711,5.4158,5.5026,5.5883,5.5825,2.4737,2.5955,2.6978,2.8285,0.0,0.0,0.0,3.7525,0.0,0.0,4.4004,4.427,4.5067,4.6252,4.751,4.8737,4.9759,5.1115,5.3192,5.2621,5.2511,5.3898,5.3924,5.4119,5.4809,5.5209,5.4853,5.3464,5.3643,5.302,5.1152,5.1414,5.1338,5.073,5.0317,5.0112,5.0112,4.9967,5.0006,5.0181,4.9526,4.9509,5.0106,4.996,4.9905,4.9874,4.9351,4.9421,4.9905,4.9905,4.9905,4.9824,4.9093,4.832,4.7698,4.8492,4.8295,4.7849,4.937,4.9899,4.9932,4.9918,4.9905,4.9905,4.9905,4.9905,4.9905,4.9905,5.0044,5.0258,5.0455,5.07,5.101,5.1444,5.1999,5.2465,5.274,5.3553,5.4388,5.489,5.5243,5.564,5.6178,5.6246,5.6313,5.6588,5.7118,5.7881,5.8912,5.8564,5.8455,5.9087,5.8947,5.8697,5.8464,5.8447,5.8447,5.8447,5.7674,5.6586,5.5204,5.4796,5.4096,5.2973,5.3786,5.4368,5.4621,5.5226,5.5327,5.4951,5.5828,5.5752,2.611,2.7368,0.0,3.1206,3.3743,3.6159,3.8263,0.0,0.0,0.0,4.5596,4.5978,4.6758,4.7965,4.9035,4.9602,5.0471,5.1481,5.2619,5.2024,5.1993,5.3375,5.3266,5.3407,5.4219,5.4425,5.4006,5.28,5.2853,5.2223,5.0592,5.1005,5.1043,5.051,5.0066,4.9997,5.0328,4.9876,4.9769,4.9955,4.9676,4.97,4.9945,4.9315,4.9169,4.9381,4.8612,4.8732,4.9452,4.9452,4.9647,4.9786,4.8739,4.8035,4.7666,4.8143,4.8034,4.7817,4.9016,4.9641,4.9882,4.9539,4.9646,4.9905,4.9905,4.9905,4.9905,4.9905,5.0106,5.0341,5.0475,5.0752,5.1046,5.1162,5.1571,5.1921,5.1921,5.3009,5.4077,5.4427,5.5149,5.5857,5.623,5.6275,5.6249,5.6291,5.6977,5.7679,5.8157,5.7807,5.7709,5.8233,5.8309,5.8443,5.8774,5.9127,5.9458,5.9804,5.905,5.8198,5.7321,5.6155,5.5106,5.4235,5.5068,5.5845,5.6502,5.7036,5.7171,5.6968,5.7112,5.6916,2.8558,2.9586,3.1098,3.4855,3.514,0.0,3.9766,4.3076,4.5837,4.7883,0.0,4.9013,4.9945,4.9666,4.9687,5.0816,5.1513,5.1996,5.2255,5.2183,5.2419,5.3261,5.2736,5.2634,5.3491,5.2934,5.2415,5.214,5.1455,5.0905,5.0576,5.0567,5.0567,5.0567,4.9769,4.9678,5.0404,4.9601,4.9285,4.9486,5.0039,5.001,4.944,4.8326,4.8062,4.844,4.777,4.789,4.858,4.8732,4.9187,4.9634,4.8168,4.759,4.7584,4.7513,4.7568,4.7776,4.8454,4.9269,4.9852,4.9072,4.9298,4.9905,4.9905,4.9905,4.9905,4.9905,5.0201,5.0491,5.0491,5.0848,5.1199,5.1199,5.1199,5.1199,5.1199,5.1821,5.2656,5.3536,5.4407,5.5278,5.6155,5.6295,5.6295,5.6295,5.6922,5.7383,5.7383,5.7383,5.7383,5.7383,5.746,5.7849,5.8716,5.9458,6.0312,6.1338,6.0506,5.9632,5.8833,5.734,5.6117,5.5242,5.6152,5.7392,5.8926,5.8988,5.9393,6.0061,5.9216,5.8765,2.9043,3.0016,0.0,3.2886,3.5855,3.9641,4.4983,4.6321,4.6656,4.7446,4.7955,4.8654,5.0002,5.0181,5.0495,5.1591,5.1415,5.1401,5.2191,5.1794,5.1451,5.1546,5.2043,5.245,5.2659,5.3128,5.3116,5.2386,5.2172,5.1771,5.1098,5.1056,5.1056,5.1056,5.0066,4.9629,4.9783,4.8785,4.8375,4.857,4.8709,4.8709,4.8582,4.869,4.8021,4.6834,4.7252,4.7207,4.6947,4.8207,4.8806,4.8876,4.7965,4.7565,4.7447,4.6874,4.702,4.7643,4.8421,4.9236,4.9887,4.9703,4.976,4.9905,4.9905,4.9905,4.9905,4.9905,5.0201,5.0491,5.0491,5.0848,5.1199,5.1199,5.1199,5.1199,5.1199,5.1822,5.2667,5.3533,5.4353,5.5213,5.6133,5.6295,5.6295,5.6295,5.644,5.6553,5.6553,5.6553,5.6553,5.6553,5.656,5.7185,5.8677,5.8393,5.9072,6.126,5.994,5.9011,5.8813,5.8447,5.7884,5.7052,5.8514,5.9466,5.9816,6.0457,6.0479,5.9938,5.9736,5.9289,2.8316,3.0416,0.0,3.6024,0.0,4.3639,4.6188,4.7512,4.8384,4.8882,4.9178,4.9575,5.036,5.0657,5.0971,5.152,5.13,5.1208,5.171,5.1431,5.1168,5.1095,5.1531,5.1824,5.1824,5.2232,5.2309,5.1863,5.1824,5.1649,5.1219,5.1199,5.1199,5.1199,4.9854,4.931,4.974,4.8355,4.7713,4.7831,4.8238,4.8165,4.7677,4.775,4.7036,4.5694,4.6075,4.6271,4.6396,4.7618,4.8118,4.8041,4.7737,4.7325,4.694,4.6963,4.6945,4.7036,4.7808,4.8351,4.8692,4.8692,4.8995,4.94,4.9772,4.9627,4.9412,4.9798,4.9914,5.0014,5.0394,5.0848,5.1199,5.1199,5.1199,5.1199,5.1199,5.1828,5.2657,5.3533,5.4375,5.5243,5.6136,5.6295,5.6295,5.6295,5.6295,5.6295,5.6295,5.6295,5.6295,5.6295,5.6295,5.6819,5.8117,5.7849,5.8334,6.0056,5.8933,5.8208,5.8171,5.8171,5.8171,5.8171,5.9005,5.9642,6.0049,6.0436,6.0384,5.9889,5.991,5.9864,2.6965,3.0476,3.4968,4.0026,4.3576,0.0,4.5814,4.7416,4.9185,5.0128,5.0568,5.077,5.0778,5.1007,5.1199,5.1199,5.1199,5.1199,5.1199,5.1199,5.1199,5.1199,5.1199,5.1141,5.0989,5.1102,5.1141,5.0989,5.0989,5.1047,5.118,5.0908,5.0814,5.0969,4.9279,4.8716,4.9437,4.7861,4.7082,4.7082,4.7803,4.7759,4.6969,4.6527,4.5846,4.5038,4.4997,4.5397,4.6118,4.6935,4.7239,4.7207,4.7326,4.6933,4.6352,4.6945,4.6876,4.6568,4.7024,4.7479,4.782,4.7668,4.8218,4.9014,4.9526,4.9229,4.885,4.9514,4.9494,4.9485,5.0284,5.0848,5.1199,5.1199,5.1199,5.1199,5.1199,5.1837,5.2653,5.3536,5.4524,5.5456,5.6175,5.6295,5.6295,5.6295,5.6295,5.6295,5.6295,5.6295,5.6295,5.6295,5.6295,5.6644,5.7522,5.7463,5.7771,5.8735,5.8036,5.7557,5.7506,5.7763,5.8179,5.8761,5.8727,5.9118,5.9975,5.9925,5.9977,6.0113,6.0111,6.046,2.5426,0.0,3.5065,0.0,4.12,4.2509,0.0,0.0,4.604,4.8312,4.9999,5.106,5.1124,5.1168,5.1199,5.1199,5.1199,5.1199,5.1199,5.1199,5.1199,5.1199,5.1199,5.0891,5.0156,5.0755,5.0891,5.0137,5.0078,5.0409,5.116,4.9765,4.9279,5.004,4.8386,4.7528,4.7645,4.6676,4.6174,4.6174,4.6291,4.6575,4.6976,4.605,4.5462,4.5159,4.4984,4.4983,4.5154,4.6013,4.6367,4.6367,4.6441,4.6372,4.6133,4.5549,4.6163,4.7169,4.6569,4.7763,4.945,4.8749,4.9071,4.9627,4.904,4.8793,4.8711,4.8831,4.9079,4.9485,5.0284,5.0848,5.1199,5.1199,5.1199,5.1199,5.1199,5.1838,5.2664,5.353,5.5013,5.6155,5.6275,5.6295,5.6295,5.6295,5.6295,5.6295,5.6295,5.6295,5.6295,5.6295,5.6295,5.6644,5.7522,5.6916,5.7146,5.8697,5.7993,5.751,5.7506,5.8847,5.9271,5.8636,5.8671,5.9093,5.9902,5.9897,6.0257,6.0934,6.0944,6.1002,2.7675,3.1062,3.4925,0.0,4.1029,4.1298,4.6147,4.5908,4.5366,4.7915,4.9048,4.9614,4.9669,4.9722,4.9745,4.9745,5.0153,5.0467,5.0467,5.0891,5.1199,5.1199,5.0775,5.0312,4.9945,5.0253,5.0117,4.9243,4.9612,4.9845,4.9745,4.9027,4.8774,4.9165,4.7958,4.7295,4.7295,4.6446,4.5999,4.5999,4.5999,4.6147,4.6415,4.5796,4.5385,4.5191,4.499,4.4895,4.4971,4.5843,4.5906,4.5527,4.6087,4.5961,4.5495,4.5651,4.5841,4.6013,4.6152,4.691,4.7763,4.7403,4.7839,4.8426,4.8085,4.7649,4.7416,4.7977,4.8356,4.8786,4.9742,5.0583,5.1199,5.1199,5.1199,5.1199,5.1199,5.1479,5.2116,5.3436,5.511,5.6295,5.6295,5.6295,5.6295,5.6295,5.6295,5.6295,5.6295,5.6295,5.6295,5.6295,5.6295,5.6469,5.6838,5.6528,5.6602,5.734,5.6996,5.6774,5.6772,5.7408,5.7576,5.7145,5.8615,5.9544,5.9892,5.9894,5.9822,5.9725,6.0654,6.0596,0.0,0.0,3.3295,3.929,3.9622,3.9618,0.0,4.4211,4.4182,4.6331,4.7286,4.7742,4.7775,4.8215,4.858,4.858,4.9138,4.9573,4.9573,5.0134,5.0542,5.0542,4.9962,4.9476,4.9263,4.9437,4.9204,4.8347,4.8874,4.9049,4.8619,4.8172,4.8036,4.8269,4.7414,4.6968,4.6968,4.6329,4.5999,4.5999,4.5999,4.5999,4.5994,4.5718,4.5463,4.5254,4.5013,4.4895,4.4952,4.5596,4.5483,4.4971,4.567,4.5525,4.4977,4.5695,4.5639,4.5293,4.571,4.6152,4.6474,4.6266,4.674,4.7365,4.7157,4.6683,4.6372,4.7173,4.7687,4.825,4.9316,5.0399,5.1199,5.1199,5.1199,5.1258,5.1455,5.1494,5.194,5.34,5.4935,5.5961,5.5961,5.6155,5.6295,5.6295,5.6295,5.6295,5.6295,5.6295,5.6295,5.6295,5.6295,5.6295,5.6295,5.6295,5.6288,5.6282,5.6225,5.6186,5.6184,5.6315,5.6371,5.6336,5.8468,5.9575,5.9575,5.9788,5.9575,5.8956,6.0209,6.0016,0.0,2.7542,0.0,3.3655,3.5235,3.6228,0.0,3.9779,4.1105,4.213,4.4251,4.5921,4.587,4.7298,4.8516,4.8516,4.8604,4.8677,4.8677,4.8716,4.8735,4.8735,4.8696,4.8347,4.7528,4.8172,4.8308,4.7431,4.7412,4.7781,4.8561,4.7029,4.6504,4.7334,4.6521,4.6077,4.6077,4.6019,4.5999,4.5999,4.5999,4.5999,4.5997,4.5845,4.5665,4.5459,4.5068,4.4895,4.4895,4.4952,4.4933,4.4895,4.4952,4.4933,4.4914,4.4952,4.547,4.6019,4.5236,4.6013,4.7213,4.6455,4.674,4.727,4.6493,4.6228,4.624,4.6492,4.727,4.825,4.9316,5.0399,5.1199,5.1199,5.1199,5.1416,5.2173,5.2348,5.2601,5.3517,5.4446,5.5064,5.5064,5.5747,5.6295,5.6295,5.6295,5.6295,5.6295,5.6295,5.6295,5.6295,5.6295,5.6295,5.6295,5.6295,5.6278,5.6206,5.6205,5.6164,5.6102,5.6826,5.7245,5.7226,5.8178,5.8666,5.8666,5.9498,5.9885,5.9827,5.9923,5.9479,0.0,0.0,0.0,3.2254,3.2848,3.3278,3.7295,3.8604,3.9399,4.0874,4.315,4.472,4.4136,4.5573,4.6823,4.6823,4.7359,4.7761,4.7761,4.825,4.8599,4.8599,4.8114,4.7645,4.7334,4.7587,4.7395,4.6521,4.6854,4.7058,4.6946,4.6256,4.6056,4.6443,4.6155,4.5999,4.5999,4.5999,4.5999,4.5999,4.5999,4.5999,4.5994,4.5733,4.5577,4.5472,4.5074,4.4895,4.4895,4.4895,4.4895,4.4895,4.4895,4.4895,4.4895,4.4895,4.5103,4.5312,4.5009,4.5653,4.6493,4.5634,4.5944,4.6474,4.5615,4.5465,4.5723,4.6483,4.7424,4.8435,4.9508,5.049,5.1199,5.1199,5.1199,5.1277,5.1571,5.2037,5.2662,5.3536,5.4407,5.5184,5.5747,5.6097,5.6295,5.6295,5.6295,5.6295,5.6295,5.6295,5.6295,5.6295,5.6295,5.6295,5.6295,5.6252,5.6232,5.6199,5.6156,5.6133,5.6098,5.6343,5.6472,5.6472,5.7323,5.8043,5.8608,5.8918,5.8778,5.8232,5.8816,5.8299,2.2617,0.0,0.0,0.0,3.0417,3.0621,3.4696,3.6887,3.8317,3.9219,4.2065,4.4129,4.3256,4.437,4.5525,4.5819,4.6432,4.6851,4.6851,4.7356,4.7728,4.7728,4.7212,4.686,4.6868,4.6862,4.6627,4.6038,4.6408,4.6474,4.6016,4.5923,4.5917,4.5997,4.5999,4.5999,4.5999,4.5999,4.5999,4.5999,4.5999,4.598,4.5935,4.5707,4.5539,4.5381,4.5129,4.4954,4.4895,4.4895,4.4895,4.4895,4.4895,4.4895,4.4895,4.4895,4.4895,4.4895,4.4895,4.5274,4.5672,4.5085,4.5293,4.5659,4.5085,4.5034,4.5367,4.6132,4.7309,4.8477,4.9253,5.0328,5.1199,5.1199,5.1199,5.1199,5.1199,5.163,5.2173,5.2759,5.3553,5.431,5.4893,5.5476,5.5864,5.5864,5.6117,5.6295,5.6295,5.6295,5.6295,5.6295,5.6295,5.6288,5.6275,5.6232,5.6188,5.6163,5.613,5.609,5.6073,5.6025,5.6008,5.6008,5.6568,5.7149,5.7733,5.8318,5.8139,5.7303,5.7888,5.7385,0.0,0.0,0.0,0.0,2.7796,2.8274,3.0025,3.4244,3.7576,3.6895,4.0748,4.3967,4.3159,4.3801,4.4752,4.561,4.5901,4.5999,4.5999,4.5999,4.5999,4.5999,4.5994,4.6008,4.5997,4.5994,4.6008,4.5999,4.5997,4.5997,4.5999,4.5999,4.5999,4.5999,4.5999,4.5999,4.5999,4.5999,4.5999,4.5999,4.5999,4.5938,4.5803,4.578,4.5562,4.5201,4.5196,4.5079,4.4895,4.4895,4.4895,4.4895,4.4895,4.4895,4.4895,4.4895,4.4895,4.4895,4.4895,4.4895,4.4895,4.4895,4.4895,4.4895,4.4901,4.5045,4.5258,4.5488,4.6873,4.8365,4.861,4.994,5.1199,5.1199,5.1199,5.1199,5.1199,5.1199,5.1199,5.1238,5.1882,5.2445,5.2465,5.3902,5.5045,5.5045,5.5767,5.6295,5.6295,5.6295,5.6291,5.6291,5.6291,5.6278,5.6202,5.6195,5.6163,5.6102,5.6094,5.6073,5.5988,5.6008,5.6008,5.6008,5.6008,5.6008,5.6008,5.7695,5.8081,5.7265,5.7265,5.682,2.1361,0.0,0.0,0.0,0.0,0.0,2.8162,3.0602,3.3147,3.5403,3.7982,4.0132,4.1118,4.2568,4.3921,4.4792,4.5489,4.5933,4.5994,4.5999,4.5999,4.5999,4.5994,4.5991,4.5999,4.5994,4.5991,4.5999,4.592,4.5908,4.5997,4.5999,4.5999,4.5999,4.5999,4.5999,4.5999,4.5999,4.5999,4.5999,4.5999,4.5938,4.58,4.5646,4.5441,4.5196,4.504,4.4961,4.4895,4.4895,4.4895,4.4895,4.4895,4.4895,4.4895,4.4895,4.4895,4.4895,4.4895,4.4895,4.4895,4.4895,4.4895,4.4925,4.5074,4.5268,4.5589,4.6368,4.7516,4.8811,5.0145,5.083,5.1199,5.1199,5.1199,5.1199,5.1199,5.1199,5.1374,5.196,5.2759,5.3536,5.4174,5.5204,5.5942,5.5942,5.6155,5.6295,5.6295,5.6295,5.6282,5.6235,5.6235,5.6218,5.6198,5.6168,5.6122,5.6098,5.6046,5.602,5.6008,5.6008,5.6008,5.6008,5.6008,5.6008,5.6008,5.6472,5.6607,5.6356,5.6356,5.624,0.0,0.0,0.0,0.0,0.0,0.0,2.6982,2.9748,3.2597,3.4596,3.7543,3.9828,4.0025,4.1515,4.2773,4.2934,4.3986,4.5057,4.5889,4.5999,4.5999,4.5999,4.6008,4.6008,4.5999,4.6008,4.6008,4.5999,4.5935,4.5926,4.5997,4.5999,4.5999,4.5999,4.5999,4.5999,4.5999,4.5999,4.5999,4.5999,4.5999,4.5892,4.5665,4.5541,4.5338,4.5068,4.4961,4.4895,4.4895,4.4895,4.4895,4.4895,4.4895,4.4895,4.4895,4.4895,4.4895,4.4895,4.4895,4.4895,4.4895,4.4895,4.4967,4.504,4.5164,4.5395,4.5742,4.6339,4.7514,4.9007,5.0755,5.1199,5.1199,5.1199,5.1199,5.1199,5.1199,5.1199,5.1335,5.1804,5.2309,5.2912,5.3766,5.464,5.5343,5.5709,5.6078,5.6295,5.6295,5.6295,5.6278,5.6202,5.6199,5.6197,5.6157,5.611,5.609,5.6069,5.6025,5.6008,5.6008,5.6008,5.6008,5.6008,5.6008,5.6008,5.6008,5.6008,5.6008,5.6008,5.6008,5.6008,0.0,0.0,0.0,0.0,2.5745,0.0,2.6032,2.9998,3.3609,3.3809,3.762,4.0502,3.912,4.0144,4.0941,4.0224,4.1523,4.3332,4.5401,4.5717,4.5739,4.5831,4.5853,4.5892,4.5997,4.5997,4.5992,4.5999,4.5999,4.5999,4.5999,4.5999,4.5999,4.5999,4.5999,4.5999,4.5999,4.5999,4.5999,4.5999,4.5999,4.5838,4.5524,4.5503,4.5284,4.4937,4.4907,4.4895,4.4895,4.4925,4.4919,4.4895,4.4925,4.4937,4.4937,4.4937,4.4937,4.4931,4.4901,4.4913,4.4937,4.4937,4.5068,4.5243,4.5268,4.5526,4.5845,4.6056,4.7372,4.9124,5.0775,5.1199,5.1199,5.1199,5.1199,5.1199,5.1199,5.1199,5.1199,5.1199,5.1355,5.1707,5.2426,5.3342,5.4255,5.5029,5.5806,5.6295,5.6295,5.6288,5.6275,5.6215,5.6188,5.6156,5.6094,5.609,5.605,5.5993,5.6008,5.6008,5.6008,5.6008,5.6008,5.6008,5.6008,5.6008,5.6008,5.6008,5.6008,5.6008,5.6008,5.6008,0.0,0.0,0.0,2.3881,2.4821,0.0,2.3804,2.6256,2.9325,3.0781,3.2449,3.4154,3.5841,3.6471,3.6671,3.6472,3.7885,4.0133,4.3378,4.3878,4.4156,4.4791,4.4921,4.5229,4.5938,4.5997,4.5994,4.5999,4.5999,4.5999,4.5999,4.5999,4.5999,4.5999,4.5999,4.5999,4.5999,4.5999,4.5999,4.5999,4.5999,4.5907,4.5737,4.5562,4.5367,4.5126,4.4966,4.4895,4.4913,4.5074,4.504,4.4913,4.5079,4.5137,4.5137,4.5137,4.5137,4.5129,4.4967,4.5013,4.5137,4.5137,4.5288,4.5468,4.5634,4.5737,4.6121,4.7626,4.8818,4.9884,5.093,5.1199,5.1199,5.1199,5.1199,5.1199,5.1199,5.1199,5.1199,5.1199,5.229,5.3264,5.342,5.4741,5.5848,5.6019,5.6194,5.6295,5.6295,5.6249,5.6215,5.6194,5.6141,5.6082,5.6025,5.602,5.6016,5.6008,5.6008,5.6008,5.6008,5.6008,5.6008,5.6008,5.6008,5.6008,5.6008,5.6008,5.6008,5.6008,5.6008,5.6008,2.8098,2.7446,2.6824,2.547,2.5793,0.0,0.0,2.6131,2.868,3.0027,3.1677,3.3263,3.4487,3.4728,3.4742,3.4709,3.5435,3.6785,3.9008,4.1271,4.3193,4.4533,4.4736,4.509,4.5921,4.5999,4.5999,4.5999,4.5999,4.5999,4.5999,4.5999,4.5999,4.5999,4.5999,4.5999,4.5999,4.5999,4.5999,4.5999,4.5999,4.5886,4.5646,4.5556,4.5333,4.504,4.493,4.4967,4.5057,4.5153,4.5201,4.5211,4.5304,4.5347,4.5347,4.5347,4.5347,4.5347,4.5223,4.5273,4.5347,4.5347,4.55,4.5661,4.5763,4.6145,4.6832,4.8213,4.9224,5.0098,5.0969,5.1199,5.1199,5.1199,5.1199,5.1199,5.1199,5.1199,5.1316,5.1727,5.2837,5.3692,5.3692,5.4799,5.5806,5.6233,5.6295,5.6288,5.6249,5.6213,5.6197,5.6157,5.6129,5.6077,5.6012,5.6008,5.6008,5.6008,5.6008,5.6008,5.6008,5.6008,5.6008,5.6008,5.6008,5.6008,5.6008,5.6008,5.6008,5.6008,5.6008,5.6008,2.9936,2.9216,2.8543,2.7796,2.7389,2.6692,0.0,0.0,0.0,2.9181,3.1207,3.2865,3.2777,3.2877,3.2938,3.2774,3.3142,3.372,3.4446,3.7956,4.1122,4.2984,4.3505,4.3979,4.4627,4.5168,4.5612,4.598,4.5999,4.5999,4.5999,4.5999,4.5999,4.5999,4.5999,4.5999,4.5999,4.5999,4.5999,4.5999,4.5999,4.5845,4.5565,4.553,4.5294,4.4967,4.4967,4.5045,4.5211,4.5274,4.5409,4.5565,4.5565,4.5565,4.5565,4.5565,4.5565,4.5541,4.5507,4.5535,4.5565,4.5565,4.5684,4.5867,4.6041,4.6774,4.7723,4.8599,4.9476,5.0312,5.1027,5.1199,5.1199,5.1199,5.1199,5.1199,5.1199,5.1199,5.1435,5.2232,5.3109,5.375,5.3925,5.466,5.5495,5.6194,5.6288,5.6252,5.6202,5.6185,5.6152,5.6102,5.609,5.6069,5.5993,5.6008,5.6008,5.6008,5.6008,5.6008,5.6008,5.6008,5.6008,5.6008,5.6008,5.6008,5.6008,5.6008,5.6008,5.6008,5.6008,5.6008,3.2451,3.2122,3.1332,2.8359,2.8604,2.8388,2.3746,0.0,2.7191,2.5799,0.0,2.8188,2.8237,0.0,0.0,2.8351,3.0082,3.1582,3.1807,3.3561,3.5476,3.7229,3.8869,3.9863,3.997,4.2183,4.4277,4.5877,4.5999,4.5999,4.5999,4.5999,4.5999,4.5999,4.5999,4.5999,4.5999,4.5999,4.5999,4.5999,4.5999,4.591,4.5756,4.5585,4.5376,4.5164,4.5164,4.518,4.5232,4.557,4.5745,4.5778,4.5778,4.5778,4.5778,4.5778,4.5778,4.5741,4.5549,4.5618,4.5778,4.5778,4.5858,4.6116,4.691,4.7753,4.8638,4.9515,5.0389,5.1086,5.116,5.1199,5.1199,5.1199,5.1199,5.1199,5.1199,5.1199,5.1435,5.2232,5.3109,5.3944,5.4718,5.5573,5.6194,5.6295,5.6246,5.6206,5.6199,5.6156,5.6106,5.6098,5.6042,5.6012,5.6008,5.6008,5.6008,5.6008,5.6008,5.6008,5.6008,5.6008,5.6008,5.6008,5.6008,5.6008,5.6008,5.6008,5.6008,5.6008,5.6008,5.6008,3.3595,3.3503,3.3129,3.1722,3.0734,2.9565,2.7408,2.6384,2.5842,2.5642,0.0,0.0,0.0,0.0,0.0,0.0,2.8205,2.8779,3.0319,3.1148,3.284,3.6213,3.7282,3.8554,4.062,4.0887,4.2099,4.4927,4.4235,4.4099,4.5088,4.5676,4.5999,4.5999,4.5999,4.5999,4.5999,4.5999,4.5999,4.5999,4.5999,4.588,4.5622,4.5548,4.5385,4.5201,4.5201,4.5328,4.5569,4.573,4.5854,4.5926,4.5926,4.5926,4.5926,4.5926,4.5926,4.5898,4.5822,4.5858,4.5926,4.5926,4.5942,4.6155,4.7043,4.792,4.8774,4.9651,5.0522,5.1199,5.1199,5.1199,5.1199,5.1199,5.1199,5.1335,5.1804,5.1532,5.1743,5.3553,5.3808,5.4138,5.5514,5.6058,5.6285,5.6246,5.6229,5.6185,5.6156,5.6118,5.6086,5.6042,5.602,5.6008,5.6008,5.6008,5.6008,5.6008,5.6008,5.6008,5.6008,5.6008,5.6008,5.6008,5.6008,5.6008,5.6008,5.6008,5.6008,5.6008,5.6008,5.6008,3.5216,3.521,3.4873,3.3698,3.1956,3.0244,2.9015,2.7068,2.5593,2.5993,2.6376,0.0,0.0,0.0,0.0,0.0,0.0,2.7698,2.9313,2.954,3.0763,3.4094,3.5339,3.6854,3.9213,3.9297,4.0281,4.2885,4.2409,4.2731,4.4441,4.5459,4.5999,4.5999,4.5999,4.5999,4.5999,4.5999,4.5999,4.5999,4.5967,4.5792,4.5494,4.5441,4.5333,4.5206,4.5268,4.5472,4.5807,4.5848,4.5901,4.5999,4.5999,4.5999,4.5999,4.5999,4.5999,4.5999,4.5999,4.5999,4.5999,4.5999,4.5999,4.6213,4.7317,4.8094,4.8832,4.9943,5.0717,5.1199,5.1199,5.1199,5.1199,5.1199,5.1199,5.1355,5.194,5.1785,5.2154,5.4232,5.433,5.4524,5.6029,5.6288,5.6282,5.6206,5.6192,5.6179,5.6106,5.6086,5.6046,5.6012,5.6008,5.6008,5.6008,5.6008,5.6008,5.6008,5.6008,5.6008,5.6008,5.6008,5.6008,5.6008,5.6008,5.6008,5.6008,5.6008,5.6008,5.6008,5.6008,5.6008,3.7893,3.7877,3.6865,3.2641,3.1523,3.034,2.6039,2.6193,2.6988,2.6169,2.7249,2.811,2.7428,0.0,0.0,0.0,0.0,0.0,0.0,2.8647,2.8693,2.8842,3.1909,3.3739,3.3061,3.6762,3.9268,3.9451,4.1048,4.2759,4.4505,4.549,4.5999,4.5999,4.5999,4.5999,4.5999,4.5999,4.5999,4.5999,4.5877,4.5708,4.5485,4.5289,4.5211,4.5217,4.5404,4.561,4.5817,4.5947,4.5997,4.5999,4.5999,4.5999,4.5999,4.5999,4.5999,4.5999,4.5999,4.5999,4.5999,4.5999,4.5999,4.631,4.8036,4.858,4.8968,5.0678,5.118,5.1199,5.1199,5.1199,5.1199,5.1199,5.1199,5.1199,5.1238,5.1824,5.264,5.3556,5.4407,5.521,5.605,5.6249,5.6282,5.6206,5.6205,5.6184,5.6102,5.6037,5.6008,5.6008,5.6008,5.6008,5.6008,5.6008,5.6008,5.6008,5.6008,5.6008,5.6008,5.6008,5.6008,5.6008,5.6008,5.6008,5.6008,5.6008,5.6008,5.6008,5.6008,5.6008,3.9748,4.0299,4.0228,3.8218,3.5488,3.2741,3.0671,2.9096,2.77,2.6351,2.7771,2.8865,2.7535,0.0,0.0,0.0,0.0,0.0,0.0,2.7285,2.713,2.7681,2.9814,3.1842,3.3356,3.3184,3.4679,3.8796,3.8112,3.876,4.1674,4.3347,4.422,4.422,4.5373,4.5999,4.5999,4.5999,4.5999,4.5999,4.5854,4.5684,4.5485,4.5284,4.5264,4.5399,4.5468,4.5661,4.5944,4.5983,4.5999,4.5999,4.5999,4.5999,4.5999,4.5999,4.5999,4.5999,4.5999,4.5999,4.5999,4.5999,4.6388,4.7084,4.825,4.901,4.9709,5.0872,5.1199,5.1199,5.1199,5.1199,5.1199,5.1199,5.1199,5.1355,5.1882,5.2212,5.2834,5.4271,5.4796,5.5275,5.612,5.6246,5.6215,5.6129,5.6126,5.6102,5.6037,5.6016,5.6008,5.6008,5.6008,5.6008,5.6008,5.6008,5.6008,5.6008,5.6008,5.6008,5.6008,5.6008,5.6008,5.6008,5.6008,5.6008,5.6008,5.6008,5.6008,5.6008,5.6008,5.6008,4.1594,4.2244,4.2272,4.0818,3.8256,3.5723,3.4206,3.2824,3.1508,3.0142,3.1573,3.2556,3.0819,0.0,0.0,0.0,0.0,0.0,0.0,2.6873,2.6752,2.7266,2.9158,3.071,3.1512,3.1136,3.245,3.6383,3.5507,3.6286,3.9754,4.2075,4.3303,4.3303,4.5052,4.5999,4.5999,4.5999,4.5999,4.5999,4.5782,4.5626,4.5485,4.5222,4.5248,4.5494,4.5494,4.5691,4.5999,4.5999,4.5999,4.5999,4.5999,4.5999,4.5999,4.5999,4.5999,4.5999,4.5999,4.5999,4.5999,4.5999,4.6599,4.7451,4.8347,4.9204,5.0137,5.1299,5.1416,5.1277,5.1552,5.1413,5.1199,5.1199,5.1199,5.1416,5.2232,5.264,5.3281,5.4718,5.5242,5.5628,5.6178,5.6225,5.6182,5.6149,5.6125,5.6082,5.6012,5.6008,5.6008,5.6008,5.6008,5.6008,5.6008,5.6008,5.6008,5.6008,5.6008,5.6008,5.6008,5.6008,5.6433,5.7366,5.6472,5.6452,5.7385,5.6452,5.6008,5.6008,5.6008,5.6008]}]]